| time (UTC) | temp F | wind direction | speed knots | gust knots | rain 1hr in | rain 24hr in | rain mn in | humidity % | barometer mb |
| 20260508211542 | 67 | 267 | 2.6 | 7.0 | 0.00 | 0.00 | 0.00 | 51 | 1010.6 |
| 20260508211439 | 67 | 240 | 0.9 | 7.0 | 0.00 | 0.00 | 0.00 | 50 | 1010.6 |
| 20260508211337 | 67 | 220 | 0.9 | 7.0 | 0.00 | 0.00 | 0.00 | 49 | 1010.4 |
| 20260508211235 | 67 | 160 | 1.7 | 7.0 | 0.00 | 0.00 | 0.00 | 47 | 1010.4 |
| 20260508211137 | 67 | 179 | 1.7 | 9.6 | 0.00 | 0.00 | 0.00 | 48 | 1010.4 |
| 20260508211036 | 67 | 258 | 3.5 | 9.6 | 0.00 | 0.00 | 0.00 | 50 | 1010.4 |
| 20260508210934 | 67 | 275 | 5.2 | 9.6 | 0.00 | 0.00 | 0.00 | 50 | 1010.4 |
| 20260508210832 | 67 | 271 | 2.6 | 9.6 | 0.00 | 0.00 | 0.00 | 48 | 1010.4 |
| 20260508210730 | 67 | 216 | 1.7 | 9.6 | 0.00 | 0.00 | 0.00 | 47 | 1010.4 |
| 20260508210628 | 67 | 233 | 0.9 | 9.6 | 0.00 | 0.00 | 0.00 | 47 | 1010.4 |
| 20260508210546 | 67 | 256 | 3.5 | 9.6 | 0.00 | 0.00 | 0.00 | 47 | 1010.4 |
| 20260508210428 | 67 | 313 | 4.3 | 9.6 | 0.00 | 0.00 | 0.00 | 49 | 1010.4 |
| 20260508210326 | 67 | 232 | 6.1 | 9.6 | 0.00 | 0.00 | 0.00 | 49 | 1010.4 |
| 20260508210237 | 67 | 261 | 4.3 | 6.1 | 0.00 | 0.00 | 0.00 | 49 | 1010.4 |
| 20260508210146 | 67 | 263 | 1.7 | 6.1 | 0.00 | 0.00 | 0.00 | 48 | 1010.4 |
| 20260508210043 | 67 | 234 | 0.9 | 6.1 | 0.00 | 0.00 | 0.00 | 47 | 1010.4 |
| 20260508205941 | 67 | 236 | 0.9 | 7.8 | 0.00 | 0.00 | 0.00 | 47 | 1010.4 |
| 20260508205842 | 67 | 171 | 1.7 | 8.7 | 0.00 | 0.00 | 0.00 | 47 | 1009.6 |
| 20260508205800 | 67 | 189 | 1.7 | 8.7 | 0.00 | 0.00 | 0.00 | 48 | 1009.6 |
| 20260508205642 | 67 | 308 | 1.7 | 8.7 | 0.00 | 0.00 | 0.00 | 47 | 1009.6 |
| 20260508205540 | 66 | 247 | 1.7 | 8.7 | 0.00 | 0.00 | 0.00 | 46 | 1009.6 |
| 20260508205437 | 66 | 161 | 2.6 | 8.7 | 0.00 | 0.00 | 0.00 | 46 | 1009.6 |
| 20260508205336 | 66 | 254 | 3.5 | 8.7 | 0.00 | 0.00 | 0.00 | 47 | 1009.6 |
| 20260508205234 | 66 | 203 | 3.5 | 8.7 | 0.00 | 0.00 | 0.00 | 47 | 1009.6 |
| 20260508205152 | 66 | 223 | 5.2 | 8.7 | 0.00 | 0.00 | 0.00 | 47 | 1009.6 |
| 20260508205029 | 66 | 138 | 5.2 | 8.7 | 0.00 | 0.00 | 0.00 | 47 | 1009.6 |
| 20260508204932 | 66 | 272 | 1.7 | 7.0 | 0.00 | 0.00 | 0.00 | 47 | 1009.6 |
| 20260508204831 | 66 | 213 | 3.5 | 7.0 | 0.00 | 0.00 | 0.00 | 47 | 1009.6 |
| 20260508204740 | 66 | 260 | 4.3 | 7.8 | 0.00 | 0.00 | 0.00 | 46 | 1009.6 |
| 20260508204650 | 66 | 304 | 2.6 | 12.2 | 0.00 | 0.00 | 0.00 | 45 | 1009.6 |
| 20260508204528 | 66 | 285 | 1.7 | 12.2 | 0.00 | 0.00 | 0.00 | 46 | 1009.6 |
| 20260508204448 | 66 | 270 | 5.2 | 12.2 | 0.00 | 0.00 | 0.00 | 46 | 1009.6 |
| 20260508204346 | 66 | 169 | 2.6 | 12.2 | 0.00 | 0.00 | 0.00 | 47 | 1010.1 |
| 20260508204243 | 66 | 325 | 1.7 | 12.2 | 0.00 | 0.00 | 0.00 | 47 | 1010.1 |
| 20260508204141 | 66 | 251 | 1.7 | 12.2 | 0.00 | 0.00 | 0.00 | 48 | 1010.1 |
| 20260508204105 | 66 | 240 | 2.6 | 12.2 | 0.00 | 0.00 | 0.00 | 49 | 1010.1 |
| 20260508204005 | 66 | 288 | 4.3 | 12.2 | 0.00 | 0.00 | 0.00 | 48 | 1010.1 |
| 20260508203842 | 66 | 267 | 6.1 | 12.2 | 0.00 | 0.00 | 0.00 | 48 | 1010.1 |
| 20260508203741 | 66 | 270 | 2.6 | 8.7 | 0.00 | 0.00 | 0.00 | 48 | 1010.1 |
| 20260508203640 | 66 | 253 | 5.2 | 8.7 | 0.00 | 0.00 | 0.00 | 50 | 1010.1 |
| 20260508203535 | 66 | 215 | 3.5 | 9.6 | 0.00 | 0.00 | 0.00 | 48 | 1010.1 |
| 20260508203435 | 66 | 236 | 2.6 | 9.6 | 0.00 | 0.00 | 0.00 | 48 | 1010.1 |
| 20260508203332 | 66 | 230 | 3.5 | 9.6 | 0.00 | 0.00 | 0.00 | 46 | 1010.1 |
| 20260508203255 | 66 | 193 | 0.9 | 9.6 | 0.00 | 0.00 | 0.00 | 45 | 1010.1 |
| 20260508203226 | 66 | 168 | 0.9 | 9.6 | 0.00 | 0.00 | 0.00 | 47 | 1010.1 |
| 20260508203102 | 66 | 143 | 2.6 | 9.6 | 0.00 | 0.00 | 0.00 | 50 | 1010.1 |
| 20260508203001 | 66 | 299 | 2.6 | 9.6 | 0.00 | 0.00 | 0.00 | 49 | 1010.1 |
| 20260508202841 | 66 | 195 | 3.5 | 9.6 | 0.00 | 0.00 | 0.00 | 49 | 1010.4 |
| 20260508202739 | 66 | 244 | 4.3 | 9.6 | 0.00 | 0.00 | 0.00 | 50 | 1010.4 |
| 20260508202637 | 66 | 236 | 4.3 | 9.6 | 0.00 | 0.00 | 0.00 | 48 | 1010.4 |
| 20260508202536 | 66 | 126 | 3.5 | 9.6 | 0.00 | 0.00 | 0.00 | 48 | 1010.4 |
| 20260508202439 | 66 | 240 | 3.5 | 9.6 | 0.00 | 0.00 | 0.00 | 47 | 1010.4 |
| 20260508202336 | 66 | 141 | 3.5 | 9.6 | 0.00 | 0.00 | 0.00 | 48 | 1010.4 |
| 20260508202235 | 66 | 216 | 1.7 | 9.6 | 0.00 | 0.00 | 0.00 | 51 | 1010.4 |
| 20260508202133 | 66 | 292 | 4.3 | 9.6 | 0.00 | 0.00 | 0.00 | 51 | 1010.4 |
| 20260508202030 | 66 | 263 | 3.5 | 9.6 | 0.00 | 0.00 | 0.00 | 51 | 1010.4 |
| 20260508201929 | 66 | 212 | 4.3 | 9.6 | 0.00 | 0.00 | 0.00 | 51 | 1010.4 |
| 20260508201829 | 66 | 182 | 6.1 | 9.6 | 0.00 | 0.00 | 0.00 | 51 | 1010.4 |
| 20260508201739 | 66 | 301 | 3.5 | 8.7 | 0.00 | 0.00 | 0.00 | 51 | 1010.4 |
| 20260508201653 | 66 | 294 | 2.6 | 8.7 | 0.00 | 0.00 | 0.00 | 52 | 1010.4 |
| 20260508201530 | 66 | 271 | 5.2 | 8.7 | 0.00 | 0.00 | 0.00 | 51 | 1010.4 |
| 20260508201449 | 66 | 277 | 3.5 | 8.7 | 0.00 | 0.00 | 0.00 | 51 | 1010.4 |
| 20260508201327 | 66 | 247 | 4.3 | 8.7 | 0.00 | 0.00 | 0.00 | 50 | 1010.2 |
| 20260508201244 | 66 | 161 | 2.6 | 7.0 | 0.00 | 0.00 | 0.00 | 52 | 1010.2 |
| 20260508201203 | 66 | 157 | 0.9 | 6.1 | 0.00 | 0.00 | 0.00 | 53 | 1010.2 |
| 20260508201041 | 66 | 176 | 1.7 | 6.1 | 0.00 | 0.00 | 0.00 | 53 | 1010.2 |
| 20260508200939 | 66 | 133 | 3.5 | 6.1 | 0.00 | 0.00 | 0.00 | 53 | 1010.2 |
| 20260508200844 | 66 | 154 | 2.6 | 6.1 | 0.00 | 0.00 | 0.00 | 50 | 1010.2 |
| 20260508200722 | 66 | 257 | 1.7 | 5.2 | 0.00 | 0.00 | 0.00 | 49 | 1010.2 |
| 20260508200624 | 66 | 161 | 0.9 | 5.2 | 0.00 | 0.00 | 0.00 | 50 | 1010.2 |
| 20260508200542 | 66 | 237 | 1.7 | 5.2 | 0.00 | 0.00 | 0.00 | 50 | 1010.2 |
| 20260508200441 | 66 | 291 | 3.5 | 5.2 | 0.00 | 0.00 | 0.00 | 48 | 1010.2 |
| 20260508200339 | 66 | 301 | 3.5 | 5.2 | 0.00 | 0.00 | 0.00 | 47 | 1010.2 |
| 20260508200222 | 66 | 141 | 3.5 | 5.2 | 0.00 | 0.00 | 0.00 | 47 | 1010.2 |
| 20260508200157 | 66 | 150 | 3.5 | 5.2 | 0.00 | 0.00 | 0.00 | 47 | 1010.2 |
| 20260508200057 | 66 | 128 | 1.7 | 4.3 | 0.00 | 0.00 | 0.00 | 46 | 1010.2 |
| 20260508195937 | 66 | 123 | 0.0 | 5.2 | 0.00 | 0.00 | 0.00 | 49 | 1010.2 |
| 20260508195855 | 66 | 138 | 0.9 | 5.2 | 0.00 | 0.00 | 0.00 | 50 | 1010.0 |
| 20260508195732 | 66 | 128 | 0.9 | 5.2 | 0.00 | 0.00 | 0.00 | 50 | 1010.0 |
| 20260508195631 | 66 | 219 | 0.0 | 8.7 | 0.00 | 0.00 | 0.00 | 49 | 1010.0 |
| 20260508195550 | 66 | 178 | 0.0 | 8.7 | 0.00 | 0.00 | 0.00 | 49 | 1010.0 |
| 20260508195429 | 66 | 203 | 0.0 | 8.7 | 0.00 | 0.00 | 0.00 | 48 | 1010.0 |
| 20260508195332 | 66 | 165 | 1.7 | 8.7 | 0.00 | 0.00 | 0.00 | 49 | 1010.0 |
| 20260508195231 | 66 | 195 | 0.9 | 8.7 | 0.00 | 0.00 | 0.00 | 50 | 1010.0 |
| 20260508195130 | 66 | 184 | 2.6 | 8.7 | 0.00 | 0.00 | 0.00 | 50 | 1010.0 |
| 20260508195047 | 66 | 209 | 1.7 | 8.7 | 0.00 | 0.00 | 0.00 | 49 | 1010.0 |
| 20260508194924 | 66 | 100 | 1.7 | 8.7 | 0.00 | 0.00 | 0.00 | 49 | 1010.0 |
| 20260508194843 | 66 | 90 | 4.3 | 8.7 | 0.00 | 0.00 | 0.00 | 48 | 1010.0 |
| 20260508194733 | 66 | 227 | 0.9 | 7.8 | 0.00 | 0.00 | 0.00 | 46 | 1010.0 |
| 20260508194647 | 66 | 154 | 2.6 | 7.8 | 0.00 | 0.00 | 0.00 | 46 | 1010.0 |
| 20260508194525 | 66 | 168 | 0.9 | 7.8 | 0.00 | 0.00 | 0.00 | 47 | 1010.0 |
| 20260508194444 | 66 | 263 | 0.9 | 7.8 | 0.00 | 0.00 | 0.00 | 47 | 1010.0 |
| 20260508194341 | 66 | 185 | 3.5 | 7.8 | 0.00 | 0.00 | 0.00 | 48 | 1010.3 |
| 20260508194240 | 66 | 172 | 1.7 | 7.8 | 0.00 | 0.00 | 0.00 | 47 | 1010.3 |
| 20260508194138 | 66 | 189 | 5.2 | 7.8 | 0.00 | 0.00 | 0.00 | 50 | 1010.3 |
| 20260508194036 | 66 | 213 | 4.3 | 7.8 | 0.00 | 0.00 | 0.00 | 50 | 1010.3 |
| 20260508193938 | 66 | 162 | 1.7 | 7.0 | 0.00 | 0.00 | 0.00 | 51 | 1010.3 |
| 20260508193857 | 66 | 232 | 0.9 | 7.0 | 0.00 | 0.00 | 0.00 | 50 | 1010.3 |
| 20260508193734 | 66 | 270 | 1.7 | 7.0 | 0.00 | 0.00 | 0.00 | 49 | 1010.3 |
| 20260508193632 | 66 | 152 | 0.9 | 4.3 | 0.00 | 0.00 | 0.00 | 49 | 1010.3 |
| 20260508193532 | 66 | 120 | 0.0 | 4.3 | 0.00 | 0.00 | 0.00 | 49 | 1010.3 |
| 20260508193430 | 66 | 140 | 0.9 | 4.3 | 0.00 | 0.00 | 0.00 | 48 | 1010.3 |
| 20260508193328 | 66 | 110 | 1.7 | 4.3 | 0.00 | 0.00 | 0.00 | 47 | 1010.3 |
| 20260508193237 | 66 | 205 | 3.5 | 4.3 | 0.00 | 0.00 | 0.00 | 46 | 1010.3 |
| 20260508193150 | 66 | 136 | 1.7 | 4.3 | 0.00 | 0.00 | 0.00 | 47 | 1010.3 |
| 20260508193047 | 66 | 112 | 2.6 | 5.2 | 0.00 | 0.00 | 0.00 | 47 | 1010.3 |
| 20260508192925 | 66 | 162 | 0.0 | 5.2 | 0.00 | 0.00 | 0.00 | 46 | 1010.3 |
| 20260508192843 | 66 | 167 | 0.9 | 5.2 | 0.00 | 0.00 | 0.00 | 48 | 1010.7 |
| 20260508192742 | 66 | 117 | 0.0 | 5.2 | 0.00 | 0.00 | 0.00 | 46 | 1010.7 |
| 20260508192640 | 66 | 138 | 0.0 | 5.2 | 0.00 | 0.00 | 0.00 | 49 | 1010.7 |
| 20260508192538 | 66 | 137 | 0.0 | 5.2 | 0.00 | 0.00 | 0.00 | 48 | 1010.7 |
| 20260508192437 | 66 | 189 | 0.9 | 5.2 | 0.00 | 0.00 | 0.00 | 48 | 1010.7 |
| 20260508192340 | 66 | 175 | 0.9 | 7.0 | 0.00 | 0.00 | 0.00 | 49 | 1010.7 |
| 20260508192258 | 66 | 150 | 1.7 | 7.0 | 0.00 | 0.00 | 0.00 | 47 | 1010.7 |
| 20260508192137 | 66 | 128 | 3.5 | 7.0 | 0.00 | 0.00 | 0.00 | 49 | 1010.7 |
| 20260508192036 | 66 | 124 | 3.5 | 7.0 | 0.00 | 0.00 | 0.00 | 50 | 1010.7 |
| 20260508191933 | 66 | 136 | 1.7 | 7.0 | 0.00 | 0.00 | 0.00 | 47 | 1010.7 |
| 20260508191832 | 66 | 154 | 0.0 | 7.0 | 0.00 | 0.00 | 0.00 | 45 | 1010.7 |
| 20260508191731 | 66 | 141 | 1.7 | 7.0 | 0.00 | 0.00 | 0.00 | 48 | 1010.7 |
| 20260508191705 | 66 | 179 | 3.5 | 7.0 | 0.00 | 0.00 | 0.00 | 48 | 1010.7 |
| 20260508191540 | 66 | 134 | 4.3 | 7.0 | 0.00 | 0.00 | 0.00 | 48 | 1010.7 |
| 20260508191438 | 66 | 109 | 0.0 | 7.0 | 0.00 | 0.00 | 0.00 | 48 | 1010.7 |
| 20260508191357 | 66 | 133 | 3.5 | 7.0 | 0.00 | 0.00 | 0.00 | 49 | 1011.9 |
| 20260508191235 | 66 | 137 | 5.2 | 7.0 | 0.00 | 0.00 | 0.00 | 45 | 1011.9 |
| 20260508191134 | 66 | 215 | 5.2 | 6.1 | 0.00 | 0.00 | 0.00 | 45 | 1011.9 |
| 20260508191032 | 66 | 251 | 4.3 | 6.1 | 0.00 | 0.00 | 0.00 | 49 | 1011.9 |
| 20260508190932 | 66 | 210 | 4.3 | 6.1 | 0.00 | 0.00 | 0.00 | 48 | 1011.9 |
| 20260508190836 | 66 | 138 | 5.2 | 6.1 | 0.00 | 0.00 | 0.00 | 49 | 1011.9 |
| 20260508190734 | 66 | 130 | 3.5 | 6.1 | 0.00 | 0.00 | 0.00 | 46 | 1011.9 |
| 20260508190653 | 66 | 215 | 0.9 | 8.7 | 0.00 | 0.00 | 0.00 | 45 | 1011.9 |
| 20260508190532 | 66 | 168 | 1.7 | 8.7 | 0.00 | 0.00 | 0.00 | 44 | 1011.9 |
| 20260508190431 | 66 | 185 | 2.6 | 8.7 | 0.00 | 0.00 | 0.00 | 46 | 1011.9 |
| 20260508190331 | 66 | 172 | 0.9 | 8.7 | 0.00 | 0.00 | 0.00 | 47 | 1011.9 |
| 20260508190228 | 66 | 145 | 2.6 | 8.7 | 0.00 | 0.00 | 0.00 | 45 | 1011.9 |
| 20260508190200 | 66 | 205 | 2.6 | 8.7 | 0.00 | 0.00 | 0.00 | 45 | 1011.9 |
| 20260508190100 | 66 | 257 | 2.6 | 8.7 | 0.00 | 0.00 | 0.00 | 45 | 1011.9 |
| 20260508185937 | 66 | 217 | 2.6 | 8.7 | 0.00 | 0.00 | 0.00 | 45 | 1011.9 |
| 20260508185836 | 66 | 263 | 3.5 | 8.7 | 0.00 | 0.00 | 0.00 | 46 | 1011.8 |
| 20260508185735 | 66 | 95 | 3.5 | 7.8 | 0.00 | 0.00 | 0.00 | 48 | 1011.8 |
| 20260508185633 | 66 | 126 | 5.2 | 7.8 | 0.00 | 0.00 | 0.00 | 46 | 1011.8 |
| 20260508185531 | 66 | 199 | 5.2 | 7.8 | 0.00 | 0.00 | 0.00 | 48 | 1011.8 |
| 20260508185429 | 66 | 200 | 2.6 | 5.2 | 0.00 | 0.00 | 0.00 | 46 | 1011.8 |
| 20260508185332 | 66 | 195 | 2.6 | 5.2 | 0.00 | 0.00 | 0.00 | 47 | 1011.8 |
| 20260508185230 | 66 | 212 | 0.9 | 5.2 | 0.00 | 0.00 | 0.00 | 48 | 1011.8 |
| 20260508185128 | 66 | 247 | 2.6 | 5.2 | 0.00 | 0.00 | 0.00 | 48 | 1011.8 |
| 20260508185027 | 66 | 186 | 1.7 | 5.2 | 0.00 | 0.00 | 0.00 | 48 | 1011.8 |
| 20260508184928 | 66 | 158 | 1.7 | 5.2 | 0.00 | 0.00 | 0.00 | 48 | 1011.8 |
| 20260508184828 | 66 | 172 | 1.7 | 5.2 | 0.00 | 0.00 | 0.00 | 47 | 1011.8 |
| 20260508184742 | 66 | 160 | 0.0 | 5.2 | 0.00 | 0.00 | 0.00 | 46 | 1011.8 |
| 20260508184649 | 66 | 240 | 1.7 | 5.2 | 0.00 | 0.00 | 0.00 | 46 | 1011.8 |
| 20260508184527 | 66 | 154 | 0.9 | 5.2 | 0.00 | 0.00 | 0.00 | 44 | 1011.8 |
| 20260508184446 | 66 | 179 | 1.7 | 5.2 | 0.00 | 0.00 | 0.00 | 43 | 1011.8 |
| 20260508184342 | 66 | 219 | 1.7 | 6.1 | 0.00 | 0.00 | 0.00 | 46 | 1011.9 |
| 20260508184241 | 66 | 140 | 1.7 | 6.1 | 0.00 | 0.00 | 0.00 | 48 | 1011.9 |
| 20260508184140 | 66 | 278 | 1.7 | 6.1 | 0.00 | 0.00 | 0.00 | 46 | 1011.9 |
| 20260508184038 | 66 | 133 | 0.0 | 6.1 | 0.00 | 0.00 | 0.00 | 46 | 1011.9 |
| 20260508183956 | 66 | 158 | 0.0 | 7.0 | 0.00 | 0.00 | 0.00 | 45 | 1011.9 |
| 20260508183837 | 66 | 124 | 1.7 | 7.0 | 0.00 | 0.00 | 0.00 | 45 | 1011.9 |
| 20260508183735 | 66 | 161 | 0.9 | 7.0 | 0.00 | 0.00 | 0.00 | 46 | 1011.9 |
| 20260508183634 | 66 | 202 | 0.0 | 7.0 | 0.00 | 0.00 | 0.00 | 47 | 1011.9 |
| 20260508183533 | 66 | 162 | 2.6 | 7.0 | 0.00 | 0.00 | 0.00 | 47 | 1011.9 |
| 20260508183430 | 66 | 243 | 5.2 | 7.0 | 0.00 | 0.00 | 0.00 | 48 | 1011.9 |
| 20260508183328 | 66 | 157 | 2.6 | 7.0 | 0.00 | 0.00 | 0.00 | 47 | 1011.9 |
| 20260508183257 | 66 | 202 | 0.9 | 7.0 | 0.00 | 0.00 | 0.00 | 46 | 1011.9 |
| 20260508183146 | 66 | 175 | 3.5 | 7.0 | 0.00 | 0.00 | 0.00 | 46 | 1011.9 |
| 20260508183047 | 66 | 278 | 4.3 | 7.0 | 0.00 | 0.00 | 0.00 | 46 | 1011.9 |
| 20260508183006 | 67 | 140 | 4.3 | 9.6 | 0.00 | 0.00 | 0.00 | 50 | 1011.9 |
| 20260508182904 | 67 | 189 | 6.1 | 9.6 | 0.00 | 0.00 | 0.00 | 50 | 1012.3 |
| 20260508182741 | 67 | 165 | 2.6 | 9.6 | 0.00 | 0.00 | 0.00 | 47 | 1012.3 |
| 20260508182638 | 67 | 260 | 1.7 | 9.6 | 0.00 | 0.00 | 0.00 | 49 | 1012.3 |
| 20260508182536 | 67 | 195 | 0.9 | 9.6 | 0.00 | 0.00 | 0.00 | 48 | 1012.3 |
| 20260508182435 | 67 | 251 | 2.6 | 9.6 | 0.00 | 0.00 | 0.00 | 48 | 1012.3 |
| 20260508182335 | 67 | 133 | 3.5 | 9.6 | 0.00 | 0.00 | 0.00 | 47 | 1012.3 |
| 20260508182237 | 67 | 280 | 4.3 | 9.6 | 0.00 | 0.00 | 0.00 | 48 | 1012.3 |
| 20260508182135 | 67 | 179 | 7.0 | 9.6 | 0.00 | 0.00 | 0.00 | 45 | 1012.3 |
| 20260508182033 | 67 | 246 | 5.2 | 7.0 | 0.00 | 0.00 | 0.00 | 45 | 1012.3 |
| 20260508181930 | 67 | 230 | 5.2 | 7.0 | 0.00 | 0.00 | 0.00 | 47 | 1012.3 |
| 20260508181829 | 67 | 137 | 2.6 | 7.0 | 0.00 | 0.00 | 0.00 | 47 | 1012.3 |
| 20260508181728 | 67 | 121 | 2.6 | 7.0 | 0.00 | 0.00 | 0.00 | 44 | 1012.3 |
| 20260508181658 | 67 | 165 | 3.5 | 7.0 | 0.00 | 0.00 | 0.00 | 44 | 1012.3 |
| 20260508181555 | 67 | 133 | 4.3 | 7.0 | 0.00 | 0.00 | 0.00 | 44 | 1012.3 |
| 20260508181437 | 67 | 176 | 3.5 | 7.0 | 0.00 | 0.00 | 0.00 | 44 | 1012.3 |
| 20260508181335 | 67 | 282 | 2.6 | 7.0 | 0.00 | 0.00 | 0.00 | 44 | 1012.5 |
| 20260508181234 | 67 | 199 | 2.6 | 7.0 | 0.00 | 0.00 | 0.00 | 45 | 1012.5 |
| 20260508181131 | 67 | 234 | 1.7 | 7.0 | 0.00 | 0.00 | 0.00 | 45 | 1012.5 |
| 20260508181030 | 67 | 174 | 3.5 | 7.0 | 0.00 | 0.00 | 0.00 | 45 | 1012.5 |
| 20260508180929 | 67 | 215 | 5.2 | 7.0 | 0.00 | 0.00 | 0.00 | 45 | 1012.5 |
| 20260508180828 | 68 | 236 | 5.2 | 7.0 | 0.00 | 0.00 | 0.00 | 45 | 1012.5 |
| 20260508180730 | 68 | 151 | 2.6 | 6.1 | 0.00 | 0.00 | 0.00 | 43 | 1012.5 |
| 20260508180629 | 68 | 258 | 2.6 | 6.1 | 0.00 | 0.00 | 0.00 | 44 | 1012.5 |
| 20260508180529 | 68 | 316 | 0.9 | 7.8 | 0.00 | 0.00 | 0.00 | 44 | 1012.5 |
| 20260508180428 | 68 | 110 | 0.0 | 8.7 | 0.00 | 0.00 | 0.00 | 44 | 1012.5 |
| 20260508180347 | 68 | 124 | 1.7 | 8.7 | 0.00 | 0.00 | 0.00 | 44 | 1012.5 |
| 20260508180235 | 68 | 217 | 0.9 | 8.7 | 0.00 | 0.00 | 0.00 | 36 | 1012.5 |
| 20260508180144 | 68 | 206 | 0.0 | 8.7 | 0.00 | 0.00 | 0.00 | 36 | 1012.5 |
| 20260508180025 | 68 | 104 | 3.5 | 8.7 | 0.00 | 0.00 | 0.00 | 36 | 1012.5 |
| 20260508175927 | 68 | 114 | 3.5 | 8.7 | 0.00 | 0.00 | 0.00 | 36 | 1012.5 |
| 20260508175846 | 68 | 116 | 4.3 | 8.7 | 0.00 | 0.00 | 0.00 | 39 | 1012.8 |
| 20260508175743 | 68 | 239 | 6.1 | 8.7 | 0.00 | 0.00 | 0.00 | 39 | 1012.8 |
| 20260508175642 | 68 | 123 | 4.3 | 8.7 | 0.00 | 0.00 | 0.00 | 42 | 1012.8 |
| 20260508175540 | 68 | 222 | 1.7 | 6.1 | 0.00 | 0.00 | 0.00 | 38 | 1012.8 |
| 20260508175438 | 68 | 234 | 2.6 | 6.1 | 0.00 | 0.00 | 0.00 | 38 | 1012.8 |
| 20260508175358 | 68 | 155 | 0.9 | 7.0 | 0.00 | 0.00 | 0.00 | 38 | 1012.8 |
| 20260508175255 | 68 | 219 | 1.7 | 7.0 | 0.00 | 0.00 | 0.00 | 40 | 1012.8 |
| 20260508175136 | 68 | 175 | 2.6 | 8.7 | 0.00 | 0.00 | 0.00 | 40 | 1012.8 |
| 20260508175035 | 68 | 318 | 3.5 | 9.6 | 0.00 | 0.00 | 0.00 | 40 | 1012.8 |
| 20260508174933 | 68 | 186 | 4.3 | 9.6 | 0.00 | 0.00 | 0.00 | 40 | 1012.8 |
| 20260508174832 | 68 | 215 | 1.7 | 9.6 | 0.00 | 0.00 | 0.00 | 40 | 1012.8 |
| 20260508174729 | 68 | 254 | 3.5 | 9.6 | 0.00 | 0.00 | 0.00 | 38 | 1012.8 |
| 20260508174657 | 68 | 206 | 4.3 | 9.6 | 0.00 | 0.00 | 0.00 | 38 | 1012.8 |
| 20260508174535 | 68 | 315 | 5.2 | 9.6 | 0.00 | 0.00 | 0.00 | 45 | 1012.8 |
| 20260508174438 | 68 | 205 | 5.2 | 9.6 | 0.00 | 0.00 | 0.00 | 45 | 1012.8 |
| 20260508174335 | 69 | 172 | 5.2 | 9.6 | 0.00 | 0.00 | 0.00 | 45 | 1013.0 |
| 20260508174234 | 68 | 223 | 6.1 | 9.6 | 0.00 | 0.00 | 0.00 | 45 | 1013.0 |
| 20260508174132 | 68 | 203 | 3.5 | 8.7 | 0.00 | 0.00 | 0.00 | 46 | 1013.0 |
| 20260508174031 | 68 | 229 | 2.6 | 8.7 | 0.00 | 0.00 | 0.00 | 45 | 1013.0 |
| 20260508173929 | 68 | 199 | 2.6 | 8.7 | 0.00 | 0.00 | 0.00 | 41 | 1013.0 |
| 20260508173827 | 68 | 178 | 4.3 | 8.7 | 0.00 | 0.00 | 0.00 | 40 | 1013.0 |
| 20260508173750 | 68 | 144 | 3.5 | 8.7 | 0.00 | 0.00 | 0.00 | 39 | 1013.0 |
| 20260508173627 | 68 | 157 | 2.6 | 8.7 | 0.00 | 0.00 | 0.00 | 42 | 1013.0 |
| 20260508173528 | 68 | 196 | 3.5 | 7.0 | 0.00 | 0.00 | 0.00 | 41 | 1013.0 |
| 20260508173426 | 68 | 326 | 0.0 | 7.0 | 0.00 | 0.00 | 0.00 | 39 | 1013.0 |
| 20260508173325 | 68 | 224 | 0.0 | 12.2 | 0.00 | 0.00 | 0.00 | 42 | 1013.0 |
| 20260508173224 | 68 | 291 | 2.6 | 12.2 | 0.00 | 0.00 | 0.00 | 45 | 1013.0 |
| 20260508173159 | 68 | 325 | 4.3 | 12.2 | 0.00 | 0.00 | 0.00 | 45 | 1013.0 |
| 20260508173055 | 68 | 311 | 4.3 | 12.2 | 0.00 | 0.00 | 0.00 | 43 | 1013.0 |
| 20260508172936 | 68 | 250 | 0.9 | 12.2 | 0.00 | 0.00 | 0.00 | 43 | 1013.0 |
| 20260508172855 | 68 | 263 | 1.7 | 12.2 | 0.00 | 0.00 | 0.00 | 42 | 1013.5 |
| 20260508172752 | 68 | 247 | 2.6 | 12.2 | 0.00 | 0.00 | 0.00 | 46 | 1013.5 |
| 20260508172712 | 68 | 222 | 2.6 | 12.2 | 0.00 | 0.00 | 0.00 | 46 | 1013.5 |
| 20260508172547 | 67 | 198 | 5.2 | 12.2 | 0.00 | 0.00 | 0.00 | 44 | 1013.5 |
| 20260508172505 | 67 | 306 | 5.2 | 12.2 | 0.00 | 0.00 | 0.00 | 44 | 1013.5 |
| 20260508172342 | 67 | 128 | 2.6 | 11.3 | 0.00 | 0.00 | 0.00 | 44 | 1013.5 |
| 20260508172240 | 67 | 62 | 3.5 | 11.3 | 0.00 | 0.00 | 0.00 | 41 | 1013.5 |
| 20260508172139 | 67 | 103 | 5.2 | 11.3 | 0.00 | 0.00 | 0.00 | 44 | 1013.5 |
| 20260508172057 | 67 | 191 | 0.9 | 7.0 | 0.00 | 0.00 | 0.00 | 44 | 1013.5 |
| 20260508171938 | 67 | 217 | 1.7 | 7.0 | 0.00 | 0.00 | 0.00 | 46 | 1013.5 |
| 20260508171836 | 67 | 248 | 2.6 | 7.0 | 0.00 | 0.00 | 0.00 | 44 | 1013.5 |
| 20260508171734 | 67 | 210 | 2.6 | 7.0 | 0.00 | 0.00 | 0.00 | 44 | 1013.5 |
| 20260508171704 | 67 | 213 | 0.9 | 10.4 | 0.00 | 0.00 | 0.00 | 44 | 1013.5 |
| 20260508171603 | 67 | 209 | 2.6 | 10.4 | 0.00 | 0.00 | 0.00 | 47 | 1013.5 |
| 20260508171439 | 67 | 278 | 2.6 | 10.4 | 0.00 | 0.00 | 0.00 | 46 | 1013.5 |
| 20260508171340 | 67 | 265 | 0.9 | 10.4 | 0.00 | 0.00 | 0.00 | 45 | 1013.9 |
| 20260508171238 | 67 | 268 | 3.5 | 10.4 | 0.00 | 0.00 | 0.00 | 48 | 1013.9 |
| 20260508171141 | 67 | 272 | 3.5 | 10.4 | 0.00 | 0.00 | 0.00 | 48 | 1013.9 |
| 20260508171100 | 66 | 256 | 3.5 | 10.4 | 0.00 | 0.00 | 0.00 | 48 | 1013.9 |
| 20260508170937 | 66 | 278 | 4.3 | 10.4 | 0.00 | 0.00 | 0.00 | 48 | 1013.9 |
| 20260508170836 | 66 | 258 | 3.5 | 10.4 | 0.00 | 0.00 | 0.00 | 47 | 1013.9 |
| 20260508170735 | 66 | 227 | 5.2 | 10.4 | 0.00 | 0.00 | 0.00 | 45 | 1013.9 |
| 20260508170632 | 66 | 209 | 0.9 | 9.6 | 0.00 | 0.00 | 0.00 | 46 | 1013.9 |
| 20260508170532 | 66 | 175 | 1.7 | 9.6 | 0.00 | 0.00 | 0.00 | 49 | 1013.9 |
| 20260508170450 | 66 | 185 | 0.9 | 9.6 | 0.00 | 0.00 | 0.00 | 48 | 1013.9 |
| 20260508170332 | 66 | 189 | 0.9 | 9.6 | 0.00 | 0.00 | 0.00 | 48 | 1013.9 |
| 20260508170241 | 66 | 169 | 1.7 | 9.6 | 0.00 | 0.00 | 0.00 | 46 | 1013.9 |
| 20260508170151 | 66 | 138 | 0.9 | 9.6 | 0.00 | 0.00 | 0.00 | 47 | 1013.9 |
| 20260508170048 | 66 | 147 | 3.5 | 9.6 | 0.00 | 0.00 | 0.00 | 47 | 1013.9 |
| 20260508165945 | 66 | 216 | 6.1 | 9.6 | 0.00 | 0.00 | 0.00 | 45 | 1013.9 |
| 20260508165904 | 66 | 97 | 5.2 | 9.6 | 0.00 | 0.00 | 0.00 | 44 | 1013.8 |
| 20260508165742 | 66 | 168 | 0.9 | 8.7 | 0.00 | 0.00 | 0.00 | 44 | 1013.8 |
| 20260508165641 | 66 | 182 | 0.9 | 8.7 | 0.00 | 0.00 | 0.00 | 48 | 1013.8 |
| 20260508165600 | 66 | 174 | 2.6 | 8.7 | 0.00 | 0.00 | 0.00 | 47 | 1013.8 |
| 20260508165441 | 66 | 179 | 3.5 | 8.7 | 0.00 | 0.00 | 0.00 | 47 | 1013.8 |
| 20260508165340 | 66 | 165 | 0.9 | 8.7 | 0.00 | 0.00 | 0.00 | 45 | 1013.8 |
| 20260508165239 | 66 | 147 | 3.5 | 8.7 | 0.00 | 0.00 | 0.00 | 46 | 1013.8 |
| 20260508165203 | 66 | 120 | 4.3 | 8.7 | 0.00 | 0.00 | 0.00 | 44 | 1013.8 |
| 20260508165039 | 66 | 280 | 5.2 | 8.7 | 0.00 | 0.00 | 0.00 | 44 | 1013.8 |
| 20260508164938 | 66 | 141 | 5.2 | 8.7 | 0.00 | 0.00 | 0.00 | 46 | 1013.8 |
| 20260508164836 | 66 | 193 | 0.9 | 7.8 | 0.00 | 0.00 | 0.00 | 46 | 1013.8 |
| 20260508164738 | 66 | 160 | 0.9 | 7.8 | 0.00 | 0.00 | 0.00 | 48 | 1013.8 |
| 20260508164708 | 66 | 254 | 1.7 | 7.8 | 0.00 | 0.00 | 0.00 | 44 | 1013.8 |
| 20260508164524 | 66 | 192 | 1.7 | 7.8 | 0.00 | 0.00 | 0.00 | 44 | 1013.8 |
| 20260508164424 | 66 | 203 | 4.3 | 7.8 | 0.00 | 0.00 | 0.00 | 47 | 1013.8 |
| 20260508164343 | 66 | 219 | 4.3 | 7.8 | 0.00 | 0.00 | 0.00 | 47 | 1013.7 |
| 20260508164242 | 66 | 230 | 2.6 | 7.0 | 0.00 | 0.00 | 0.00 | 44 | 1013.7 |
| 20260508164139 | 66 | 158 | 3.5 | 7.0 | 0.00 | 0.00 | 0.00 | 48 | 1013.7 |
| 20260508164043 | 66 | 248 | 0.9 | 7.0 | 0.00 | 0.00 | 0.00 | 48 | 1013.7 |
| 20260508163941 | 66 | 299 | 0.9 | 7.0 | 0.00 | 0.00 | 0.00 | 47 | 1013.7 |
| 20260508163859 | 66 | 284 | 0.9 | 7.0 | 0.00 | 0.00 | 0.00 | 47 | 1013.7 |
| 20260508163736 | 66 | 285 | 1.7 | 7.0 | 0.00 | 0.00 | 0.00 | 47 | 1013.7 |
| 20260508163635 | 65 | 282 | 0.9 | 7.0 | 0.00 | 0.00 | 0.00 | 47 | 1013.7 |
| 20260508163533 | 65 | 277 | 4.3 | 7.0 | 0.00 | 0.00 | 0.00 | 49 | 1013.7 |
| 20260508163432 | 65 | 189 | 4.3 | 7.0 | 0.00 | 0.00 | 0.00 | 49 | 1013.7 |
| 20260508163350 | 65 | 205 | 2.6 | 7.0 | 0.00 | 0.00 | 0.00 | 49 | 1013.7 |
| 20260508163233 | 65 | 219 | 2.6 | 7.0 | 0.00 | 0.00 | 0.00 | 48 | 1013.7 |
| 20260508163205 | 65 | 232 | 1.7 | 7.0 | 0.00 | 0.00 | 0.00 | 48 | 1013.7 |
| 20260508163041 | 65 | 147 | 0.9 | 8.7 | 0.00 | 0.00 | 0.00 | 47 | 1013.7 |
| 20260508162939 | 65 | 127 | 0.9 | 11.3 | 0.00 | 0.00 | 0.00 | 47 | 1013.7 |
| 20260508162837 | 65 | 116 | 1.7 | 11.3 | 0.00 | 0.00 | 0.00 | 47 | 1014.0 |
| 20260508162735 | 65 | 178 | 4.3 | 11.3 | 0.00 | 0.00 | 0.00 | 47 | 1014.0 |
| 20260508162634 | 65 | 158 | 5.2 | 11.3 | 0.00 | 0.00 | 0.00 | 47 | 1014.0 |
| 20260508162537 | 65 | 141 | 2.6 | 11.3 | 0.00 | 0.00 | 0.00 | 47 | 1014.0 |
| 20260508162435 | 65 | 219 | 0.0 | 11.3 | 0.00 | 0.00 | 0.00 | 48 | 1014.0 |
| 20260508162333 | 65 | 236 | 3.5 | 11.3 | 0.00 | 0.00 | 0.00 | 51 | 1014.0 |
| 20260508162232 | 65 | 206 | 6.1 | 11.3 | 0.00 | 0.00 | 0.00 | 52 | 1014.0 |
| 20260508162130 | 65 | 217 | 7.8 | 11.3 | 0.00 | 0.00 | 0.00 | 52 | 1014.0 |
| 20260508162030 | 64 | 157 | 4.3 | 9.6 | 0.00 | 0.00 | 0.00 | 52 | 1014.0 |
| 20260508161928 | 64 | 295 | 3.5 | 9.6 | 0.00 | 0.00 | 0.00 | 53 | 1014.0 |
| 20260508161830 | 64 | 234 | 3.5 | 9.6 | 0.00 | 0.00 | 0.00 | 53 | 1014.0 |
| 20260508161749 | 64 | 209 | 3.5 | 9.6 | 0.00 | 0.00 | 0.00 | 50 | 1014.0 |
| 20260508161719 | 64 | 196 | 2.6 | 9.6 | 0.00 | 0.00 | 0.00 | 50 | 1014.0 |
| 20260508161557 | 64 | 92 | 1.7 | 9.6 | 0.00 | 0.00 | 0.00 | 48 | 1014.0 |
| 20260508161434 | 64 | 92 | 5.2 | 9.6 | 0.00 | 0.00 | 0.00 | 50 | 1014.0 |
| 20260508161352 | 64 | 136 | 4.3 | 9.6 | 0.00 | 0.00 | 0.00 | 50 | 1014.2 |
| 20260508161230 | 64 | 154 | 6.1 | 9.6 | 0.00 | 0.00 | 0.00 | 50 | 1014.2 |
| 20260508161128 | 64 | 145 | 3.5 | 7.0 | 0.00 | 0.00 | 0.00 | 51 | 1014.2 |
| 20260508161030 | 64 | 152 | 4.3 | 7.0 | 0.00 | 0.00 | 0.00 | 52 | 1014.2 |
| 20260508160949 | 64 | 219 | 1.7 | 7.0 | 0.00 | 0.00 | 0.00 | 53 | 1014.2 |
| 20260508160827 | 64 | 248 | 4.3 | 7.0 | 0.00 | 0.00 | 0.00 | 53 | 1014.2 |
| 20260508160746 | 64 | 184 | 1.7 | 7.0 | 0.00 | 0.00 | 0.00 | 52 | 1014.2 |
| 20260508160703 | 63 | 251 | 0.9 | 7.0 | 0.00 | 0.00 | 0.00 | 51 | 1014.2 |
| 20260508160540 | 63 | 127 | 2.6 | 7.0 | 0.00 | 0.00 | 0.00 | 51 | 1014.2 |
| 20260508160439 | 63 | 258 | 4.3 | 7.0 | 0.00 | 0.00 | 0.00 | 50 | 1014.2 |
| 20260508160337 | 63 | 230 | 1.7 | 7.0 | 0.00 | 0.00 | 0.00 | 49 | 1014.2 |
| 20260508160240 | 63 | 216 | 0.9 | 8.7 | 0.00 | 0.00 | 0.00 | 50 | 1014.2 |
| 20260508160210 | 63 | 189 | 2.6 | 8.7 | 0.00 | 0.00 | 0.00 | 51 | 1014.2 |
| 20260508160027 | 63 | 157 | 3.5 | 8.7 | 0.00 | 0.00 | 0.00 | 53 | 1014.2 |
| 20260508155924 | 63 | 254 | 1.7 | 10.4 | 0.00 | 0.00 | 0.00 | 51 | 1014.2 |
| 20260508155846 | 63 | 168 | 0.9 | 10.4 | 0.00 | 0.00 | 0.00 | 50 | 1013.4 |
| 20260508155803 | 63 | 136 | 2.6 | 10.4 | 0.00 | 0.00 | 0.00 | 54 | 1013.4 |
| 20260508155702 | 63 | 119 | 3.5 | 10.4 | 0.00 | 0.00 | 0.00 | 51 | 1013.4 |
| 20260508155537 | 63 | 176 | 3.5 | 10.4 | 0.00 | 0.00 | 0.00 | 53 | 1013.4 |
| 20260508155456 | 63 | 195 | 3.5 | 10.4 | 0.00 | 0.00 | 0.00 | 54 | 1013.4 |
| 20260508155335 | 63 | 205 | 4.3 | 10.4 | 0.00 | 0.00 | 0.00 | 53 | 1013.4 |
| 20260508155237 | 63 | 96 | 6.1 | 10.4 | 0.00 | 0.00 | 0.00 | 53 | 1013.4 |
| 20260508155136 | 63 | 148 | 8.7 | 10.4 | 0.00 | 0.00 | 0.00 | 50 | 1013.4 |
| 20260508155055 | 63 | 186 | 6.1 | 9.6 | 0.00 | 0.00 | 0.00 | 53 | 1013.4 |
| 20260508154932 | 63 | 176 | 4.3 | 9.6 | 0.00 | 0.00 | 0.00 | 53 | 1013.4 |
| 20260508154829 | 63 | 223 | 6.1 | 9.6 | 0.00 | 0.00 | 0.00 | 51 | 1013.4 |
| 20260508154727 | 63 | 179 | 4.3 | 7.0 | 0.00 | 0.00 | 0.00 | 53 | 1013.4 |
| 20260508154657 | 63 | 264 | 3.5 | 7.0 | 0.00 | 0.00 | 0.00 | 53 | 1013.4 |
| 20260508154558 | 63 | 150 | 3.5 | 7.0 | 0.00 | 0.00 | 0.00 | 52 | 1013.4 |
| 20260508154422 | 62 | 160 | 4.3 | 7.0 | 0.00 | 0.00 | 0.00 | 50 | 1013.4 |
| 20260508154324 | 62 | 127 | 0.9 | 7.8 | 0.00 | 0.00 | 0.00 | 48 | 1013.5 |
| 20260508154242 | 62 | 123 | 0.0 | 7.8 | 0.00 | 0.00 | 0.00 | 48 | 1013.5 |
| 20260508154140 | 62 | 123 | 3.5 | 10.4 | 0.00 | 0.00 | 0.00 | 50 | 1013.5 |
| 20260508154040 | 62 | 199 | 3.5 | 10.4 | 0.00 | 0.00 | 0.00 | 51 | 1013.5 |
| 20260508154000 | 62 | 227 | 2.6 | 10.4 | 0.00 | 0.00 | 0.00 | 51 | 1013.5 |
| 20260508153858 | 62 | 210 | 1.7 | 10.4 | 0.00 | 0.00 | 0.00 | 48 | 1013.5 |
| 20260508153737 | 62 | 213 | 2.6 | 10.4 | 0.00 | 0.00 | 0.00 | 49 | 1013.5 |
| 20260508153637 | 62 | 206 | 2.6 | 10.4 | 0.00 | 0.00 | 0.00 | 49 | 1013.5 |
| 20260508153535 | 62 | 227 | 5.2 | 10.4 | 0.00 | 0.00 | 0.00 | 47 | 1013.5 |
| 20260508153433 | 62 | 256 | 4.3 | 10.4 | 0.00 | 0.00 | 0.00 | 47 | 1013.5 |
| 20260508153350 | 62 | 278 | 7.0 | 10.4 | 0.00 | 0.00 | 0.00 | 46 | 1013.5 |
| 20260508153229 | 62 | 165 | 6.1 | 9.6 | 0.00 | 0.00 | 0.00 | 52 | 1013.5 |
| 20260508153159 | 62 | 148 | 3.5 | 9.6 | 0.00 | 0.00 | 0.00 | 52 | 1013.5 |
| 20260508153040 | 62 | 220 | 3.5 | 9.6 | 0.00 | 0.00 | 0.00 | 50 | 1013.5 |
| 20260508152938 | 62 | 116 | 5.2 | 9.6 | 0.00 | 0.00 | 0.00 | 51 | 1013.5 |
| 20260508152840 | 62 | 138 | 5.2 | 9.6 | 0.00 | 0.00 | 0.00 | 52 | 1013.6 |
| 20260508152740 | 61 | 181 | 4.3 | 9.6 | 0.00 | 0.00 | 0.00 | 53 | 1013.6 |
| 20260508152638 | 61 | 154 | 6.1 | 10.4 | 0.00 | 0.00 | 0.00 | 54 | 1013.6 |
| 20260508152536 | 61 | 130 | 5.2 | 10.4 | 0.00 | 0.00 | 0.00 | 53 | 1013.6 |
| 20260508152434 | 61 | 144 | 4.3 | 10.4 | 0.00 | 0.00 | 0.00 | 53 | 1013.6 |
| 20260508152332 | 61 | 172 | 3.5 | 10.4 | 0.00 | 0.00 | 0.00 | 53 | 1013.6 |
| 20260508152250 | 61 | 100 | 3.5 | 10.4 | 0.00 | 0.00 | 0.00 | 54 | 1013.6 |
| 20260508152131 | 61 | 223 | 6.1 | 10.4 | 0.00 | 0.00 | 0.00 | 53 | 1013.6 |
| 20260508152028 | 61 | 182 | 4.3 | 10.4 | 0.00 | 0.00 | 0.00 | 53 | 1013.6 |
| 20260508151927 | 61 | 96 | 0.0 | 10.4 | 0.00 | 0.00 | 0.00 | 53 | 1013.6 |
| 20260508151829 | 61 | 96 | 5.2 | 10.4 | 0.00 | 0.00 | 0.00 | 54 | 1013.6 |
| 20260508151726 | 61 | 113 | 5.2 | 8.7 | 0.00 | 0.00 | 0.00 | 52 | 1013.6 |
| 20260508151657 | 61 | 167 | 5.2 | 8.7 | 0.00 | 0.00 | 0.00 | 52 | 1013.6 |
| 20260508151538 | 61 | 121 | 6.1 | 10.4 | 0.00 | 0.00 | 0.00 | 50 | 1013.6 |
| 20260508151441 | 60 | 124 | 4.3 | 10.4 | 0.00 | 0.00 | 0.00 | 50 | 1013.6 |
| 20260508151339 | 60 | 112 | 0.9 | 10.4 | 0.00 | 0.00 | 0.00 | 50 | 1013.9 |
| 20260508151238 | 60 | 193 | 1.7 | 10.4 | 0.00 | 0.00 | 0.00 | 52 | 1013.9 |
| 20260508151137 | 60 | 158 | 1.7 | 10.4 | 0.00 | 0.00 | 0.00 | 53 | 1013.9 |
| 20260508151037 | 60 | 138 | 3.5 | 10.4 | 0.00 | 0.00 | 0.00 | 52 | 1013.9 |
| 20260508150935 | 60 | 205 | 4.3 | 10.4 | 0.00 | 0.00 | 0.00 | 54 | 1013.9 |
| 20260508150838 | 60 | 264 | 5.2 | 10.4 | 0.00 | 0.00 | 0.00 | 53 | 1013.9 |
| 20260508150736 | 60 | 103 | 5.2 | 10.4 | 0.00 | 0.00 | 0.00 | 53 | 1013.9 |
| 20260508150634 | 60 | 178 | 7.0 | 10.4 | 0.00 | 0.00 | 0.00 | 52 | 1013.9 |
| 20260508150532 | 60 | 131 | 2.6 | 10.4 | 0.00 | 0.00 | 0.00 | 52 | 1013.9 |
| 20260508150430 | 60 | 179 | 1.7 | 10.4 | 0.00 | 0.00 | 0.00 | 53 | 1013.9 |
| 20260508150328 | 60 | 226 | 1.7 | 10.4 | 0.00 | 0.00 | 0.00 | 53 | 1013.9 |
| 20260508150237 | 60 | 172 | 3.5 | 10.4 | 0.00 | 0.00 | 0.00 | 52 | 1013.9 |
| 20260508150148 | 60 | 167 | 2.6 | 10.4 | 0.00 | 0.00 | 0.00 | 54 | 1013.9 |
| 20260508150029 | 60 | 172 | 2.6 | 10.4 | 0.00 | 0.00 | 0.00 | 54 | 1013.9 |
| 20260508145948 | 59 | 143 | 1.7 | 10.4 | 0.00 | 0.00 | 0.00 | 54 | 1013.9 |
| 20260508145825 | 59 | 200 | 5.2 | 10.4 | 0.00 | 0.00 | 0.00 | 53 | 1013.9 |
| 20260508145744 | 59 | 210 | 1.7 | 10.4 | 0.00 | 0.00 | 0.00 | 53 | 1013.9 |
| 20260508145703 | 59 | 147 | 2.6 | 10.4 | 0.00 | 0.00 | 0.00 | 55 | 1013.9 |
| 20260508145539 | 59 | 121 | 6.1 | 10.4 | 0.00 | 0.00 | 0.00 | 54 | 1013.9 |
| 20260508145439 | 59 | 208 | 6.1 | 10.4 | 0.00 | 0.00 | 0.00 | 53 | 1013.9 |
| 20260508145356 | 59 | 270 | 7.0 | 10.4 | 0.00 | 0.00 | 0.00 | 55 | 1013.9 |
| 20260508145238 | 59 | 117 | 7.8 | 10.4 | 0.00 | 0.00 | 0.00 | 54 | 1013.9 |
| 20260508145137 | 59 | 203 | 2.6 | 9.6 | 0.00 | 0.00 | 0.00 | 53 | 1013.9 |
| 20260508145035 | 59 | 185 | 2.6 | 9.6 | 0.00 | 0.00 | 0.00 | 53 | 1013.9 |
| 20260508144934 | 59 | 162 | 4.3 | 9.6 | 0.00 | 0.00 | 0.00 | 54 | 1013.9 |
| 20260508144833 | 59 | 155 | 0.9 | 9.6 | 0.00 | 0.00 | 0.00 | 52 | 1013.9 |
| 20260508144743 | 59 | 148 | 2.6 | 9.6 | 0.00 | 0.00 | 0.00 | 52 | 1013.9 |
| 20260508144652 | 59 | 138 | 0.9 | 9.6 | 0.00 | 0.00 | 0.00 | 53 | 1013.9 |
| 20260508144531 | 59 | 169 | 3.5 | 9.6 | 0.00 | 0.00 | 0.00 | 53 | 1013.9 |
| 20260508144430 | 59 | 130 | 6.1 | 9.6 | 0.00 | 0.00 | 0.00 | 55 | 1013.9 |
| 20260508144348 | 59 | 138 | 7.8 | 9.6 | 0.00 | 0.00 | 0.00 | 54 | 1014.1 |
| 20260508144246 | 59 | 123 | 7.0 | 8.7 | 0.00 | 0.00 | 0.00 | 53 | 1014.1 |
| 20260508144204 | 59 | 220 | 5.2 | 8.7 | 0.00 | 0.00 | 0.00 | 56 | 1014.1 |
| 20260508144040 | 59 | 165 | 3.5 | 7.0 | 0.00 | 0.00 | 0.00 | 56 | 1014.1 |
| 20260508143938 | 59 | 169 | 3.5 | 7.8 | 0.00 | 0.00 | 0.00 | 55 | 1014.1 |
| 20260508143859 | 58 | 114 | 1.7 | 7.8 | 0.00 | 0.00 | 0.00 | 56 | 1014.1 |
| 20260508143736 | 58 | 143 | 2.6 | 7.8 | 0.00 | 0.00 | 0.00 | 55 | 1014.1 |
| 20260508143638 | 58 | 203 | 4.3 | 7.8 | 0.00 | 0.00 | 0.00 | 57 | 1014.1 |
| 20260508143536 | 58 | 155 | 2.6 | 7.8 | 0.00 | 0.00 | 0.00 | 57 | 1014.1 |
| 20260508143434 | 58 | 226 | 1.7 | 7.8 | 0.00 | 0.00 | 0.00 | 57 | 1014.1 |
| 20260508143332 | 58 | 151 | 0.9 | 7.8 | 0.00 | 0.00 | 0.00 | 57 | 1014.1 |
| 20260508143242 | 58 | 158 | 4.3 | 7.8 | 0.00 | 0.00 | 0.00 | 56 | 1014.1 |
| 20260508143153 | 58 | 304 | 5.2 | 8.7 | 0.00 | 0.00 | 0.00 | 57 | 1014.1 |
| 20260508143029 | 58 | 161 | 0.9 | 8.7 | 0.00 | 0.00 | 0.00 | 57 | 1014.1 |
| 20260508142931 | 58 | 206 | 4.3 | 8.7 | 0.00 | 0.00 | 0.00 | 55 | 1014.1 |
| 20260508142831 | 58 | 160 | 0.0 | 8.7 | 0.00 | 0.00 | 0.00 | 54 | 1014.2 |
| 20260508142730 | 58 | 208 | 1.7 | 8.7 | 0.00 | 0.00 | 0.00 | 54 | 1014.2 |
| 20260508142652 | 58 | 306 | 1.7 | 8.7 | 0.00 | 0.00 | 0.00 | 56 | 1014.2 |
| 20260508142530 | 58 | 117 | 2.6 | 8.7 | 0.00 | 0.00 | 0.00 | 56 | 1014.2 |
| 20260508142427 | 58 | 155 | 3.5 | 8.7 | 0.00 | 0.00 | 0.00 | 56 | 1014.2 |
| 20260508142323 | 58 | 275 | 6.1 | 8.7 | 0.00 | 0.00 | 0.00 | 53 | 1014.2 |
| 20260508142242 | 58 | 131 | 3.5 | 7.0 | 0.00 | 0.00 | 0.00 | 53 | 1014.2 |
| 20260508142202 | 58 | 261 | 1.7 | 7.0 | 0.00 | 0.00 | 0.00 | 55 | 1014.2 |
| 20260508142039 | 57 | 93 | 0.0 | 7.8 | 0.00 | 0.00 | 0.00 | 55 | 1014.2 |
| 20260508141937 | 57 | 174 | 0.9 | 7.8 | 0.00 | 0.00 | 0.00 | 56 | 1014.2 |
| 20260508141856 | 57 | 256 | 0.9 | 7.8 | 0.00 | 0.00 | 0.00 | 55 | 1014.2 |
| 20260508141733 | 57 | 251 | 3.5 | 7.8 | 0.00 | 0.00 | 0.00 | 55 | 1014.2 |
| 20260508141703 | 57 | 203 | 4.3 | 7.8 | 0.00 | 0.00 | 0.00 | 55 | 1014.2 |
| 20260508141600 | 57 | 222 | 2.6 | 9.6 | 0.00 | 0.00 | 0.00 | 53 | 1014.2 |
| 20260508141438 | 57 | 172 | 2.6 | 10.4 | 0.00 | 0.00 | 0.00 | 52 | 1014.2 |
| 20260508141340 | 57 | 233 | 5.2 | 10.4 | 0.00 | 0.00 | 0.00 | 53 | 1014.1 |
| 20260508141239 | 57 | 312 | 4.3 | 10.4 | 0.00 | 0.00 | 0.00 | 54 | 1014.1 |
| 20260508141138 | 57 | 186 | 3.5 | 10.4 | 0.00 | 0.00 | 0.00 | 52 | 1014.1 |
| 20260508141036 | 57 | 258 | 3.5 | 10.4 | 0.00 | 0.00 | 0.00 | 52 | 1014.1 |
| 20260508140934 | 57 | 192 | 5.2 | 10.4 | 0.00 | 0.00 | 0.00 | 52 | 1014.1 |
| 20260508140853 | 57 | 112 | 6.1 | 10.4 | 0.00 | 0.00 | 0.00 | 53 | 1014.1 |
| 20260508140751 | 57 | 110 | 6.1 | 10.4 | 0.00 | 0.00 | 0.00 | 54 | 1014.1 |
| 20260508140628 | 57 | 311 | 7.8 | 10.4 | 0.00 | 0.00 | 0.00 | 54 | 1014.1 |
| 20260508140532 | 57 | 326 | 5.2 | 9.6 | 0.00 | 0.00 | 0.00 | 55 | 1014.1 |
| 20260508140430 | 57 | 160 | 5.2 | 10.4 | 0.00 | 0.00 | 0.00 | 57 | 1014.1 |
| 20260508140327 | 57 | 326 | 3.5 | 10.4 | 0.00 | 0.00 | 0.00 | 57 | 1014.1 |
| 20260508140258 | 57 | 261 | 5.2 | 10.4 | 0.00 | 0.00 | 0.00 | 56 | 1014.1 |
| 20260508140147 | 57 | 275 | 3.5 | 10.4 | 0.00 | 0.00 | 0.00 | 55 | 1014.1 |
| 20260508140043 | 57 | 145 | 2.6 | 10.4 | 0.00 | 0.00 | 0.00 | 56 | 1014.1 |
| 20260508140002 | 57 | 251 | 3.5 | 10.4 | 0.00 | 0.00 | 0.00 | 58 | 1014.1 |
| 20260508135839 | 57 | 289 | 5.2 | 10.4 | 0.00 | 0.00 | 0.00 | 57 | 1014.1 |
| 20260508135741 | 57 | 265 | 6.1 | 10.4 | 0.00 | 0.00 | 0.00 | 57 | 1014.1 |
| 20260508135640 | 57 | 174 | 7.8 | 10.4 | 0.00 | 0.00 | 0.00 | 57 | 1014.1 |
| 20260508135559 | 56 | 239 | 6.1 | 10.4 | 0.00 | 0.00 | 0.00 | 58 | 1014.1 |
| 20260508135436 | 56 | 237 | 3.5 | 10.4 | 0.00 | 0.00 | 0.00 | 58 | 1014.1 |
| 20260508135334 | 56 | 145 | 5.2 | 10.4 | 0.00 | 0.00 | 0.00 | 58 | 1014.1 |
| 20260508135232 | 56 | 155 | 4.3 | 10.4 | 0.00 | 0.00 | 0.00 | 55 | 1014.1 |
| 20260508135150 | 56 | 90 | 6.1 | 10.4 | 0.00 | 0.00 | 0.00 | 56 | 1014.1 |
| 20260508135028 | 56 | 193 | 5.2 | 10.4 | 0.00 | 0.00 | 0.00 | 57 | 1014.1 |
| 20260508134929 | 56 | 268 | 7.8 | 11.3 | 0.00 | 0.00 | 0.00 | 56 | 1014.1 |
| 20260508134828 | 56 | 328 | 7.8 | 11.3 | 0.00 | 0.00 | 0.00 | 56 | 1014.1 |
| 20260508134728 | 56 | 274 | 7.8 | 11.3 | 0.00 | 0.00 | 0.00 | 58 | 1014.1 |
| 20260508134658 | 56 | 315 | 5.2 | 11.3 | 0.00 | 0.00 | 0.00 | 58 | 1014.1 |
| 20260508134539 | 56 | 152 | 6.1 | 11.3 | 0.00 | 0.00 | 0.00 | 58 | 1014.1 |
| 20260508134437 | 56 | 295 | 7.8 | 11.3 | 0.00 | 0.00 | 0.00 | 57 | 1014.1 |
| 20260508134336 | 56 | 185 | 5.2 | 11.3 | 0.00 | 0.00 | 0.00 | 56 | 1014.3 |
| 20260508134237 | 56 | 330 | 7.0 | 11.3 | 0.00 | 0.00 | 0.00 | 57 | 1014.3 |
| 20260508134135 | 56 | 162 | 8.7 | 11.3 | 0.00 | 0.00 | 0.00 | 57 | 1014.3 |
| 20260508134035 | 56 | 171 | 7.0 | 11.3 | 0.00 | 0.00 | 0.00 | 56 | 1014.3 |
| 20260508133933 | 56 | 253 | 7.0 | 11.3 | 0.00 | 0.00 | 0.00 | 55 | 1014.3 |
| 20260508133831 | 56 | 198 | 9.6 | 11.3 | 0.00 | 0.00 | 0.00 | 55 | 1014.3 |
| 20260508133730 | 55 | 95 | 9.6 | 11.3 | 0.00 | 0.00 | 0.00 | 57 | 1014.3 |
| 20260508133633 | 55 | 195 | 7.0 | 11.3 | 0.00 | 0.00 | 0.00 | 57 | 1014.3 |
| 20260508133532 | 55 | 116 | 7.0 | 11.3 | 0.00 | 0.00 | 0.00 | 58 | 1014.3 |
| 20260508133431 | 55 | 171 | 5.2 | 9.6 | 0.00 | 0.00 | 0.00 | 57 | 1014.3 |
| 20260508133329 | 55 | 261 | 8.7 | 9.6 | 0.00 | 0.00 | 0.00 | 56 | 1014.3 |
| 20260508133247 | 55 | 188 | 4.3 | 9.6 | 0.00 | 0.00 | 0.00 | 56 | 1014.3 |
| 20260508133219 | 55 | 285 | 3.5 | 10.4 | 0.00 | 0.00 | 0.00 | 55 | 1014.3 |
| 20260508133054 | 55 | 174 | 7.0 | 10.4 | 0.00 | 0.00 | 0.00 | 58 | 1014.3 |
| 20260508132932 | 55 | 126 | 6.1 | 10.4 | 0.00 | 0.00 | 0.00 | 58 | 1014.3 |
| 20260508132835 | 55 | 229 | 7.0 | 10.4 | 0.00 | 0.00 | 0.00 | 57 | 1014.1 |
| 20260508132733 | 55 | 137 | 7.0 | 10.4 | 0.00 | 0.00 | 0.00 | 61 | 1014.1 |
| 20260508132631 | 55 | 157 | 5.2 | 10.4 | 0.00 | 0.00 | 0.00 | 60 | 1014.1 |
| 20260508132549 | 55 | 280 | 2.6 | 10.4 | 0.00 | 0.00 | 0.00 | 60 | 1014.1 |
| 20260508132429 | 55 | 322 | 4.3 | 10.4 | 0.00 | 0.00 | 0.00 | 60 | 1014.1 |
| 20260508132328 | 55 | 112 | 7.0 | 10.4 | 0.00 | 0.00 | 0.00 | 61 | 1014.1 |
| 20260508132227 | 55 | 284 | 4.3 | 8.7 | 0.00 | 0.00 | 0.00 | 64 | 1014.1 |
| 20260508132125 | 55 | 230 | 3.5 | 8.7 | 0.00 | 0.00 | 0.00 | 64 | 1014.1 |
| 20260508132027 | 55 | 287 | 6.1 | 7.8 | 0.00 | 0.00 | 0.00 | 63 | 1014.1 |
| 20260508131926 | 55 | 250 | 2.6 | 7.0 | 0.00 | 0.00 | 0.00 | 62 | 1014.1 |
| 20260508131843 | 55 | 230 | 2.6 | 7.0 | 0.00 | 0.00 | 0.00 | 63 | 1014.1 |
| 20260508131742 | 55 | 192 | 3.5 | 8.7 | 0.00 | 0.00 | 0.00 | 64 | 1014.1 |
| 20260508131712 | 55 | 215 | 4.3 | 8.7 | 0.00 | 0.00 | 0.00 | 64 | 1014.1 |
| 20260508131528 | 54 | 246 | 3.5 | 8.7 | 0.00 | 0.00 | 0.00 | 62 | 1014.1 |
| 20260508131427 | 54 | 299 | 4.3 | 8.7 | 0.00 | 0.00 | 0.00 | 62 | 1014.1 |
| 20260508131325 | 54 | 175 | 6.1 | 8.7 | 0.00 | 0.00 | 0.00 | 63 | 1013.9 |
| 20260508131229 | 54 | 267 | 4.3 | 8.7 | 0.00 | 0.00 | 0.00 | 63 | 1013.9 |
| 20260508131128 | 54 | 244 | 5.2 | 8.7 | 0.00 | 0.00 | 0.00 | 64 | 1013.9 |
| 20260508131027 | 54 | 316 | 5.2 | 8.7 | 0.00 | 0.00 | 0.00 | 64 | 1013.9 |
| 20260508130927 | 54 | 191 | 7.0 | 8.7 | 0.00 | 0.00 | 0.00 | 64 | 1013.9 |
| 20260508130847 | 54 | 257 | 6.1 | 8.7 | 0.00 | 0.00 | 0.00 | 64 | 1013.9 |
| 20260508130744 | 54 | 196 | 6.1 | 7.8 | 0.00 | 0.00 | 0.00 | 64 | 1013.9 |
| 20260508130640 | 54 | 123 | 6.1 | 7.8 | 0.00 | 0.00 | 0.00 | 66 | 1013.9 |
| 20260508130539 | 54 | 292 | 5.2 | 7.8 | 0.00 | 0.00 | 0.00 | 66 | 1013.9 |
| 20260508130501 | 54 | 292 | 5.2 | 7.8 | 0.00 | 0.00 | 0.00 | 66 | 1013.9 |
| 20260508130338 | 54 | 292 | 5.2 | 7.8 | 0.00 | 0.00 | 0.00 | 66 | 1013.9 |
| 20260508130257 | 54 | 305 | 5.2 | 7.8 | 0.00 | 0.00 | 0.00 | 66 | 1013.9 |
| 20260508130205 | 54 | 124 | 5.2 | 7.8 | 0.00 | 0.00 | 0.00 | 66 | 1013.9 |
| 20260508130042 | 54 | 320 | 6.1 | 8.7 | 0.00 | 0.00 | 0.00 | 67 | 1013.9 |
| 20260508125940 | 54 | 329 | 4.3 | 8.7 | 0.00 | 0.00 | 0.00 | 67 | 1013.9 |
| 20260508125839 | 54 | 295 | 5.2 | 8.7 | 0.00 | 0.00 | 0.00 | 66 | 1013.8 |
| 20260508125757 | 54 | 141 | 5.2 | 9.6 | 0.00 | 0.00 | 0.00 | 66 | 1013.8 |
| 20260508125640 | 54 | 330 | 5.2 | 9.6 | 0.00 | 0.00 | 0.00 | 66 | 1013.8 |
| 20260508125539 | 54 | 326 | 5.2 | 9.6 | 0.00 | 0.00 | 0.00 | 65 | 1013.8 |
| 20260508125458 | 54 | 323 | 5.2 | 9.6 | 0.00 | 0.00 | 0.00 | 65 | 1013.8 |
| 20260508125335 | 54 | 284 | 5.2 | 10.4 | 0.00 | 0.00 | 0.00 | 65 | 1013.8 |
| 20260508125233 | 54 | 304 | 6.1 | 10.4 | 0.00 | 0.00 | 0.00 | 64 | 1013.8 |
| 20260508125132 | 53 | 291 | 7.0 | 10.4 | 0.00 | 0.00 | 0.00 | 64 | 1013.8 |
| 20260508125050 | 53 | 268 | 5.2 | 10.4 | 0.00 | 0.00 | 0.00 | 64 | 1013.8 |
| 20260508124928 | 53 | 151 | 6.1 | 10.4 | 0.00 | 0.00 | 0.00 | 65 | 1013.8 |
| 20260508124830 | 53 | 116 | 5.2 | 10.4 | 0.00 | 0.00 | 0.00 | 66 | 1013.8 |
| 20260508124740 | 53 | 144 | 7.8 | 10.4 | 0.00 | 0.00 | 0.00 | 66 | 1013.8 |
| 20260508124648 | 53 | 133 | 7.8 | 10.4 | 0.00 | 0.00 | 0.00 | 67 | 1013.8 |
| 20260508124525 | 53 | 253 | 7.0 | 10.4 | 0.00 | 0.00 | 0.00 | 68 | 1013.8 |
| 20260508124424 | 53 | 188 | 6.1 | 10.4 | 0.00 | 0.00 | 0.00 | 68 | 1013.8 |
| 20260508124342 | 53 | 114 | 4.3 | 10.4 | 0.00 | 0.00 | 0.00 | 68 | 1013.9 |
| 20260508124242 | 53 | 219 | 6.1 | 10.4 | 0.00 | 0.00 | 0.00 | 68 | 1013.9 |
| 20260508124124 | 53 | 185 | 5.2 | 10.4 | 0.00 | 0.00 | 0.00 | 69 | 1013.9 |
| 20260508124043 | 53 | 168 | 7.0 | 10.4 | 0.00 | 0.00 | 0.00 | 69 | 1013.9 |
| 20260508124002 | 53 | 294 | 7.8 | 10.4 | 0.00 | 0.00 | 0.00 | 69 | 1013.9 |
| 20260508123841 | 53 | 257 | 6.1 | 9.6 | 0.00 | 0.00 | 0.00 | 69 | 1013.9 |
| 20260508123740 | 53 | 189 | 6.1 | 7.8 | 0.00 | 0.00 | 0.00 | 69 | 1013.9 |
| 20260508123638 | 53 | 326 | 5.2 | 7.8 | 0.00 | 0.00 | 0.00 | 69 | 1013.9 |
| 20260508123557 | 53 | 222 | 3.5 | 7.8 | 0.00 | 0.00 | 0.00 | 69 | 1013.9 |
| 20260508123433 | 53 | 312 | 6.1 | 7.8 | 0.00 | 0.00 | 0.00 | 69 | 1013.9 |
| 20260508123336 | 53 | 271 | 5.2 | 7.8 | 0.00 | 0.00 | 0.00 | 69 | 1013.9 |
| 20260508123235 | 52 | 332 | 6.1 | 7.8 | 0.00 | 0.00 | 0.00 | 69 | 1013.9 |
| 20260508123205 | 52 | 174 | 5.2 | 7.8 | 0.00 | 0.00 | 0.00 | 69 | 1013.9 |
| 20260508123042 | 52 | 176 | 5.2 | 8.7 | 0.00 | 0.00 | 0.00 | 69 | 1013.9 |
| 20260508122940 | 52 | 329 | 5.2 | 8.7 | 0.00 | 0.00 | 0.00 | 69 | 1013.9 |
| 20260508122837 | 52 | 332 | 5.2 | 8.7 | 0.00 | 0.00 | 0.00 | 69 | 1014.1 |
| 20260508122737 | 52 | 230 | 5.2 | 8.7 | 0.00 | 0.00 | 0.00 | 69 | 1014.1 |
| 20260508122640 | 52 | 291 | 5.2 | 8.7 | 0.00 | 0.00 | 0.00 | 69 | 1014.1 |
| 20260508122537 | 52 | 312 | 5.2 | 8.7 | 0.00 | 0.00 | 0.00 | 69 | 1014.1 |
| 20260508122455 | 52 | 272 | 6.1 | 8.7 | 0.00 | 0.00 | 0.00 | 69 | 1014.1 |
| 20260508122332 | 52 | 313 | 4.3 | 8.7 | 0.00 | 0.00 | 0.00 | 70 | 1014.1 |
| 20260508122231 | 52 | 260 | 4.3 | 9.6 | 0.00 | 0.00 | 0.00 | 70 | 1014.1 |
| 20260508122129 | 52 | 302 | 3.5 | 9.6 | 0.00 | 0.00 | 0.00 | 70 | 1014.1 |
| 20260508122028 | 52 | 261 | 7.0 | 9.6 | 0.00 | 0.00 | 0.00 | 70 | 1014.1 |
| 20260508121930 | 51 | 157 | 6.1 | 9.6 | 0.00 | 0.00 | 0.00 | 71 | 1014.1 |
| 20260508121848 | 51 | 246 | 5.2 | 9.6 | 0.00 | 0.00 | 0.00 | 71 | 1014.1 |
| 20260508121726 | 51 | 332 | 6.1 | 9.6 | 0.00 | 0.00 | 0.00 | 71 | 1014.1 |
| 20260508121656 | 51 | 275 | 5.2 | 9.6 | 0.00 | 0.00 | 0.00 | 71 | 1014.1 |
| 20260508121533 | 51 | 332 | 4.3 | 9.6 | 0.00 | 0.00 | 0.00 | 70 | 1014.1 |
| 20260508121431 | 51 | 329 | 5.2 | 9.6 | 0.00 | 0.00 | 0.00 | 71 | 1014.1 |
| 20260508121328 | 51 | 160 | 6.1 | 9.6 | 0.00 | 0.00 | 0.00 | 71 | 1013.9 |
| 20260508121248 | 51 | 112 | 6.1 | 8.7 | 0.00 | 0.00 | 0.00 | 71 | 1013.9 |
| 20260508121129 | 51 | 264 | 4.3 | 8.7 | 0.00 | 0.00 | 0.00 | 71 | 1013.9 |
| 20260508121032 | 51 | 289 | 6.1 | 8.7 | 0.00 | 0.00 | 0.00 | 70 | 1013.9 |
| 20260508120929 | 51 | 264 | 6.1 | 8.7 | 0.00 | 0.00 | 0.00 | 71 | 1013.9 |
| 20260508120830 | 51 | 316 | 6.1 | 8.7 | 0.00 | 0.00 | 0.00 | 70 | 1013.9 |
| 20260508120748 | 51 | 326 | 5.2 | 7.8 | 0.00 | 0.00 | 0.00 | 71 | 1013.9 |
| 20260508120626 | 51 | 131 | 6.1 | 7.8 | 0.00 | 0.00 | 0.00 | 71 | 1013.9 |
| 20260508120529 | 51 | 326 | 6.1 | 7.8 | 0.00 | 0.00 | 0.00 | 71 | 1013.9 |
| 20260508120427 | 51 | 333 | 4.3 | 7.0 | 0.00 | 0.00 | 0.00 | 71 | 1013.9 |
| 20260508120329 | 51 | 181 | 5.2 | 7.0 | 0.00 | 0.00 | 0.00 | 71 | 1013.9 |
| 20260508120227 | 51 | 200 | 6.1 | 7.8 | 0.00 | 0.00 | 0.00 | 71 | 1013.9 |
| 20260508120158 | 51 | 130 | 5.2 | 7.8 | 0.00 | 0.00 | 0.00 | 71 | 1013.9 |
| 20260508120034 | 51 | 145 | 4.3 | 7.8 | 0.00 | 0.00 | 0.00 | 71 | 1013.9 |
| 20260508115933 | 51 | 260 | 6.1 | 8.7 | 0.00 | 0.00 | 0.00 | 71 | 1013.9 |
| 20260508115831 | 51 | 128 | 6.1 | 8.7 | 0.00 | 0.00 | 0.00 | 72 | 1013.7 |
| 20260508115729 | 51 | 274 | 5.2 | 8.7 | 0.00 | 0.00 | 0.00 | 72 | 1013.7 |
| 20260508115652 | 51 | 227 | 5.2 | 8.7 | 0.00 | 0.00 | 0.00 | 72 | 1013.7 |
| 20260508115530 | 51 | 222 | 5.2 | 8.7 | 0.00 | 0.00 | 0.00 | 72 | 1013.7 |
| 20260508115428 | 51 | 233 | 6.1 | 8.7 | 0.00 | 0.00 | 0.00 | 72 | 1013.7 |
| 20260508115327 | 51 | 330 | 5.2 | 8.7 | 0.00 | 0.00 | 0.00 | 72 | 1013.7 |
| 20260508115225 | 51 | 322 | 5.2 | 8.7 | 0.00 | 0.00 | 0.00 | 72 | 1013.7 |
| 20260508115143 | 51 | 301 | 6.1 | 8.7 | 0.00 | 0.00 | 0.00 | 72 | 1013.7 |
| 20260508115042 | 51 | 322 | 6.1 | 8.7 | 0.00 | 0.00 | 0.00 | 72 | 1013.7 |
| 20260508114924 | 51 | 107 | 5.2 | 7.0 | 0.00 | 0.00 | 0.00 | 72 | 1013.7 |
| 20260508114846 | 51 | 332 | 5.2 | 7.0 | 0.00 | 0.00 | 0.00 | 72 | 1013.7 |
| 20260508114742 | 51 | 123 | 5.2 | 7.0 | 0.00 | 0.00 | 0.00 | 72 | 1013.7 |
| 20260508114713 | 51 | 332 | 5.2 | 7.0 | 0.00 | 0.00 | 0.00 | 71 | 1013.7 |
| 20260508114530 | 51 | 330 | 5.2 | 7.0 | 0.00 | 0.00 | 0.00 | 72 | 1013.7 |
| 20260508114430 | 51 | 258 | 6.1 | 7.0 | 0.00 | 0.00 | 0.00 | 72 | 1013.7 |
| 20260508114327 | 51 | 138 | 6.1 | 7.0 | 0.00 | 0.00 | 0.00 | 72 | 1013.6 |
| 20260508114227 | 51 | 329 | 5.2 | 8.7 | 0.00 | 0.00 | 0.00 | 71 | 1013.6 |
| 20260508114128 | 51 | 332 | 6.1 | 8.7 | 0.00 | 0.00 | 0.00 | 71 | 1013.6 |
| 20260508114027 | 51 | 264 | 5.2 | 8.7 | 0.00 | 0.00 | 0.00 | 71 | 1013.6 |
| 20260508113924 | 51 | 278 | 4.3 | 8.7 | 0.00 | 0.00 | 0.00 | 71 | 1013.6 |
| 20260508113843 | 51 | 265 | 4.3 | 8.7 | 0.00 | 0.00 | 0.00 | 71 | 1013.6 |
| 20260508113741 | 51 | 178 | 5.2 | 8.7 | 0.00 | 0.00 | 0.00 | 71 | 1013.6 |
| 20260508113700 | 51 | 332 | 4.3 | 8.7 | 0.00 | 0.00 | 0.00 | 70 | 1013.6 |
| 20260508113537 | 51 | 277 | 4.3 | 8.7 | 0.00 | 0.00 | 0.00 | 70 | 1013.6 |
| 20260508113439 | 51 | 292 | 5.2 | 8.7 | 0.00 | 0.00 | 0.00 | 70 | 1013.6 |
| 20260508113340 | 51 | 272 | 6.1 | 8.7 | 0.00 | 0.00 | 0.00 | 70 | 1013.6 |
| 20260508113237 | 51 | 169 | 6.1 | 8.7 | 0.00 | 0.00 | 0.00 | 70 | 1013.6 |
| 20260508113207 | 51 | 128 | 5.2 | 8.7 | 0.00 | 0.00 | 0.00 | 70 | 1013.6 |
| 20260508113043 | 51 | 258 | 6.1 | 8.7 | 0.00 | 0.00 | 0.00 | 70 | 1013.6 |
| 20260508112941 | 51 | 243 | 5.2 | 7.8 | 0.00 | 0.00 | 0.00 | 71 | 1013.6 |
| 20260508112840 | 51 | 154 | 6.1 | 7.0 | 0.00 | 0.00 | 0.00 | 71 | 1013.3 |
| 20260508112800 | 51 | 248 | 5.2 | 7.0 | 0.00 | 0.00 | 0.00 | 70 | 1013.3 |
| 20260508112656 | 51 | 203 | 6.1 | 7.0 | 0.00 | 0.00 | 0.00 | 70 | 1013.3 |
| 20260508112559 | 51 | 241 | 6.1 | 7.0 | 0.00 | 0.00 | 0.00 | 70 | 1013.3 |
| 20260508112434 | 51 | 100 | 5.2 | 7.8 | 0.00 | 0.00 | 0.00 | 70 | 1013.3 |
| 20260508112336 | 51 | 298 | 6.1 | 7.8 | 0.00 | 0.00 | 0.00 | 70 | 1013.3 |
| 20260508112236 | 51 | 328 | 5.2 | 7.8 | 0.00 | 0.00 | 0.00 | 70 | 1013.3 |
| 20260508112134 | 51 | 275 | 5.2 | 7.8 | 0.00 | 0.00 | 0.00 | 70 | 1013.3 |
| 20260508112033 | 51 | 224 | 6.1 | 8.7 | 0.00 | 0.00 | 0.00 | 70 | 1013.3 |
| 20260508111930 | 51 | 160 | 5.2 | 8.7 | 0.00 | 0.00 | 0.00 | 70 | 1013.3 |
| 20260508111828 | 51 | 199 | 5.2 | 8.7 | 0.00 | 0.00 | 0.00 | 70 | 1013.3 |
| 20260508111740 | 51 | 195 | 6.1 | 8.7 | 0.00 | 0.00 | 0.00 | 70 | 1013.3 |
| 20260508111650 | 51 | 251 | 6.1 | 8.7 | 0.00 | 0.00 | 0.00 | 70 | 1013.3 |
| 20260508111528 | 51 | 144 | 5.2 | 8.7 | 0.00 | 0.00 | 0.00 | 70 | 1013.3 |
| 20260508111425 | 51 | 323 | 5.2 | 8.7 | 0.00 | 0.00 | 0.00 | 69 | 1013.3 |
| 20260508111324 | 51 | 268 | 5.2 | 8.7 | 0.00 | 0.00 | 0.00 | 70 | 1012.8 |
| 20260508111243 | 51 | 270 | 6.1 | 8.7 | 0.00 | 0.00 | 0.00 | 70 | 1012.8 |
| 20260508111142 | 51 | 267 | 6.1 | 8.7 | 0.00 | 0.00 | 0.00 | 69 | 1012.8 |
| 20260508111101 | 51 | 215 | 5.2 | 8.7 | 0.00 | 0.00 | 0.00 | 69 | 1012.8 |
| 20260508111001 | 51 | 330 | 6.1 | 8.7 | 0.00 | 0.00 | 0.00 | 69 | 1012.8 |
| 20260508110839 | 51 | 325 | 5.2 | 8.7 | 0.00 | 0.00 | 0.00 | 69 | 1012.8 |
| 20260508110738 | 51 | 298 | 5.2 | 8.7 | 0.00 | 0.00 | 0.00 | 69 | 1012.8 |
| 20260508110635 | 51 | 284 | 6.1 | 8.7 | 0.00 | 0.00 | 0.00 | 69 | 1012.8 |
| 20260508110534 | 51 | 202 | 6.1 | 8.7 | 0.00 | 0.00 | 0.00 | 69 | 1012.8 |
| 20260508110432 | 51 | 136 | 6.1 | 8.7 | 0.00 | 0.00 | 0.00 | 69 | 1012.8 |
| 20260508110330 | 51 | 332 | 5.2 | 8.7 | 0.00 | 0.00 | 0.00 | 69 | 1012.8 |
| 20260508110252 | 51 | 277 | 5.2 | 8.7 | 0.00 | 0.00 | 0.00 | 69 | 1012.8 |
| 20260508110202 | 51 | 136 | 5.2 | 8.7 | 0.00 | 0.00 | 0.00 | 69 | 1012.8 |
| 20260508110039 | 51 | 251 | 5.2 | 8.7 | 0.00 | 0.00 | 0.00 | 69 | 1012.8 |
| 20260508105957 | 51 | 179 | 6.1 | 8.7 | 0.00 | 0.00 | 0.00 | 69 | 1012.8 |
| 20260508105834 | 51 | 280 | 5.2 | 8.7 | 0.00 | 0.00 | 0.00 | 69 | 1012.6 |
| 20260508105734 | 51 | 265 | 6.1 | 8.7 | 0.00 | 0.00 | 0.00 | 69 | 1012.6 |
| 20260508105635 | 51 | 316 | 5.2 | 8.7 | 0.00 | 0.00 | 0.00 | 69 | 1012.6 |
| 20260508105533 | 51 | 263 | 6.1 | 8.7 | 0.00 | 0.00 | 0.00 | 69 | 1012.6 |
| 20260508105436 | 51 | 323 | 6.1 | 8.7 | 0.00 | 0.00 | 0.00 | 69 | 1012.6 |
| 20260508105334 | 51 | 296 | 7.0 | 8.7 | 0.00 | 0.00 | 0.00 | 69 | 1012.6 |
| 20260508105252 | 51 | 213 | 6.1 | 8.7 | 0.00 | 0.00 | 0.00 | 69 | 1012.6 |
| 20260508105130 | 51 | 130 | 6.1 | 8.7 | 0.00 | 0.00 | 0.00 | 69 | 1012.6 |
| 20260508105049 | 51 | 164 | 5.2 | 9.6 | 0.00 | 0.00 | 0.00 | 69 | 1012.6 |
| 20260508104926 | 51 | 330 | 6.1 | 9.6 | 0.00 | 0.00 | 0.00 | 69 | 1012.6 |
| 20260508104823 | 51 | 145 | 5.2 | 9.6 | 0.00 | 0.00 | 0.00 | 69 | 1012.6 |
| 20260508104738 | 51 | 302 | 7.0 | 9.6 | 0.00 | 0.00 | 0.00 | 69 | 1012.6 |
| 20260508104645 | 51 | 232 | 7.0 | 9.6 | 0.00 | 0.00 | 0.00 | 68 | 1012.6 |
| 20260508104544 | 51 | 306 | 6.1 | 9.6 | 0.00 | 0.00 | 0.00 | 68 | 1012.6 |
| 20260508104442 | 51 | 196 | 7.0 | 9.6 | 0.00 | 0.00 | 0.00 | 68 | 1012.6 |
| 20260508104341 | 51 | 254 | 7.0 | 9.6 | 0.00 | 0.00 | 0.00 | 69 | 1012.4 |
| 20260508104239 | 51 | 157 | 7.0 | 9.6 | 0.00 | 0.00 | 0.00 | 68 | 1012.4 |
| 20260508104137 | 51 | 176 | 6.1 | 8.7 | 0.00 | 0.00 | 0.00 | 68 | 1012.4 |
| 20260508104037 | 51 | 131 | 5.2 | 8.7 | 0.00 | 0.00 | 0.00 | 68 | 1012.4 |
| 20260508103940 | 51 | 332 | 5.2 | 8.7 | 0.00 | 0.00 | 0.00 | 68 | 1012.4 |
| 20260508103838 | 51 | 209 | 6.1 | 8.7 | 0.00 | 0.00 | 0.00 | 68 | 1012.4 |
| 20260508103737 | 51 | 328 | 5.2 | 8.7 | 0.00 | 0.00 | 0.00 | 68 | 1012.4 |
| 20260508103634 | 51 | 208 | 4.3 | 8.7 | 0.00 | 0.00 | 0.00 | 68 | 1012.4 |
| 20260508103553 | 51 | 230 | 5.2 | 8.7 | 0.00 | 0.00 | 0.00 | 67 | 1012.4 |
| 20260508103431 | 51 | 227 | 6.1 | 8.7 | 0.00 | 0.00 | 0.00 | 67 | 1012.4 |
| 20260508103330 | 51 | 143 | 6.1 | 8.7 | 0.00 | 0.00 | 0.00 | 67 | 1012.4 |
| 20260508103240 | 51 | 162 | 7.0 | 10.4 | 0.00 | 0.00 | 0.00 | 67 | 1012.4 |
| 20260508103154 | 51 | 305 | 6.1 | 10.4 | 0.00 | 0.00 | 0.00 | 67 | 1012.4 |
| 20260508103030 | 51 | 308 | 6.1 | 10.4 | 0.00 | 0.00 | 0.00 | 67 | 1012.4 |
| 20260508102929 | 51 | 260 | 5.2 | 10.4 | 0.00 | 0.00 | 0.00 | 67 | 1012.4 |
| 20260508102827 | 51 | 186 | 6.1 | 10.4 | 0.00 | 0.00 | 0.00 | 67 | 1012.3 |
| 20260508102745 | 51 | 203 | 6.1 | 10.4 | 0.00 | 0.00 | 0.00 | 67 | 1012.3 |
| 20260508102642 | 51 | 208 | 5.2 | 10.4 | 0.00 | 0.00 | 0.00 | 66 | 1012.3 |
| 20260508102540 | 51 | 93 | 5.2 | 10.4 | 0.00 | 0.00 | 0.00 | 67 | 1012.3 |
| 20260508102438 | 51 | 319 | 7.0 | 10.4 | 0.00 | 0.00 | 0.00 | 66 | 1012.3 |
| 20260508102339 | 51 | 315 | 7.8 | 10.4 | 0.00 | 0.00 | 0.00 | 66 | 1012.3 |
| 20260508102239 | 51 | 209 | 7.0 | 11.3 | 0.00 | 0.00 | 0.00 | 66 | 1012.3 |
| 20260508102138 | 51 | 258 | 5.2 | 12.2 | 0.00 | 0.00 | 0.00 | 66 | 1012.3 |
| 20260508102036 | 52 | 199 | 6.1 | 12.2 | 0.00 | 0.00 | 0.00 | 66 | 1012.3 |
| 20260508101934 | 52 | 172 | 4.3 | 12.2 | 0.00 | 0.00 | 0.00 | 65 | 1012.3 |
| 20260508101832 | 52 | 154 | 6.1 | 12.2 | 0.00 | 0.00 | 0.00 | 65 | 1012.3 |
| 20260508101803 | 52 | 281 | 7.8 | 12.2 | 0.00 | 0.00 | 0.00 | 66 | 1012.3 |
| 20260508101649 | 52 | 195 | 8.7 | 12.2 | 0.00 | 0.00 | 0.00 | 65 | 1012.3 |
| 20260508101531 | 52 | 195 | 5.2 | 12.2 | 0.00 | 0.00 | 0.00 | 65 | 1012.3 |
| 20260508101429 | 52 | 145 | 7.8 | 12.2 | 0.00 | 0.00 | 0.00 | 64 | 1012.3 |
| 20260508101347 | 52 | 219 | 8.7 | 12.2 | 0.00 | 0.00 | 0.00 | 66 | 1012.2 |
| 20260508101226 | 52 | 154 | 7.0 | 10.4 | 0.00 | 0.00 | 0.00 | 67 | 1012.2 |
| 20260508101125 | 52 | 107 | 5.2 | 10.4 | 0.00 | 0.00 | 0.00 | 67 | 1012.2 |
| 20260508101043 | 52 | 172 | 6.1 | 10.4 | 0.00 | 0.00 | 0.00 | 66 | 1012.2 |
| 20260508100941 | 52 | 138 | 6.1 | 9.6 | 0.00 | 0.00 | 0.00 | 66 | 1012.2 |
| 20260508100900 | 52 | 195 | 6.1 | 11.3 | 0.00 | 0.00 | 0.00 | 66 | 1012.2 |
| 20260508100742 | 52 | 141 | 6.1 | 11.3 | 0.00 | 0.00 | 0.00 | 66 | 1012.2 |
| 20260508100639 | 52 | 261 | 7.0 | 11.3 | 0.00 | 0.00 | 0.00 | 65 | 1012.2 |
| 20260508100538 | 52 | 301 | 7.8 | 11.3 | 0.00 | 0.00 | 0.00 | 65 | 1012.2 |
| 20260508100436 | 52 | 250 | 6.1 | 11.3 | 0.00 | 0.00 | 0.00 | 65 | 1012.2 |
| 20260508100335 | 52 | 320 | 7.0 | 11.3 | 0.00 | 0.00 | 0.00 | 65 | 1012.2 |
| 20260508100303 | 52 | 230 | 6.1 | 11.3 | 0.00 | 0.00 | 0.00 | 65 | 1012.2 |
| 20260508100152 | 52 | 147 | 5.2 | 11.3 | 0.00 | 0.00 | 0.00 | 65 | 1012.2 |
| 20260508100032 | 52 | 175 | 7.0 | 11.3 | 0.00 | 0.00 | 0.00 | 64 | 1012.2 |
| 20260508095930 | 52 | 189 | 6.1 | 11.3 | 0.00 | 0.00 | 0.00 | 64 | 1012.2 |
| 20260508095830 | 52 | 198 | 6.1 | 11.3 | 0.00 | 0.00 | 0.00 | 63 | 1012.1 |
| 20260508095729 | 52 | 219 | 5.2 | 11.3 | 0.00 | 0.00 | 0.00 | 63 | 1012.1 |
| 20260508095626 | 52 | 175 | 6.1 | 11.3 | 0.00 | 0.00 | 0.00 | 64 | 1012.1 |
| 20260508095524 | 52 | 205 | 7.0 | 11.3 | 0.00 | 0.00 | 0.00 | 63 | 1012.1 |
| 20260508095443 | 52 | 264 | 7.0 | 11.3 | 0.00 | 0.00 | 0.00 | 64 | 1012.1 |
| 20260508095325 | 52 | 144 | 6.1 | 11.3 | 0.00 | 0.00 | 0.00 | 65 | 1012.1 |
| 20260508095243 | 52 | 184 | 6.1 | 11.3 | 0.00 | 0.00 | 0.00 | 65 | 1012.1 |
| 20260508095140 | 51 | 176 | 7.8 | 11.3 | 0.00 | 0.00 | 0.00 | 63 | 1012.1 |
| 20260508095039 | 51 | 198 | 6.1 | 11.3 | 0.00 | 0.00 | 0.00 | 63 | 1012.1 |
| 20260508094937 | 51 | 102 | 7.0 | 11.3 | 0.00 | 0.00 | 0.00 | 64 | 1012.1 |
| 20260508094836 | 51 | 109 | 7.0 | 12.2 | 0.00 | 0.00 | 0.00 | 64 | 1012.1 |
| 20260508094736 | 51 | 278 | 6.1 | 12.2 | 0.00 | 0.00 | 0.00 | 64 | 1012.1 |
| 20260508094709 | 51 | 315 | 7.8 | 12.2 | 0.00 | 0.00 | 0.00 | 63 | 1012.1 |
| 20260508094525 | 51 | 220 | 7.0 | 12.2 | 0.00 | 0.00 | 0.00 | 62 | 1012.1 |
| 20260508094443 | 51 | 72 | 7.0 | 12.2 | 0.00 | 0.00 | 0.00 | 63 | 1012.1 |
| 20260508094341 | 51 | 123 | 5.2 | 12.2 | 0.00 | 0.00 | 0.00 | 65 | 1011.9 |
| 20260508094259 | 51 | 113 | 6.1 | 12.2 | 0.00 | 0.00 | 0.00 | 65 | 1011.9 |
| 20260508094136 | 51 | 328 | 7.8 | 12.2 | 0.00 | 0.00 | 0.00 | 64 | 1011.9 |
| 20260508094034 | 51 | 313 | 9.6 | 12.2 | 0.00 | 0.00 | 0.00 | 64 | 1011.9 |
| 20260508093953 | 51 | 217 | 7.8 | 11.3 | 0.00 | 0.00 | 0.00 | 64 | 1011.9 |
| 20260508093834 | 51 | 114 | 8.7 | 11.3 | 0.00 | 0.00 | 0.00 | 63 | 1011.9 |
| 20260508093735 | 51 | 134 | 8.7 | 11.3 | 0.00 | 0.00 | 0.00 | 64 | 1011.9 |
| 20260508093634 | 51 | 96 | 7.0 | 11.3 | 0.00 | 0.00 | 0.00 | 64 | 1011.9 |
| 20260508093533 | 51 | 205 | 7.8 | 11.3 | 0.00 | 0.00 | 0.00 | 65 | 1011.9 |
| 20260508093432 | 51 | 133 | 8.7 | 11.3 | 0.00 | 0.00 | 0.00 | 64 | 1011.9 |
| 20260508093330 | 51 | 265 | 5.2 | 11.3 | 0.00 | 0.00 | 0.00 | 65 | 1011.9 |
| 20260508093229 | 51 | 215 | 6.1 | 11.3 | 0.00 | 0.00 | 0.00 | 64 | 1011.9 |
| 20260508093200 | 51 | 128 | 7.0 | 11.3 | 0.00 | 0.00 | 0.00 | 64 | 1011.9 |
| 20260508093041 | 51 | 102 | 7.0 | 11.3 | 0.00 | 0.00 | 0.00 | 65 | 1011.9 |
| 20260508092939 | 51 | 210 | 6.1 | 11.3 | 0.00 | 0.00 | 0.00 | 65 | 1011.9 |
| 20260508092837 | 51 | 289 | 7.0 | 10.4 | 0.00 | 0.00 | 0.00 | 65 | 1012.0 |
| 20260508092735 | 51 | 203 | 7.0 | 10.4 | 0.00 | 0.00 | 0.00 | 66 | 1012.0 |
| 20260508092634 | 51 | 261 | 7.0 | 10.4 | 0.00 | 0.00 | 0.00 | 65 | 1012.0 |
| 20260508092533 | 51 | 186 | 7.0 | 10.4 | 0.00 | 0.00 | 0.00 | 65 | 1012.0 |
| 20260508092435 | 51 | 199 | 5.2 | 9.6 | 0.00 | 0.00 | 0.00 | 64 | 1012.0 |
| 20260508092333 | 51 | 199 | 7.0 | 9.6 | 0.00 | 0.00 | 0.00 | 63 | 1012.0 |
| 20260508092251 | 51 | 234 | 7.8 | 11.3 | 0.00 | 0.00 | 0.00 | 65 | 1012.0 |
| 20260508092128 | 51 | 206 | 8.7 | 11.3 | 0.00 | 0.00 | 0.00 | 65 | 1012.0 |
| 20260508092027 | 51 | 333 | 6.1 | 11.3 | 0.00 | 0.00 | 0.00 | 65 | 1012.0 |
| 20260508091945 | 51 | 291 | 6.1 | 11.3 | 0.00 | 0.00 | 0.00 | 65 | 1012.0 |
| 20260508091843 | 51 | 107 | 6.1 | 11.3 | 0.00 | 0.00 | 0.00 | 65 | 1012.0 |
| 20260508091732 | 51 | 110 | 7.8 | 11.3 | 0.00 | 0.00 | 0.00 | 65 | 1012.0 |
| 20260508091646 | 51 | 224 | 7.8 | 11.3 | 0.00 | 0.00 | 0.00 | 65 | 1012.0 |
| 20260508091524 | 51 | 195 | 7.0 | 11.3 | 0.00 | 0.00 | 0.00 | 66 | 1012.0 |
| 20260508091427 | 51 | 247 | 7.8 | 11.3 | 0.00 | 0.00 | 0.00 | 66 | 1012.0 |
| 20260508091326 | 51 | 128 | 6.1 | 11.3 | 0.00 | 0.00 | 0.00 | 66 | 1011.9 |
| 20260508091244 | 51 | 309 | 6.1 | 11.3 | 0.00 | 0.00 | 0.00 | 66 | 1011.9 |
| 20260508091142 | 51 | 305 | 8.7 | 11.3 | 0.00 | 0.00 | 0.00 | 66 | 1011.9 |
| 20260508091040 | 51 | 126 | 7.8 | 12.2 | 0.00 | 0.00 | 0.00 | 67 | 1011.9 |
| 20260508090924 | 51 | 215 | 6.1 | 12.2 | 0.00 | 0.00 | 0.00 | 66 | 1011.9 |
| 20260508090846 | 51 | 251 | 6.1 | 12.2 | 0.00 | 0.00 | 0.00 | 67 | 1011.9 |
| 20260508090743 | 51 | 88 | 7.0 | 12.2 | 0.00 | 0.00 | 0.00 | 67 | 1011.9 |
| 20260508090639 | 51 | 292 | 7.8 | 12.2 | 0.00 | 0.00 | 0.00 | 67 | 1011.9 |
| 20260508090559 | 51 | 260 | 7.8 | 12.2 | 0.00 | 0.00 | 0.00 | 67 | 1011.9 |
| 20260508090434 | 51 | 312 | 7.8 | 12.2 | 0.00 | 0.00 | 0.00 | 67 | 1011.9 |
| 20260508090331 | 51 | 220 | 7.0 | 12.2 | 0.00 | 0.00 | 0.00 | 67 | 1011.9 |
| 20260508090240 | 51 | 192 | 9.6 | 12.2 | 0.00 | 0.00 | 0.00 | 67 | 1011.9 |
| 20260508090151 | 51 | 329 | 8.7 | 12.2 | 0.00 | 0.00 | 0.00 | 67 | 1011.9 |
| 20260508090031 | 51 | 80 | 7.8 | 10.4 | 0.00 | 0.00 | 0.00 | 68 | 1011.9 |
| 20260508085929 | 51 | 212 | 6.1 | 10.4 | 0.00 | 0.00 | 0.00 | 68 | 1011.9 |
| 20260508085847 | 51 | 223 | 7.8 | 10.4 | 0.00 | 0.00 | 0.00 | 68 | 1011.8 |
| 20260508085744 | 51 | 167 | 7.8 | 10.4 | 0.00 | 0.00 | 0.00 | 68 | 1011.8 |
| 20260508085642 | 51 | 188 | 8.7 | 10.4 | 0.00 | 0.00 | 0.00 | 68 | 1011.8 |
| 20260508085538 | 51 | 209 | 7.0 | 10.4 | 0.00 | 0.00 | 0.00 | 68 | 1011.8 |
| 20260508085437 | 51 | 313 | 6.1 | 10.4 | 0.00 | 0.00 | 0.00 | 68 | 1011.8 |
| 20260508085335 | 51 | 229 | 7.8 | 10.4 | 0.00 | 0.00 | 0.00 | 68 | 1011.8 |
| 20260508085239 | 51 | 232 | 7.0 | 10.4 | 0.00 | 0.00 | 0.00 | 68 | 1011.8 |
| 20260508085136 | 51 | 145 | 7.0 | 10.4 | 0.00 | 0.00 | 0.00 | 69 | 1011.8 |
| 20260508085033 | 51 | 236 | 7.8 | 10.4 | 0.00 | 0.00 | 0.00 | 69 | 1011.8 |
| 20260508084932 | 51 | 137 | 7.8 | 10.4 | 0.00 | 0.00 | 0.00 | 70 | 1011.8 |
| 20260508084830 | 51 | 230 | 7.0 | 10.4 | 0.00 | 0.00 | 0.00 | 70 | 1011.8 |
| 20260508084730 | 51 | 223 | 7.0 | 10.4 | 0.00 | 0.00 | 0.00 | 70 | 1011.8 |
| 20260508084700 | 51 | 328 | 6.1 | 10.4 | 0.00 | 0.00 | 0.00 | 70 | 1011.8 |
| 20260508084542 | 51 | 113 | 7.8 | 10.4 | 0.00 | 0.00 | 0.00 | 71 | 1011.8 |
| 20260508084440 | 51 | 185 | 7.0 | 10.4 | 0.00 | 0.00 | 0.00 | 71 | 1011.8 |
| 20260508084339 | 51 | 209 | 8.7 | 10.4 | 0.00 | 0.00 | 0.00 | 71 | 1011.7 |
| 20260508084237 | 51 | 332 | 7.0 | 10.4 | 0.00 | 0.00 | 0.00 | 71 | 1011.7 |
| 20260508084136 | 51 | 78 | 6.1 | 10.4 | 0.00 | 0.00 | 0.00 | 71 | 1011.7 |
| 20260508084034 | 51 | 226 | 7.8 | 10.4 | 0.00 | 0.00 | 0.00 | 72 | 1011.7 |
| 20260508083934 | 51 | 188 | 7.8 | 10.4 | 0.00 | 0.00 | 0.00 | 72 | 1011.7 |
| 20260508083836 | 51 | 285 | 6.1 | 10.4 | 0.00 | 0.00 | 0.00 | 72 | 1011.7 |
| 20260508083734 | 51 | 301 | 7.0 | 10.4 | 0.00 | 0.00 | 0.00 | 73 | 1011.7 |
| 20260508083653 | 51 | 168 | 7.0 | 10.4 | 0.00 | 0.00 | 0.00 | 73 | 1011.7 |
| 20260508083530 | 51 | 168 | 6.1 | 10.4 | 0.00 | 0.00 | 0.00 | 73 | 1011.7 |
| 20260508083429 | 51 | 258 | 7.0 | 10.4 | 0.00 | 0.00 | 0.00 | 73 | 1011.7 |
| 20260508083328 | 51 | 172 | 6.1 | 10.4 | 0.00 | 0.00 | 0.00 | 73 | 1011.7 |
| 20260508083237 | 51 | 195 | 8.7 | 10.4 | 0.00 | 0.00 | 0.00 | 73 | 1011.7 |
| 20260508083151 | 51 | 253 | 7.0 | 10.4 | 0.00 | 0.00 | 0.00 | 74 | 1011.7 |
| 20260508083047 | 51 | 212 | 7.0 | 10.4 | 0.00 | 0.00 | 0.00 | 74 | 1011.7 |
| 20260508082946 | 51 | 151 | 6.1 | 10.4 | 0.00 | 0.00 | 0.00 | 74 | 1011.7 |
| 20260508082843 | 51 | 198 | 7.0 | 10.4 | 0.00 | 0.00 | 0.00 | 74 | 1011.7 |
| 20260508082724 | 51 | 210 | 6.1 | 10.4 | 0.00 | 0.00 | 0.00 | 74 | 1011.7 |
| 20260508082641 | 51 | 172 | 7.0 | 10.4 | 0.00 | 0.00 | 0.00 | 74 | 1011.7 |
| 20260508082540 | 51 | 264 | 6.1 | 10.4 | 0.00 | 0.00 | 0.00 | 74 | 1011.7 |
| 20260508082435 | 51 | 137 | 7.0 | 10.4 | 0.00 | 0.00 | 0.00 | 74 | 1011.7 |
| 20260508082334 | 51 | 213 | 6.1 | 10.4 | 0.00 | 0.00 | 0.00 | 74 | 1011.7 |
| 20260508082236 | 51 | 244 | 6.1 | 10.4 | 0.00 | 0.00 | 0.00 | 74 | 1011.7 |
| 20260508082155 | 51 | 196 | 5.2 | 10.4 | 0.00 | 0.00 | 0.00 | 74 | 1011.7 |
| 20260508082034 | 51 | 192 | 6.1 | 10.4 | 0.00 | 0.00 | 0.00 | 74 | 1011.7 |
| 20260508081936 | 51 | 121 | 6.1 | 9.6 | 0.00 | 0.00 | 0.00 | 74 | 1011.7 |
| 20260508081854 | 51 | 150 | 6.1 | 9.6 | 0.00 | 0.00 | 0.00 | 74 | 1011.7 |
| 20260508081743 | 51 | 169 | 7.8 | 9.6 | 0.00 | 0.00 | 0.00 | 75 | 1011.7 |
| 20260508081651 | 51 | 162 | 5.2 | 9.6 | 0.00 | 0.00 | 0.00 | 75 | 1011.7 |
| 20260508081548 | 51 | 257 | 5.2 | 9.6 | 0.00 | 0.00 | 0.00 | 75 | 1011.7 |
| 20260508081424 | 51 | 147 | 4.3 | 9.6 | 0.00 | 0.00 | 0.00 | 75 | 1011.7 |
| 20260508081325 | 51 | 277 | 7.0 | 9.6 | 0.00 | 0.00 | 0.00 | 75 | 1011.7 |
| 20260508081243 | 51 | 299 | 7.0 | 9.6 | 0.00 | 0.00 | 0.00 | 75 | 1011.7 |
| 20260508081141 | 51 | 191 | 7.0 | 9.6 | 0.00 | 0.00 | 0.00 | 75 | 1011.7 |
| 20260508081040 | 51 | 182 | 7.0 | 9.6 | 0.00 | 0.00 | 0.00 | 75 | 1011.7 |
| 20260508080937 | 51 | 277 | 5.2 | 9.6 | 0.00 | 0.00 | 0.00 | 76 | 1011.7 |
| 20260508080834 | 51 | 82 | 4.3 | 9.6 | 0.00 | 0.00 | 0.00 | 76 | 1011.7 |
| 20260508080732 | 51 | 278 | 7.0 | 9.6 | 0.00 | 0.00 | 0.00 | 75 | 1011.7 |
| 20260508080631 | 51 | 275 | 6.1 | 9.6 | 0.00 | 0.00 | 0.00 | 75 | 1011.7 |
| 20260508080535 | 51 | 130 | 5.2 | 9.6 | 0.00 | 0.00 | 0.00 | 75 | 1011.7 |
| 20260508080455 | 51 | 316 | 5.2 | 9.6 | 0.00 | 0.00 | 0.00 | 75 | 1011.7 |
| 20260508080332 | 51 | 138 | 6.1 | 9.6 | 0.00 | 0.00 | 0.00 | 75 | 1011.7 |
| 20260508080250 | 51 | 282 | 6.1 | 9.6 | 0.00 | 0.00 | 0.00 | 75 | 1011.7 |
| 20260508080201 | 51 | 260 | 7.0 | 9.6 | 0.00 | 0.00 | 0.00 | 75 | 1011.7 |
| 20260508080039 | 51 | 222 | 7.0 | 9.6 | 0.00 | 0.00 | 0.00 | 76 | 1011.7 |
| 20260508075937 | 51 | 329 | 5.2 | 9.6 | 0.00 | 0.00 | 0.00 | 76 | 1011.7 |
| 20260508075836 | 51 | 72 | 5.2 | 9.6 | 0.00 | 0.00 | 0.00 | 76 | 1011.8 |
| 20260508075736 | 51 | 251 | 6.1 | 9.6 | 0.00 | 0.00 | 0.00 | 76 | 1011.8 |
| 20260508075635 | 51 | 222 | 7.0 | 9.6 | 0.00 | 0.00 | 0.00 | 75 | 1011.8 |
| 20260508075534 | 52 | 284 | 5.2 | 9.6 | 0.00 | 0.00 | 0.00 | 75 | 1011.8 |
| 20260508075432 | 52 | 240 | 5.2 | 9.6 | 0.00 | 0.00 | 0.00 | 75 | 1011.8 |
| 20260508075330 | 52 | 282 | 6.1 | 9.6 | 0.00 | 0.00 | 0.00 | 75 | 1011.8 |
| 20260508075229 | 52 | 323 | 4.3 | 9.6 | 0.00 | 0.00 | 0.00 | 75 | 1011.8 |
| 20260508075127 | 52 | 309 | 6.1 | 9.6 | 0.00 | 0.00 | 0.00 | 75 | 1011.8 |
| 20260508075030 | 52 | 112 | 5.2 | 9.6 | 0.00 | 0.00 | 0.00 | 75 | 1011.8 |
| 20260508074929 | 52 | 241 | 7.0 | 9.6 | 0.00 | 0.00 | 0.00 | 75 | 1011.8 |
| 20260508074827 | 52 | 329 | 5.2 | 9.6 | 0.00 | 0.00 | 0.00 | 75 | 1011.8 |
| 20260508074727 | 52 | 304 | 3.5 | 8.7 | 0.00 | 0.00 | 0.00 | 75 | 1011.8 |
| 20260508074656 | 52 | 226 | 6.1 | 10.4 | 0.00 | 0.00 | 0.00 | 75 | 1011.8 |
| 20260508074533 | 52 | 318 | 6.1 | 10.4 | 0.00 | 0.00 | 0.00 | 74 | 1011.8 |
| 20260508074452 | 52 | 298 | 5.2 | 10.4 | 0.00 | 0.00 | 0.00 | 74 | 1011.8 |
| 20260508074337 | 52 | 261 | 6.1 | 10.4 | 0.00 | 0.00 | 0.00 | 74 | 1011.7 |
| 20260508074234 | 52 | 280 | 6.1 | 10.4 | 0.00 | 0.00 | 0.00 | 75 | 1011.7 |
| 20260508074152 | 52 | 226 | 5.2 | 10.4 | 0.00 | 0.00 | 0.00 | 75 | 1011.7 |
| 20260508074050 | 52 | 223 | 5.2 | 10.4 | 0.00 | 0.00 | 0.00 | 74 | 1011.7 |
| 20260508073929 | 52 | 330 | 6.1 | 10.4 | 0.00 | 0.00 | 0.00 | 74 | 1011.7 |
| 20260508073847 | 52 | 112 | 7.8 | 10.4 | 0.00 | 0.00 | 0.00 | 74 | 1011.7 |
| 20260508073748 | 52 | 138 | 4.3 | 8.7 | 0.00 | 0.00 | 0.00 | 74 | 1011.7 |
| 20260508073646 | 52 | 237 | 6.1 | 8.7 | 0.00 | 0.00 | 0.00 | 74 | 1011.7 |
| 20260508073524 | 52 | 277 | 6.1 | 8.7 | 0.00 | 0.00 | 0.00 | 74 | 1011.7 |
| 20260508073429 | 52 | 151 | 5.2 | 8.7 | 0.00 | 0.00 | 0.00 | 74 | 1011.7 |
| 20260508073327 | 52 | 270 | 5.2 | 8.7 | 0.00 | 0.00 | 0.00 | 74 | 1011.7 |
| 20260508073226 | 52 | 244 | 6.1 | 8.7 | 0.00 | 0.00 | 0.00 | 74 | 1011.7 |
| 20260508073158 | 52 | 208 | 4.3 | 8.7 | 0.00 | 0.00 | 0.00 | 74 | 1011.7 |
| 20260508073039 | 52 | 323 | 3.5 | 8.7 | 0.00 | 0.00 | 0.00 | 74 | 1011.7 |
| 20260508072937 | 52 | 318 | 4.3 | 8.7 | 0.00 | 0.00 | 0.00 | 74 | 1011.7 |
| 20260508072835 | 52 | 313 | 6.1 | 8.7 | 0.00 | 0.00 | 0.00 | 74 | 1011.7 |
| 20260508072733 | 52 | 130 | 4.3 | 7.0 | 0.00 | 0.00 | 0.00 | 74 | 1011.7 |
| 20260508072656 | 52 | 312 | 6.1 | 7.0 | 0.00 | 0.00 | 0.00 | 74 | 1011.7 |
| 20260508072534 | 52 | 294 | 6.1 | 7.0 | 0.00 | 0.00 | 0.00 | 74 | 1011.7 |
| 20260508072433 | 52 | 220 | 5.2 | 7.8 | 0.00 | 0.00 | 0.00 | 74 | 1011.7 |
| 20260508072331 | 52 | 333 | 4.3 | 9.6 | 0.00 | 0.00 | 0.00 | 74 | 1011.7 |
| 20260508072232 | 52 | 193 | 5.2 | 9.6 | 0.00 | 0.00 | 0.00 | 74 | 1011.7 |
| 20260508072132 | 52 | 253 | 3.5 | 9.6 | 0.00 | 0.00 | 0.00 | 74 | 1011.7 |
| 20260508072030 | 52 | 150 | 5.2 | 9.6 | 0.00 | 0.00 | 0.00 | 73 | 1011.7 |
| 20260508071933 | 52 | 193 | 4.3 | 9.6 | 0.00 | 0.00 | 0.00 | 73 | 1011.7 |
| 20260508071832 | 52 | 268 | 4.3 | 9.6 | 0.00 | 0.00 | 0.00 | 73 | 1011.7 |
| 20260508071730 | 52 | 306 | 4.3 | 9.6 | 0.00 | 0.00 | 0.00 | 73 | 1011.7 |
| 20260508071659 | 52 | 199 | 5.2 | 9.6 | 0.00 | 0.00 | 0.00 | 73 | 1011.7 |
| 20260508071538 | 52 | 309 | 6.1 | 9.6 | 0.00 | 0.00 | 0.00 | 73 | 1011.7 |
| 20260508071436 | 52 | 332 | 6.1 | 9.6 | 0.00 | 0.00 | 0.00 | 73 | 1011.7 |
| 20260508071334 | 52 | 288 | 6.1 | 9.6 | 0.00 | 0.00 | 0.00 | 73 | 1012.1 |
| 20260508071236 | 52 | 198 | 6.1 | 7.0 | 0.00 | 0.00 | 0.00 | 72 | 1012.1 |
| 20260508071135 | 52 | 253 | 5.2 | 7.0 | 0.00 | 0.00 | 0.00 | 73 | 1012.1 |
| 20260508071032 | 52 | 188 | 5.2 | 7.0 | 0.00 | 0.00 | 0.00 | 73 | 1012.1 |
| 20260508070931 | 53 | 260 | 4.3 | 7.0 | 0.00 | 0.00 | 0.00 | 72 | 1012.1 |
| 20260508070849 | 53 | 138 | 4.3 | 8.7 | 0.00 | 0.00 | 0.00 | 72 | 1012.1 |
| 20260508070725 | 53 | 164 | 4.3 | 8.7 | 0.00 | 0.00 | 0.00 | 72 | 1012.1 |
| 20260508070645 | 53 | 196 | 4.3 | 8.7 | 0.00 | 0.00 | 0.00 | 72 | 1012.1 |
| 20260508070604 | 53 | 330 | 5.2 | 8.7 | 0.00 | 0.00 | 0.00 | 72 | 1012.1 |
| 20260508070424 | 53 | 328 | 6.1 | 8.7 | 0.00 | 0.00 | 0.00 | 72 | 1012.1 |
| 20260508070342 | 53 | 280 | 6.1 | 8.7 | 0.00 | 0.00 | 0.00 | 72 | 1012.1 |
| 20260508070259 | 53 | 271 | 6.1 | 8.7 | 0.00 | 0.00 | 0.00 | 72 | 1012.1 |
| 20260508070208 | 53 | 298 | 6.1 | 8.7 | 0.00 | 0.00 | 0.00 | 72 | 1012.1 |
| 20260508070024 | 53 | 289 | 7.0 | 8.7 | 0.00 | 0.00 | 0.00 | 72 | 1012.1 |
| 20260508065924 | 53 | 325 | 5.2 | 8.7 | 0.00 | 0.00 | 0.00 | 72 | 1012.1 |
| 20260508065824 | 53 | 332 | 6.1 | 8.7 | 0.00 | 0.00 | 0.00 | 71 | 1012.1 |
| 20260508065743 | 53 | 164 | 6.1 | 9.6 | 0.00 | 0.00 | 0.00 | 71 | 1012.1 |
| 20260508065641 | 53 | 332 | 6.1 | 9.6 | 0.00 | 0.00 | 0.00 | 71 | 1012.1 |
| 20260508065559 | 53 | 332 | 5.2 | 9.6 | 0.00 | 0.00 | 0.00 | 71 | 1012.1 |
| 20260508065441 | 53 | 298 | 6.1 | 9.6 | 0.00 | 0.00 | 0.00 | 71 | 1012.1 |
| 20260508065340 | 53 | 260 | 6.1 | 9.6 | 0.00 | 0.00 | 0.00 | 71 | 1012.1 |
| 20260508065240 | 53 | 277 | 5.2 | 9.6 | 0.00 | 0.00 | 0.00 | 71 | 1012.1 |
| 20260508065140 | 53 | 113 | 5.2 | 9.6 | 0.00 | 0.00 | 0.00 | 71 | 1012.1 |
| 20260508065039 | 53 | 329 | 6.1 | 9.6 | 0.00 | 0.00 | 0.00 | 70 | 1012.1 |
| 20260508064937 | 53 | 313 | 4.3 | 9.6 | 0.00 | 0.00 | 0.00 | 71 | 1012.1 |
| 20260508064840 | 53 | 120 | 7.0 | 9.6 | 0.00 | 0.00 | 0.00 | 70 | 1012.1 |
| 20260508064739 | 53 | 254 | 5.2 | 8.7 | 0.00 | 0.00 | 0.00 | 70 | 1012.1 |
| 20260508064648 | 53 | 203 | 6.1 | 8.7 | 0.00 | 0.00 | 0.00 | 70 | 1012.1 |
| 20260508064526 | 53 | 272 | 4.3 | 8.7 | 0.00 | 0.00 | 0.00 | 71 | 1012.1 |
| 20260508064443 | 53 | 88 | 4.3 | 8.7 | 0.00 | 0.00 | 0.00 | 70 | 1012.1 |
| 20260508064342 | 53 | 319 | 6.1 | 8.7 | 0.00 | 0.00 | 0.00 | 71 | 1012.4 |
| 20260508064301 | 53 | 76 | 5.2 | 8.7 | 0.00 | 0.00 | 0.00 | 71 | 1012.4 |
| 20260508064139 | 53 | 176 | 5.2 | 8.7 | 0.00 | 0.00 | 0.00 | 70 | 1012.4 |
| 20260508064041 | 53 | 257 | 4.3 | 8.7 | 0.00 | 0.00 | 0.00 | 70 | 1012.4 |
| 20260508063940 | 53 | 265 | 5.2 | 8.7 | 0.00 | 0.00 | 0.00 | 70 | 1012.4 |
| 20260508063838 | 53 | 186 | 5.2 | 8.7 | 0.00 | 0.00 | 0.00 | 69 | 1012.4 |
| 20260508063737 | 53 | 280 | 5.2 | 8.7 | 0.00 | 0.00 | 0.00 | 69 | 1012.4 |
| 20260508063636 | 53 | 162 | 6.1 | 8.7 | 0.00 | 0.00 | 0.00 | 69 | 1012.4 |
| 20260508063537 | 53 | 137 | 6.1 | 8.7 | 0.00 | 0.00 | 0.00 | 69 | 1012.4 |
| 20260508063436 | 53 | 40 | 5.2 | 8.7 | 0.00 | 0.00 | 0.00 | 69 | 1012.4 |
| 20260508063339 | 53 | 182 | 5.2 | 8.7 | 0.00 | 0.00 | 0.00 | 69 | 1012.4 |
| 20260508063257 | 53 | 143 | 6.1 | 8.7 | 0.00 | 0.00 | 0.00 | 69 | 1012.4 |
| 20260508063208 | 53 | 332 | 7.0 | 8.7 | 0.00 | 0.00 | 0.00 | 68 | 1012.4 |
| 20260508063045 | 53 | 332 | 5.2 | 8.7 | 0.00 | 0.00 | 0.00 | 68 | 1012.4 |
| 20260508062942 | 53 | 161 | 4.3 | 8.7 | 0.00 | 0.00 | 0.00 | 68 | 1012.4 |
| 20260508062840 | 53 | 285 | 3.5 | 8.7 | 0.00 | 0.00 | 0.00 | 68 | 1012.4 |
| 20260508062738 | 53 | 234 | 6.1 | 8.7 | 0.00 | 0.00 | 0.00 | 68 | 1012.4 |
| 20260508062636 | 53 | 206 | 5.2 | 8.7 | 0.00 | 0.00 | 0.00 | 68 | 1012.4 |
| 20260508062534 | 53 | 208 | 5.2 | 8.7 | 0.00 | 0.00 | 0.00 | 68 | 1012.4 |
| 20260508062436 | 53 | 230 | 5.2 | 9.6 | 0.00 | 0.00 | 0.00 | 68 | 1012.4 |
| 20260508062339 | 53 | 264 | 5.2 | 9.6 | 0.00 | 0.00 | 0.00 | 68 | 1012.4 |
| 20260508062237 | 53 | 236 | 6.1 | 9.6 | 0.00 | 0.00 | 0.00 | 68 | 1012.4 |
| 20260508062135 | 54 | 332 | 5.2 | 9.6 | 0.00 | 0.00 | 0.00 | 68 | 1012.4 |
| 20260508062033 | 54 | 248 | 4.3 | 9.6 | 0.00 | 0.00 | 0.00 | 68 | 1012.4 |
| 20260508061931 | 54 | 323 | 5.2 | 9.6 | 0.00 | 0.00 | 0.00 | 68 | 1012.4 |
| 20260508061849 | 54 | 110 | 4.3 | 9.6 | 0.00 | 0.00 | 0.00 | 68 | 1012.4 |
| 20260508061737 | 54 | 333 | 3.5 | 9.6 | 0.00 | 0.00 | 0.00 | 68 | 1012.4 |
| 20260508061651 | 54 | 71 | 4.3 | 9.6 | 0.00 | 0.00 | 0.00 | 68 | 1012.4 |
| 20260508061528 | 54 | 311 | 6.1 | 9.6 | 0.00 | 0.00 | 0.00 | 68 | 1012.4 |
| 20260508061427 | 54 | 229 | 4.3 | 9.6 | 0.00 | 0.00 | 0.00 | 68 | 1012.4 |
| 20260508061326 | 54 | 315 | 7.0 | 9.6 | 0.00 | 0.00 | 0.00 | 68 | 1012.5 |
| 20260508061244 | 54 | 196 | 6.1 | 9.6 | 0.00 | 0.00 | 0.00 | 69 | 1012.5 |
| 20260508061142 | 54 | 294 | 3.5 | 7.8 | 0.00 | 0.00 | 0.00 | 69 | 1012.5 |
| 20260508061040 | 54 | 332 | 3.5 | 7.8 | 0.00 | 0.00 | 0.00 | 68 | 1012.5 |
| 20260508060942 | 54 | 213 | 5.2 | 7.8 | 0.00 | 0.00 | 0.00 | 68 | 1012.5 |
| 20260508060840 | 54 | 107 | 5.2 | 7.8 | 0.00 | 0.00 | 0.00 | 68 | 1012.5 |
| 20260508060800 | 54 | 161 | 5.2 | 9.6 | 0.00 | 0.00 | 0.00 | 68 | 1012.5 |
| 20260508060640 | 54 | 316 | 5.2 | 9.6 | 0.00 | 0.00 | 0.00 | 68 | 1012.5 |
| 20260508060538 | 54 | 184 | 4.3 | 9.6 | 0.00 | 0.00 | 0.00 | 68 | 1012.5 |
| 20260508060456 | 54 | 258 | 3.5 | 9.6 | 0.00 | 0.00 | 0.00 | 67 | 1012.5 |
| 20260508060334 | 54 | 319 | 6.1 | 9.6 | 0.00 | 0.00 | 0.00 | 67 | 1012.5 |
| 20260508060232 | 54 | 164 | 5.2 | 9.6 | 0.00 | 0.00 | 0.00 | 68 | 1012.5 |
| 20260508060206 | 54 | 172 | 5.2 | 9.6 | 0.00 | 0.00 | 0.00 | 68 | 1012.5 |
| 20260508060103 | 54 | 148 | 5.2 | 9.6 | 0.00 | 0.00 | 0.00 | 68 | 1012.5 |
| 20260508055940 | 54 | 260 | 6.1 | 9.6 | 0.00 | 0.00 | 0.00 | 68 | 1012.5 |
| 20260508055839 | 54 | 330 | 4.3 | 8.7 | 0.00 | 0.00 | 0.00 | 68 | 1012.7 |
| 20260508055737 | 54 | 164 | 5.2 | 8.7 | 0.00 | 0.00 | 0.00 | 68 | 1012.7 |
| 20260508055636 | 54 | 85 | 6.1 | 8.7 | 0.00 | 0.00 | 0.00 | 68 | 1012.7 |
| 20260508055533 | 54 | 322 | 4.3 | 8.7 | 0.00 | 0.00 | 0.00 | 68 | 1012.7 |
| 20260508055436 | 54 | 320 | 5.2 | 8.7 | 0.00 | 0.00 | 0.00 | 68 | 1012.7 |
| 20260508055334 | 54 | 192 | 5.2 | 8.7 | 0.00 | 0.00 | 0.00 | 69 | 1012.7 |
| 20260508055231 | 54 | 113 | 6.1 | 8.7 | 0.00 | 0.00 | 0.00 | 68 | 1012.7 |
| 20260508055130 | 54 | 332 | 4.3 | 8.7 | 0.00 | 0.00 | 0.00 | 68 | 1012.7 |
| 20260508055028 | 54 | 271 | 4.3 | 8.7 | 0.00 | 0.00 | 0.00 | 68 | 1012.7 |
| 20260508054946 | 54 | 315 | 3.5 | 8.7 | 0.00 | 0.00 | 0.00 | 67 | 1012.7 |
| 20260508054904 | 54 | 329 | 2.6 | 8.7 | 0.00 | 0.00 | 0.00 | 66 | 1012.7 |
| 20260508054738 | 54 | 216 | 6.1 | 8.7 | 0.00 | 0.00 | 0.00 | 67 | 1012.7 |
| 20260508054648 | 54 | 237 | 3.5 | 8.7 | 0.00 | 0.00 | 0.00 | 67 | 1012.7 |
| 20260508054525 | 54 | 292 | 4.3 | 8.7 | 0.00 | 0.00 | 0.00 | 67 | 1012.7 |
| 20260508054444 | 54 | 282 | 2.6 | 8.7 | 0.00 | 0.00 | 0.00 | 67 | 1012.7 |
| 20260508054341 | 54 | 200 | 3.5 | 8.7 | 0.00 | 0.00 | 0.00 | 66 | 1012.6 |
| 20260508054240 | 54 | 244 | 5.2 | 8.7 | 0.00 | 0.00 | 0.00 | 66 | 1012.6 |
| 20260508054139 | 54 | 208 | 6.1 | 8.7 | 0.00 | 0.00 | 0.00 | 67 | 1012.6 |
| 20260508054038 | 54 | 325 | 5.2 | 8.7 | 0.00 | 0.00 | 0.00 | 68 | 1012.6 |
| 20260508053940 | 54 | 148 | 4.3 | 8.7 | 0.00 | 0.00 | 0.00 | 67 | 1012.6 |
| 20260508053841 | 54 | 93 | 5.2 | 8.7 | 0.00 | 0.00 | 0.00 | 67 | 1012.6 |
| 20260508053738 | 54 | 282 | 5.2 | 8.7 | 0.00 | 0.00 | 0.00 | 67 | 1012.6 |
| 20260508053637 | 54 | 121 | 3.5 | 7.0 | 0.00 | 0.00 | 0.00 | 67 | 1012.6 |
| 20260508053535 | 54 | 210 | 4.3 | 7.0 | 0.00 | 0.00 | 0.00 | 67 | 1012.6 |
| 20260508053433 | 54 | 282 | 5.2 | 7.0 | 0.00 | 0.00 | 0.00 | 68 | 1012.6 |
| 20260508053336 | 54 | 216 | 4.3 | 7.0 | 0.00 | 0.00 | 0.00 | 67 | 1012.6 |
| 20260508053256 | 54 | 308 | 2.6 | 7.0 | 0.00 | 0.00 | 0.00 | 66 | 1012.6 |
| 20260508053227 | 54 | 104 | 3.5 | 7.0 | 0.00 | 0.00 | 0.00 | 65 | 1012.6 |
| 20260508053042 | 55 | 320 | 3.5 | 7.0 | 0.00 | 0.00 | 0.00 | 65 | 1012.6 |
| 20260508053001 | 55 | 308 | 2.6 | 7.0 | 0.00 | 0.00 | 0.00 | 65 | 1012.6 |
| 20260508052838 | 55 | 281 | 3.5 | 7.0 | 0.00 | 0.00 | 0.00 | 66 | 1012.6 |
| 20260508052736 | 55 | 224 | 3.5 | 7.0 | 0.00 | 0.00 | 0.00 | 66 | 1012.6 |
| 20260508052635 | 55 | 209 | 4.3 | 7.0 | 0.00 | 0.00 | 0.00 | 65 | 1012.6 |
| 20260508052534 | 55 | 140 | 4.3 | 7.0 | 0.00 | 0.00 | 0.00 | 65 | 1012.6 |
| 20260508052457 | 55 | 244 | 2.6 | 7.0 | 0.00 | 0.00 | 0.00 | 65 | 1012.6 |
| 20260508052334 | 55 | 330 | 3.5 | 7.0 | 0.00 | 0.00 | 0.00 | 65 | 1012.6 |
| 20260508052232 | 55 | 313 | 4.3 | 7.0 | 0.00 | 0.00 | 0.00 | 65 | 1012.6 |
| 20260508052130 | 55 | 76 | 6.1 | 7.0 | 0.00 | 0.00 | 0.00 | 65 | 1012.6 |
| 20260508052029 | 55 | 175 | 5.2 | 7.0 | 0.00 | 0.00 | 0.00 | 66 | 1012.6 |
| 20260508051929 | 55 | 329 | 4.3 | 7.0 | 0.00 | 0.00 | 0.00 | 65 | 1012.6 |
| 20260508051827 | 55 | 79 | 3.5 | 7.0 | 0.00 | 0.00 | 0.00 | 64 | 1012.6 |
| 20260508051741 | 55 | 195 | 5.2 | 7.0 | 0.00 | 0.00 | 0.00 | 64 | 1012.6 |
| 20260508051651 | 55 | 210 | 5.2 | 7.0 | 0.00 | 0.00 | 0.00 | 64 | 1012.6 |
| 20260508051529 | 55 | 76 | 5.2 | 7.0 | 0.00 | 0.00 | 0.00 | 65 | 1012.6 |
| 20260508051426 | 55 | 124 | 5.2 | 7.0 | 0.00 | 0.00 | 0.00 | 65 | 1012.6 |
| 20260508051344 | 55 | 329 | 2.6 | 6.1 | 0.00 | 0.00 | 0.00 | 65 | 1012.6 |
| 20260508051242 | 55 | 205 | 2.6 | 6.1 | 0.00 | 0.00 | 0.00 | 65 | 1012.6 |
| 20260508051140 | 55 | 274 | 3.5 | 6.1 | 0.00 | 0.00 | 0.00 | 65 | 1012.6 |
| 20260508051040 | 55 | 229 | 2.6 | 6.1 | 0.00 | 0.00 | 0.00 | 65 | 1012.6 |
| 20260508051003 | 55 | 165 | 3.5 | 6.1 | 0.00 | 0.00 | 0.00 | 66 | 1012.6 |
| 20260508050839 | 55 | 291 | 3.5 | 6.1 | 0.00 | 0.00 | 0.00 | 68 | 1012.6 |
| 20260508050759 | 55 | 323 | 3.5 | 6.1 | 0.00 | 0.00 | 0.00 | 68 | 1012.6 |
| 20260508050636 | 55 | 295 | 4.3 | 6.1 | 0.00 | 0.00 | 0.00 | 68 | 1012.6 |
| 20260508050533 | 55 | 212 | 1.7 | 5.2 | 0.00 | 0.00 | 0.00 | 67 | 1012.6 |
| 20260508050432 | 55 | 330 | 0.9 | 5.2 | 0.00 | 0.00 | 0.00 | 66 | 1012.6 |
| 20260508050350 | 55 | 333 | 1.7 | 5.2 | 0.00 | 0.00 | 0.00 | 66 | 1012.6 |
| 20260508050248 | 55 | 233 | 2.6 | 5.2 | 0.00 | 0.00 | 0.00 | 65 | 1012.6 |
| 20260508050156 | 55 | 329 | 1.7 | 5.2 | 0.00 | 0.00 | 0.00 | 65 | 1012.6 |
| 20260508050038 | 55 | 260 | 1.7 | 5.2 | 0.00 | 0.00 | 0.00 | 66 | 1012.6 |
| 20260508045935 | 55 | 137 | 2.6 | 6.1 | 0.00 | 0.00 | 0.00 | 67 | 1012.6 |
| 20260508045834 | 55 | 329 | 2.6 | 6.1 | 0.00 | 0.00 | 0.00 | 66 | 1012.4 |
| 20260508045755 | 55 | 330 | 3.5 | 6.1 | 0.00 | 0.00 | 0.00 | 65 | 1012.4 |
| 20260508045632 | 55 | 332 | 3.5 | 6.1 | 0.00 | 0.00 | 0.00 | 65 | 1012.4 |
| 20260508045531 | 55 | 332 | 3.5 | 6.1 | 0.00 | 0.00 | 0.00 | 66 | 1012.4 |
| 20260508045431 | 55 | 332 | 3.5 | 7.0 | 0.00 | 0.00 | 0.00 | 66 | 1012.4 |
| 20260508045337 | 55 | 332 | 2.6 | 7.0 | 0.00 | 0.00 | 0.00 | 66 | 1012.4 |
| 20260508045235 | 55 | 330 | 4.3 | 7.0 | 0.00 | 0.00 | 0.00 | 67 | 1012.4 |
| 20260508045133 | 55 | 220 | 3.5 | 7.0 | 0.00 | 0.00 | 0.00 | 67 | 1012.4 |
| 20260508045032 | 55 | 215 | 1.7 | 7.0 | 0.00 | 0.00 | 0.00 | 66 | 1012.4 |
| 20260508044932 | 55 | 240 | 1.7 | 7.0 | 0.00 | 0.00 | 0.00 | 66 | 1012.4 |
| 20260508044829 | 55 | 330 | 2.6 | 7.0 | 0.00 | 0.00 | 0.00 | 66 | 1012.4 |
| 20260508044749 | 55 | 329 | 2.6 | 7.0 | 0.00 | 0.00 | 0.00 | 66 | 1012.4 |
| 20260508044658 | 56 | 332 | 2.6 | 7.0 | 0.00 | 0.00 | 0.00 | 66 | 1012.4 |
| 20260508044540 | 56 | 330 | 0.9 | 5.2 | 0.00 | 0.00 | 0.00 | 65 | 1012.4 |
| 20260508044440 | 56 | 332 | 1.7 | 6.1 | 0.00 | 0.00 | 0.00 | 66 | 1012.4 |
| 20260508044337 | 56 | 333 | 2.6 | 6.1 | 0.00 | 0.00 | 0.00 | 66 | 1012.3 |
| 20260508044236 | 56 | 332 | 4.3 | 6.1 | 0.00 | 0.00 | 0.00 | 65 | 1012.3 |
| 20260508044135 | 56 | 277 | 4.3 | 6.1 | 0.00 | 0.00 | 0.00 | 65 | 1012.3 |
| 20260508044053 | 56 | 244 | 1.7 | 6.1 | 0.00 | 0.00 | 0.00 | 65 | 1012.3 |
| 20260508043931 | 56 | 333 | 0.9 | 6.1 | 0.00 | 0.00 | 0.00 | 64 | 1012.3 |
| 20260508043834 | 56 | 168 | 1.7 | 7.0 | 0.00 | 0.00 | 0.00 | 65 | 1012.3 |
| 20260508043732 | 56 | 330 | 2.6 | 7.0 | 0.00 | 0.00 | 0.00 | 66 | 1012.3 |
| 20260508043650 | 56 | 332 | 2.6 | 7.0 | 0.00 | 0.00 | 0.00 | 65 | 1012.3 |
| 20260508043527 | 56 | 281 | 2.6 | 7.0 | 0.00 | 0.00 | 0.00 | 65 | 1012.3 |
| 20260508043425 | 56 | 224 | 0.9 | 7.0 | 0.00 | 0.00 | 0.00 | 65 | 1012.3 |
| 20260508043326 | 56 | 148 | 3.5 | 7.0 | 0.00 | 0.00 | 0.00 | 65 | 1012.3 |
| 20260508043226 | 56 | 332 | 4.3 | 7.0 | 0.00 | 0.00 | 0.00 | 65 | 1012.3 |
| 20260508043200 | 56 | 229 | 1.7 | 7.0 | 0.00 | 0.00 | 0.00 | 65 | 1012.3 |
| 20260508043036 | 56 | 333 | 1.7 | 7.0 | 0.00 | 0.00 | 0.00 | 66 | 1012.3 |
| 20260508042935 | 56 | 226 | 5.2 | 7.0 | 0.00 | 0.00 | 0.00 | 66 | 1012.3 |
| 20260508042834 | 56 | 240 | 1.7 | 7.0 | 0.00 | 0.00 | 0.00 | 65 | 1012.5 |
| 20260508042733 | 56 | 284 | 4.3 | 7.0 | 0.00 | 0.00 | 0.00 | 65 | 1012.5 |
| 20260508042632 | 56 | 241 | 2.6 | 5.2 | 0.00 | 0.00 | 0.00 | 65 | 1012.5 |
| 20260508042530 | 56 | 291 | 2.6 | 5.2 | 0.00 | 0.00 | 0.00 | 65 | 1012.5 |
| 20260508042432 | 56 | 332 | 2.6 | 5.2 | 0.00 | 0.00 | 0.00 | 65 | 1012.5 |
| 20260508042330 | 56 | 213 | 1.7 | 5.2 | 0.00 | 0.00 | 0.00 | 65 | 1012.5 |
| 20260508042249 | 56 | 328 | 1.7 | 5.2 | 0.00 | 0.00 | 0.00 | 64 | 1012.5 |
| 20260508042129 | 56 | 333 | 2.6 | 5.2 | 0.00 | 0.00 | 0.00 | 64 | 1012.5 |
| 20260508042027 | 56 | 332 | 3.5 | 5.2 | 0.00 | 0.00 | 0.00 | 63 | 1012.5 |
| 20260508041926 | 56 | 326 | 1.7 | 7.0 | 0.00 | 0.00 | 0.00 | 64 | 1012.5 |
| 20260508041826 | 56 | 236 | 4.3 | 7.0 | 0.00 | 0.00 | 0.00 | 64 | 1012.5 |
| 20260508041757 | 56 | 131 | 2.6 | 7.0 | 0.00 | 0.00 | 0.00 | 65 | 1012.5 |
| 20260508041649 | 56 | 333 | 1.7 | 7.0 | 0.00 | 0.00 | 0.00 | 65 | 1012.5 |
| 20260508041527 | 56 | 202 | 2.6 | 7.0 | 0.00 | 0.00 | 0.00 | 64 | 1012.5 |
| 20260508041425 | 56 | 210 | 3.5 | 7.0 | 0.00 | 0.00 | 0.00 | 65 | 1012.5 |
| 20260508041343 | 56 | 188 | 2.6 | 7.0 | 0.00 | 0.00 | 0.00 | 64 | 1012.7 |
| 20260508041243 | 56 | 296 | 2.6 | 7.0 | 0.00 | 0.00 | 0.00 | 64 | 1012.7 |
| 20260508041142 | 57 | 237 | 4.3 | 7.0 | 0.00 | 0.00 | 0.00 | 63 | 1012.7 |
| 20260508041041 | 57 | 332 | 3.5 | 7.0 | 0.00 | 0.00 | 0.00 | 64 | 1012.7 |
| 20260508040924 | 57 | 316 | 1.7 | 6.1 | 0.00 | 0.00 | 0.00 | 64 | 1012.7 |
| 20260508040843 | 57 | 294 | 0.9 | 7.0 | 0.00 | 0.00 | 0.00 | 65 | 1012.7 |
| 20260508040741 | 57 | 127 | 0.9 | 7.0 | 0.00 | 0.00 | 0.00 | 65 | 1012.7 |
| 20260508040640 | 57 | 288 | 2.6 | 7.0 | 0.00 | 0.00 | 0.00 | 64 | 1012.7 |
| 20260508040539 | 57 | 226 | 1.7 | 7.0 | 0.00 | 0.00 | 0.00 | 63 | 1012.7 |
| 20260508040438 | 57 | 212 | 1.7 | 7.0 | 0.00 | 0.00 | 0.00 | 63 | 1012.7 |
| 20260508040336 | 57 | 272 | 2.6 | 7.0 | 0.00 | 0.00 | 0.00 | 63 | 1012.7 |
| 20260508040242 | 57 | 328 | 2.6 | 7.0 | 0.00 | 0.00 | 0.00 | 63 | 1012.7 |
| 20260508040212 | 57 | 150 | 1.7 | 7.0 | 0.00 | 0.00 | 0.00 | 63 | 1012.7 |
| 20260508040028 | 57 | 27 | 5.2 | 7.0 | 0.00 | 0.00 | 0.00 | 63 | 1012.7 |
| 20260508035927 | 57 | 88 | 2.6 | 6.1 | 0.00 | 0.00 | 0.00 | 63 | 1012.7 |
| 20260508035845 | 57 | 332 | 3.5 | 6.1 | 0.00 | 0.00 | 0.00 | 62 | 1012.6 |
| 20260508035742 | 57 | 323 | 2.6 | 6.1 | 0.00 | 0.00 | 0.00 | 62 | 1012.6 |
| 20260508035642 | 57 | 76 | 1.7 | 6.1 | 0.00 | 0.00 | 0.00 | 62 | 1012.6 |
| 20260508035541 | 57 | 104 | 2.6 | 6.1 | 0.00 | 0.00 | 0.00 | 62 | 1012.6 |
| 20260508035459 | 57 | 313 | 4.3 | 6.1 | 0.00 | 0.00 | 0.00 | 63 | 1012.6 |
| 20260508035341 | 57 | 112 | 2.6 | 6.1 | 0.00 | 0.00 | 0.00 | 63 | 1012.6 |
| 20260508035240 | 57 | 325 | 2.6 | 6.1 | 0.00 | 0.00 | 0.00 | 62 | 1012.6 |
| 20260508035138 | 57 | 330 | 3.5 | 6.1 | 0.00 | 0.00 | 0.00 | 63 | 1012.6 |
| 20260508035036 | 57 | 203 | 3.5 | 5.2 | 0.00 | 0.00 | 0.00 | 63 | 1012.6 |
| 20260508034935 | 57 | 200 | 3.5 | 5.2 | 0.00 | 0.00 | 0.00 | 62 | 1012.6 |
| 20260508034853 | 57 | 309 | 3.5 | 5.2 | 0.00 | 0.00 | 0.00 | 62 | 1012.6 |
| 20260508034740 | 57 | 318 | 2.6 | 5.2 | 0.00 | 0.00 | 0.00 | 62 | 1012.6 |
| 20260508034653 | 57 | 330 | 1.7 | 5.2 | 0.00 | 0.00 | 0.00 | 61 | 1012.6 |
| 20260508034532 | 57 | 326 | 1.7 | 5.2 | 0.00 | 0.00 | 0.00 | 61 | 1012.6 |
| 20260508034430 | 57 | 275 | 4.3 | 5.2 | 0.00 | 0.00 | 0.00 | 61 | 1012.6 |
| 20260508034348 | 57 | 322 | 3.5 | 5.2 | 0.00 | 0.00 | 0.00 | 62 | 1012.7 |
| 20260508034307 | 57 | 251 | 3.5 | 5.2 | 0.00 | 0.00 | 0.00 | 62 | 1012.7 |
| 20260508034204 | 57 | 332 | 3.5 | 6.1 | 0.00 | 0.00 | 0.00 | 61 | 1012.7 |
| 20260508034102 | 57 | 333 | 3.5 | 6.1 | 0.00 | 0.00 | 0.00 | 61 | 1012.7 |
| 20260508033940 | 57 | 350 | 3.5 | 6.1 | 0.00 | 0.00 | 0.00 | 61 | 1012.7 |
| 20260508033839 | 57 | 330 | 4.3 | 6.1 | 0.00 | 0.00 | 0.00 | 61 | 1012.7 |
| 20260508033741 | 57 | 359 | 2.6 | 6.1 | 0.00 | 0.00 | 0.00 | 61 | 1012.7 |
| 20260508033700 | 57 | 333 | 2.6 | 6.1 | 0.00 | 0.00 | 0.00 | 63 | 1012.7 |
| 20260508033536 | 57 | 332 | 3.5 | 6.1 | 0.00 | 0.00 | 0.00 | 62 | 1012.7 |
| 20260508033435 | 57 | 339 | 2.6 | 6.1 | 0.00 | 0.00 | 0.00 | 62 | 1012.7 |
| 20260508033334 | 57 | 360 | 4.3 | 7.0 | 0.00 | 0.00 | 0.00 | 62 | 1012.7 |
| 20260508033252 | 57 | 113 | 3.5 | 7.0 | 0.00 | 0.00 | 0.00 | 62 | 1012.7 |
| 20260508033223 | 57 | 330 | 2.6 | 7.0 | 0.00 | 0.00 | 0.00 | 61 | 1012.7 |
| 20260508033039 | 57 | 360 | 3.5 | 7.0 | 0.00 | 0.00 | 0.00 | 60 | 1012.7 |
| 20260508032941 | 57 | 332 | 2.6 | 7.0 | 0.00 | 0.00 | 0.00 | 60 | 1012.7 |
| 20260508032840 | 58 | 359 | 2.6 | 7.0 | 0.00 | 0.00 | 0.00 | 59 | 1012.5 |
| 20260508032759 | 58 | 342 | 2.6 | 7.0 | 0.00 | 0.00 | 0.00 | 61 | 1012.5 |
| 20260508032637 | 58 | 333 | 4.3 | 7.0 | 0.00 | 0.00 | 0.00 | 59 | 1012.5 |
| 20260508032535 | 58 | 330 | 4.3 | 7.0 | 0.00 | 0.00 | 0.00 | 59 | 1012.5 |
| 20260508032434 | 58 | 346 | 4.3 | 7.0 | 0.00 | 0.00 | 0.00 | 59 | 1012.5 |
| 20260508032332 | 58 | 333 | 4.3 | 7.0 | 0.00 | 0.00 | 0.00 | 59 | 1012.5 |
| 20260508032234 | 58 | 332 | 4.3 | 7.0 | 0.00 | 0.00 | 0.00 | 59 | 1012.5 |
| 20260508032132 | 58 | 333 | 5.2 | 7.0 | 0.00 | 0.00 | 0.00 | 58 | 1012.5 |
| 20260508032030 | 58 | 349 | 5.2 | 7.0 | 0.00 | 0.00 | 0.00 | 58 | 1012.5 |
| 20260508031929 | 58 | 332 | 4.3 | 7.0 | 0.00 | 0.00 | 0.00 | 59 | 1012.5 |
| 20260508031827 | 58 | 352 | 6.1 | 7.0 | 0.00 | 0.00 | 0.00 | 59 | 1012.5 |
| 20260508031736 | 58 | 329 | 2.6 | 7.0 | 0.00 | 0.00 | 0.00 | 60 | 1012.5 |
| 20260508031645 | 58 | 306 | 5.2 | 7.8 | 0.00 | 0.00 | 0.00 | 59 | 1012.5 |
| 20260508031526 | 58 | 332 | 3.5 | 8.7 | 0.00 | 0.00 | 0.00 | 59 | 1012.5 |
| 20260508031425 | 58 | 328 | 5.2 | 8.7 | 0.00 | 0.00 | 0.00 | 57 | 1012.5 |
| 20260508031344 | 58 | 335 | 4.3 | 8.7 | 0.00 | 0.00 | 0.00 | 57 | 1012.7 |
| 20260508031242 | 58 | 330 | 5.2 | 8.7 | 0.00 | 0.00 | 0.00 | 57 | 1012.7 |
| 20260508031142 | 58 | 350 | 2.6 | 8.7 | 0.00 | 0.00 | 0.00 | 59 | 1012.7 |
| 20260508031041 | 58 | 332 | 4.3 | 8.7 | 0.00 | 0.00 | 0.00 | 59 | 1012.7 |
| 20260508030940 | 58 | 332 | 5.2 | 8.7 | 0.00 | 0.00 | 0.00 | 60 | 1012.7 |
| 20260508030841 | 58 | 332 | 5.2 | 8.7 | 0.00 | 0.00 | 0.00 | 59 | 1012.7 |
| 20260508030740 | 58 | 346 | 4.3 | 8.7 | 0.00 | 0.00 | 0.00 | 58 | 1012.7 |
| 20260508030639 | 58 | 323 | 5.2 | 8.7 | 0.00 | 0.00 | 0.00 | 59 | 1012.7 |
| 20260508030536 | 58 | 335 | 4.3 | 8.7 | 0.00 | 0.00 | 0.00 | 59 | 1012.7 |
| 20260508030434 | 58 | 328 | 4.3 | 8.7 | 0.00 | 0.00 | 0.00 | 59 | 1012.7 |
| 20260508030332 | 58 | 329 | 4.3 | 8.7 | 0.00 | 0.00 | 0.00 | 58 | 1012.7 |
| 20260508030231 | 58 | 330 | 3.5 | 8.7 | 0.00 | 0.00 | 0.00 | 57 | 1012.7 |
| 20260508030206 | 58 | 330 | 4.3 | 8.7 | 0.00 | 0.00 | 0.00 | 57 | 1012.7 |
| 20260508030103 | 58 | 330 | 5.2 | 8.7 | 0.00 | 0.00 | 0.00 | 58 | 1012.7 |
| 20260508025941 | 58 | 330 | 5.2 | 7.8 | 0.00 | 0.00 | 0.00 | 58 | 1012.7 |
| 20260508025839 | 58 | 330 | 5.2 | 7.8 | 0.00 | 0.00 | 0.00 | 57 | 1012.5 |
| 20260508025738 | 58 | 360 | 5.2 | 7.8 | 0.00 | 0.00 | 0.00 | 57 | 1012.5 |
| 20260508025636 | 58 | 347 | 3.5 | 7.8 | 0.00 | 0.00 | 0.00 | 56 | 1012.5 |
| 20260508025535 | 58 | 319 | 4.3 | 7.8 | 0.00 | 0.00 | 0.00 | 57 | 1012.5 |
| 20260508025455 | 58 | 330 | 5.2 | 7.8 | 0.00 | 0.00 | 0.00 | 57 | 1012.5 |
| 20260508025337 | 58 | 330 | 6.1 | 7.8 | 0.00 | 0.00 | 0.00 | 58 | 1012.5 |
| 20260508025236 | 58 | 340 | 4.3 | 7.8 | 0.00 | 0.00 | 0.00 | 58 | 1012.5 |
| 20260508025134 | 58 | 329 | 4.3 | 8.7 | 0.00 | 0.00 | 0.00 | 57 | 1012.5 |
| 20260508025033 | 58 | 343 | 3.5 | 8.7 | 0.00 | 0.00 | 0.00 | 58 | 1012.5 |
| 20260508024931 | 58 | 330 | 5.2 | 8.7 | 0.00 | 0.00 | 0.00 | 57 | 1012.5 |
| 20260508024827 | 58 | 352 | 3.5 | 8.7 | 0.00 | 0.00 | 0.00 | 56 | 1012.5 |
| 20260508024726 | 58 | 339 | 4.3 | 8.7 | 0.00 | 0.00 | 0.00 | 56 | 1012.5 |
| 20260508024657 | 58 | 342 | 5.2 | 8.7 | 0.00 | 0.00 | 0.00 | 56 | 1012.5 |
| 20260508024559 | 58 | 332 | 4.3 | 8.7 | 0.00 | 0.00 | 0.00 | 57 | 1012.5 |
| 20260508024436 | 58 | 329 | 4.3 | 8.7 | 0.00 | 0.00 | 0.00 | 57 | 1012.5 |
| 20260508024334 | 58 | 329 | 6.1 | 8.7 | 0.00 | 0.00 | 0.00 | 56 | 1012.5 |
| 20260508024235 | 58 | 326 | 3.5 | 7.0 | 0.00 | 0.00 | 0.00 | 57 | 1012.5 |
| 20260508024132 | 58 | 330 | 5.2 | 7.0 | 0.00 | 0.00 | 0.00 | 59 | 1012.5 |
| 20260508024030 | 58 | 346 | 5.2 | 7.0 | 0.00 | 0.00 | 0.00 | 58 | 1012.5 |
| 20260508023929 | 58 | 332 | 4.3 | 7.0 | 0.00 | 0.00 | 0.00 | 57 | 1012.5 |
| 20260508023852 | 58 | 342 | 4.3 | 7.0 | 0.00 | 0.00 | 0.00 | 56 | 1012.5 |
| 20260508023729 | 58 | 330 | 4.3 | 7.0 | 0.00 | 0.00 | 0.00 | 58 | 1012.5 |
| 20260508023627 | 58 | 336 | 3.5 | 7.0 | 0.00 | 0.00 | 0.00 | 57 | 1012.5 |
| 20260508023526 | 58 | 333 | 5.2 | 7.0 | 0.00 | 0.00 | 0.00 | 57 | 1012.5 |
| 20260508023426 | 58 | 330 | 4.3 | 7.0 | 0.00 | 0.00 | 0.00 | 57 | 1012.5 |
| 20260508023324 | 58 | 332 | 4.3 | 7.0 | 0.00 | 0.00 | 0.00 | 57 | 1012.5 |
| 20260508023243 | 58 | 93 | 4.3 | 7.0 | 0.00 | 0.00 | 0.00 | 57 | 1012.5 |
| 20260508023158 | 58 | 336 | 3.5 | 7.0 | 0.00 | 0.00 | 0.00 | 57 | 1012.5 |
| 20260508023055 | 58 | 329 | 4.3 | 7.0 | 0.00 | 0.00 | 0.00 | 57 | 1012.5 |
| 20260508022932 | 58 | 85 | 4.3 | 7.0 | 0.00 | 0.00 | 0.00 | 58 | 1012.5 |
| 20260508022830 | 58 | 282 | 5.2 | 7.0 | 0.00 | 0.00 | 0.00 | 59 | 1012.3 |
| 20260508022749 | 58 | 332 | 2.6 | 7.0 | 0.00 | 0.00 | 0.00 | 59 | 1012.3 |
| 20260508022628 | 58 | 336 | 4.3 | 7.0 | 0.00 | 0.00 | 0.00 | 59 | 1012.3 |
| 20260508022526 | 58 | 349 | 5.2 | 7.0 | 0.00 | 0.00 | 0.00 | 58 | 1012.3 |
| 20260508022424 | 58 | 306 | 3.5 | 7.0 | 0.00 | 0.00 | 0.00 | 57 | 1012.3 |
| 20260508022327 | 58 | 102 | 2.6 | 7.0 | 0.00 | 0.00 | 0.00 | 57 | 1012.3 |
| 20260508022226 | 58 | 330 | 6.1 | 7.0 | 0.00 | 0.00 | 0.00 | 56 | 1012.3 |
| 20260508022124 | 58 | 329 | 4.3 | 7.0 | 0.00 | 0.00 | 0.00 | 56 | 1012.3 |
| 20260508022042 | 58 | 329 | 4.3 | 7.0 | 0.00 | 0.00 | 0.00 | 57 | 1012.3 |
| 20260508021941 | 58 | 330 | 3.5 | 7.0 | 0.00 | 0.00 | 0.00 | 57 | 1012.3 |
| 20260508021838 | 58 | 332 | 3.5 | 7.0 | 0.00 | 0.00 | 0.00 | 57 | 1012.3 |
| 20260508021736 | 58 | 332 | 5.2 | 7.0 | 0.00 | 0.00 | 0.00 | 56 | 1012.3 |
| 20260508021644 | 58 | 333 | 4.3 | 7.0 | 0.00 | 0.00 | 0.00 | 56 | 1012.3 |
| 20260508021527 | 58 | 325 | 5.2 | 7.0 | 0.00 | 0.00 | 0.00 | 57 | 1012.3 |
| 20260508021445 | 58 | 326 | 5.2 | 7.0 | 0.00 | 0.00 | 0.00 | 58 | 1012.3 |
| 20260508021342 | 58 | 333 | 4.3 | 7.0 | 0.00 | 0.00 | 0.00 | 57 | 1012.3 |
| 20260508021240 | 58 | 329 | 5.2 | 7.0 | 0.00 | 0.00 | 0.00 | 58 | 1012.3 |
| 20260508021139 | 58 | 333 | 5.2 | 7.0 | 0.00 | 0.00 | 0.00 | 56 | 1012.3 |
| 20260508021038 | 58 | 332 | 2.6 | 7.0 | 0.00 | 0.00 | 0.00 | 58 | 1012.3 |
| 20260508020937 | 58 | 339 | 2.6 | 7.0 | 0.00 | 0.00 | 0.00 | 58 | 1012.3 |
| 20260508020838 | 58 | 330 | 3.5 | 7.0 | 0.00 | 0.00 | 0.00 | 58 | 1012.3 |
| 20260508020736 | 58 | 328 | 4.3 | 7.0 | 0.00 | 0.00 | 0.00 | 57 | 1012.3 |
| 20260508020635 | 58 | 335 | 4.3 | 7.0 | 0.00 | 0.00 | 0.00 | 58 | 1012.3 |
| 20260508020534 | 58 | 326 | 6.1 | 7.0 | 0.00 | 0.00 | 0.00 | 57 | 1012.3 |
| 20260508020453 | 58 | 330 | 4.3 | 6.1 | 0.00 | 0.00 | 0.00 | 56 | 1012.3 |
| 20260508020330 | 58 | 332 | 4.3 | 6.1 | 0.00 | 0.00 | 0.00 | 57 | 1012.3 |
| 20260508020228 | 58 | 339 | 5.2 | 6.1 | 0.00 | 0.00 | 0.00 | 57 | 1012.3 |
| 20260508020158 | 58 | 332 | 5.2 | 6.1 | 0.00 | 0.00 | 0.00 | 57 | 1012.3 |
| 20260508020039 | 58 | 332 | 4.3 | 6.1 | 0.00 | 0.00 | 0.00 | 56 | 1012.3 |
| 20260508015938 | 58 | 344 | 3.5 | 7.0 | 0.00 | 0.00 | 0.00 | 57 | 1012.3 |
| 20260508015837 | 58 | 330 | 4.3 | 7.0 | 0.00 | 0.00 | 0.00 | 59 | 1012.1 |
| 20260508015736 | 58 | 332 | 4.3 | 7.0 | 0.00 | 0.00 | 0.00 | 59 | 1012.1 |
| 20260508015634 | 58 | 333 | 3.5 | 7.0 | 0.00 | 0.00 | 0.00 | 59 | 1012.1 |
| 20260508015532 | 58 | 328 | 3.5 | 7.0 | 0.00 | 0.00 | 0.00 | 59 | 1012.1 |
| 20260508015434 | 58 | 332 | 2.6 | 7.0 | 0.00 | 0.00 | 0.00 | 60 | 1012.1 |
| 20260508015332 | 58 | 323 | 3.5 | 7.0 | 0.00 | 0.00 | 0.00 | 60 | 1012.1 |
| 20260508015229 | 58 | 340 | 3.5 | 7.0 | 0.00 | 0.00 | 0.00 | 59 | 1012.1 |
| 20260508015129 | 58 | 332 | 4.3 | 8.7 | 0.00 | 0.00 | 0.00 | 59 | 1012.1 |
| 20260508015028 | 58 | 330 | 3.5 | 8.7 | 0.00 | 0.00 | 0.00 | 59 | 1012.1 |
| 20260508014927 | 58 | 329 | 2.6 | 8.7 | 0.00 | 0.00 | 0.00 | 59 | 1012.1 |
| 20260508014826 | 58 | 339 | 4.3 | 8.7 | 0.00 | 0.00 | 0.00 | 59 | 1012.1 |
| 20260508014745 | 58 | 332 | 4.3 | 8.7 | 0.00 | 0.00 | 0.00 | 59 | 1012.1 |
| 20260508014718 | 58 | 332 | 4.3 | 8.7 | 0.00 | 0.00 | 0.00 | 59 | 1012.1 |
| 20260508014538 | 58 | 329 | 5.2 | 8.7 | 0.00 | 0.00 | 0.00 | 59 | 1012.1 |
| 20260508014438 | 58 | 347 | 4.3 | 8.7 | 0.00 | 0.00 | 0.00 | 59 | 1012.1 |
| 20260508014358 | 58 | 339 | 4.3 | 8.7 | 0.00 | 0.00 | 0.00 | 60 | 1012.0 |
| 20260508014236 | 58 | 332 | 6.1 | 8.7 | 0.00 | 0.00 | 0.00 | 60 | 1012.0 |
| 20260508014135 | 58 | 332 | 4.3 | 7.0 | 0.00 | 0.00 | 0.00 | 61 | 1012.0 |
| 20260508014033 | 58 | 332 | 4.3 | 7.0 | 0.00 | 0.00 | 0.00 | 60 | 1012.0 |
| 20260508013935 | 58 | 329 | 2.6 | 7.0 | 0.00 | 0.00 | 0.00 | 60 | 1012.0 |
| 20260508013833 | 58 | 336 | 4.3 | 7.0 | 0.00 | 0.00 | 0.00 | 60 | 1012.0 |
| 20260508013732 | 58 | 335 | 5.2 | 7.8 | 0.00 | 0.00 | 0.00 | 59 | 1012.0 |
| 20260508013629 | 58 | 332 | 5.2 | 7.8 | 0.00 | 0.00 | 0.00 | 60 | 1012.0 |
| 20260508013528 | 58 | 344 | 5.2 | 7.8 | 0.00 | 0.00 | 0.00 | 60 | 1012.0 |
| 20260508013427 | 58 | 339 | 5.2 | 7.8 | 0.00 | 0.00 | 0.00 | 61 | 1012.0 |
| 20260508013325 | 58 | 332 | 3.5 | 7.8 | 0.00 | 0.00 | 0.00 | 62 | 1012.0 |
| 20260508013227 | 58 | 329 | 5.2 | 7.8 | 0.00 | 0.00 | 0.00 | 61 | 1012.0 |
| 20260508013158 | 58 | 339 | 3.5 | 7.8 | 0.00 | 0.00 | 0.00 | 61 | 1012.0 |
| 20260508013035 | 58 | 339 | 5.2 | 7.8 | 0.00 | 0.00 | 0.00 | 62 | 1012.0 |
| 20260508012934 | 58 | 332 | 4.3 | 7.8 | 0.00 | 0.00 | 0.00 | 62 | 1012.0 |
| 20260508012831 | 58 | 333 | 3.5 | 8.7 | 0.00 | 0.00 | 0.00 | 62 | 1011.8 |
| 20260508012734 | 58 | 339 | 4.3 | 8.7 | 0.00 | 0.00 | 0.00 | 61 | 1011.8 |
| 20260508012632 | 58 | 330 | 3.5 | 8.7 | 0.00 | 0.00 | 0.00 | 61 | 1011.8 |
| 20260508012535 | 58 | 333 | 3.5 | 8.7 | 0.00 | 0.00 | 0.00 | 61 | 1011.8 |
| 20260508012434 | 58 | 326 | 4.3 | 8.7 | 0.00 | 0.00 | 0.00 | 60 | 1011.8 |
| 20260508012332 | 58 | 339 | 4.3 | 8.7 | 0.00 | 0.00 | 0.00 | 60 | 1011.8 |
| 20260508012232 | 58 | 330 | 4.3 | 8.7 | 0.00 | 0.00 | 0.00 | 60 | 1011.8 |
| 20260508012128 | 58 | 329 | 1.7 | 8.7 | 0.00 | 0.00 | 0.00 | 59 | 1011.8 |
| 20260508012027 | 58 | 344 | 5.2 | 8.7 | 0.00 | 0.00 | 0.00 | 60 | 1011.8 |
| 20260508011927 | 58 | 340 | 3.5 | 7.0 | 0.00 | 0.00 | 0.00 | 60 | 1011.8 |
| 20260508011831 | 58 | 328 | 5.2 | 7.0 | 0.00 | 0.00 | 0.00 | 60 | 1011.8 |
| 20260508011749 | 58 | 330 | 5.2 | 7.0 | 0.00 | 0.00 | 0.00 | 61 | 1011.8 |
| 20260508011719 | 58 | 323 | 4.3 | 7.0 | 0.00 | 0.00 | 0.00 | 62 | 1011.8 |
| 20260508011536 | 58 | 332 | 3.5 | 7.0 | 0.00 | 0.00 | 0.00 | 62 | 1011.8 |
| 20260508011434 | 58 | 333 | 1.7 | 6.1 | 0.00 | 0.00 | 0.00 | 61 | 1011.8 |
| 20260508011332 | 58 | 329 | 4.3 | 6.1 | 0.00 | 0.00 | 0.00 | 60 | 1011.5 |
| 20260508011232 | 58 | 332 | 2.6 | 7.0 | 0.00 | 0.00 | 0.00 | 62 | 1011.5 |
| 20260508011150 | 58 | 340 | 3.5 | 7.0 | 0.00 | 0.00 | 0.00 | 62 | 1011.5 |
| 20260508011030 | 58 | 329 | 1.7 | 7.0 | 0.00 | 0.00 | 0.00 | 62 | 1011.5 |
| 20260508010928 | 58 | 329 | 4.3 | 8.7 | 0.00 | 0.00 | 0.00 | 61 | 1011.5 |
| 20260508010827 | 58 | 329 | 3.5 | 8.7 | 0.00 | 0.00 | 0.00 | 61 | 1011.5 |
| 20260508010725 | 58 | 332 | 3.5 | 8.7 | 0.00 | 0.00 | 0.00 | 60 | 1011.5 |
| 20260508010624 | 58 | 332 | 5.2 | 8.7 | 0.00 | 0.00 | 0.00 | 60 | 1011.5 |
| 20260508010542 | 58 | 332 | 4.3 | 8.7 | 0.00 | 0.00 | 0.00 | 60 | 1011.5 |
| 20260508010442 | 58 | 336 | 4.3 | 8.7 | 0.00 | 0.00 | 0.00 | 61 | 1011.5 |
| 20260508010324 | 58 | 332 | 4.3 | 8.7 | 0.00 | 0.00 | 0.00 | 60 | 1011.5 |
| 20260508010243 | 58 | 335 | 4.3 | 8.7 | 0.00 | 0.00 | 0.00 | 60 | 1011.5 |
| 20260508010214 | 58 | 332 | 6.1 | 8.7 | 0.00 | 0.00 | 0.00 | 60 | 1011.5 |
| 20260508010049 | 58 | 332 | 3.5 | 7.0 | 0.00 | 0.00 | 0.00 | 60 | 1011.5 |
| 20260508005929 | 58 | 330 | 4.3 | 7.0 | 0.00 | 0.00 | 0.00 | 61 | 1011.5 |
| 20260508005828 | 58 | 330 | 2.6 | 7.0 | 0.00 | 0.00 | 0.00 | 62 | 1011.6 |
| 20260508005726 | 58 | 337 | 3.5 | 7.0 | 0.00 | 0.00 | 0.00 | 62 | 1011.6 |
| 20260508005628 | 58 | 332 | 4.3 | 7.0 | 0.00 | 0.00 | 0.00 | 62 | 1011.6 |
| 20260508005531 | 58 | 326 | 3.5 | 7.0 | 0.00 | 0.00 | 0.00 | 62 | 1011.6 |
| 20260508005454 | 58 | 333 | 5.2 | 7.0 | 0.00 | 0.00 | 0.00 | 62 | 1011.6 |
| 20260508005331 | 58 | 330 | 1.7 | 7.0 | 0.00 | 0.00 | 0.00 | 61 | 1011.6 |
| 20260508005253 | 58 | 332 | 2.6 | 7.0 | 0.00 | 0.00 | 0.00 | 62 | 1011.6 |
| 20260508005131 | 58 | 332 | 3.5 | 7.0 | 0.00 | 0.00 | 0.00 | 62 | 1011.6 |
| 20260508005029 | 58 | 332 | 2.6 | 7.0 | 0.00 | 0.00 | 0.00 | 62 | 1011.6 |
| 20260508004929 | 58 | 333 | 4.3 | 7.0 | 0.00 | 0.00 | 0.00 | 61 | 1011.6 |
| 20260508004831 | 58 | 332 | 5.2 | 7.0 | 0.00 | 0.00 | 0.00 | 63 | 1011.6 |
| 20260508004802 | 58 | 332 | 4.3 | 7.0 | 0.00 | 0.00 | 0.00 | 63 | 1011.6 |
| 20260508004651 | 58 | 330 | 4.3 | 7.0 | 0.00 | 0.00 | 0.00 | 63 | 1011.6 |
| 20260508004529 | 59 | 332 | 3.5 | 6.1 | 0.00 | 0.00 | 0.00 | 63 | 1011.6 |
| 20260508004447 | 59 | 332 | 1.7 | 6.1 | 0.00 | 0.00 | 0.00 | 63 | 1011.6 |
| 20260508004405 | 59 | 332 | 3.5 | 6.1 | 0.00 | 0.00 | 0.00 | 63 | 1011.6 |
| 20260508004242 | 59 | 332 | 1.7 | 6.1 | 0.00 | 0.00 | 0.00 | 63 | 1011.6 |
| 20260508004202 | 59 | 332 | 3.5 | 6.1 | 0.00 | 0.00 | 0.00 | 63 | 1011.6 |
| 20260508004040 | 59 | 333 | 3.5 | 6.1 | 0.00 | 0.00 | 0.00 | 63 | 1011.6 |
| 20260508003943 | 59 | 332 | 2.6 | 6.1 | 0.00 | 0.00 | 0.00 | 64 | 1011.6 |
| 20260508003902 | 59 | 332 | 3.5 | 6.1 | 0.00 | 0.00 | 0.00 | 65 | 1011.6 |
| 20260508003739 | 59 | 332 | 3.5 | 6.1 | 0.00 | 0.00 | 0.00 | 64 | 1011.6 |
| 20260508003636 | 59 | 326 | 3.5 | 6.1 | 0.00 | 0.00 | 0.00 | 63 | 1011.6 |
| 20260508003535 | 59 | 335 | 3.5 | 6.1 | 0.00 | 0.00 | 0.00 | 63 | 1011.6 |
| 20260508003433 | 59 | 332 | 4.3 | 6.1 | 0.00 | 0.00 | 0.00 | 63 | 1011.6 |
| 20260508003331 | 59 | 326 | 3.5 | 6.1 | 0.00 | 0.00 | 0.00 | 63 | 1011.6 |
| 20260508003234 | 59 | 330 | 3.5 | 6.1 | 0.00 | 0.00 | 0.00 | 64 | 1011.6 |
| 20260508003205 | 59 | 332 | 2.6 | 6.1 | 0.00 | 0.00 | 0.00 | 64 | 1011.6 |
| 20260508003042 | 59 | 332 | 2.6 | 6.1 | 0.00 | 0.00 | 0.00 | 64 | 1011.6 |
| 20260508002939 | 59 | 330 | 2.6 | 6.1 | 0.00 | 0.00 | 0.00 | 64 | 1011.6 |
| 20260508002837 | 59 | 326 | 1.7 | 6.1 | 0.00 | 0.00 | 0.00 | 64 | 1011.2 |
| 20260508002736 | 59 | 332 | 3.5 | 6.1 | 0.00 | 0.00 | 0.00 | 64 | 1011.2 |
| 20260508002634 | 59 | 332 | 3.5 | 6.1 | 0.00 | 0.00 | 0.00 | 63 | 1011.2 |
| 20260508002553 | 59 | 332 | 5.2 | 6.1 | 0.00 | 0.00 | 0.00 | 63 | 1011.2 |
| 20260508002434 | 59 | 330 | 3.5 | 7.0 | 0.00 | 0.00 | 0.00 | 62 | 1011.2 |
| 20260508002333 | 59 | 332 | 2.6 | 7.0 | 0.00 | 0.00 | 0.00 | 62 | 1011.2 |
| 20260508002231 | 59 | 330 | 3.5 | 7.0 | 0.00 | 0.00 | 0.00 | 62 | 1011.2 |
| 20260508002130 | 59 | 332 | 2.6 | 7.0 | 0.00 | 0.00 | 0.00 | 62 | 1011.2 |
| 20260508002028 | 59 | 330 | 4.3 | 7.0 | 0.00 | 0.00 | 0.00 | 62 | 1011.2 |
| 20260508001926 | 59 | 332 | 2.6 | 7.0 | 0.00 | 0.00 | 0.00 | 62 | 1011.2 |
| 20260508001830 | 59 | 325 | 3.5 | 7.0 | 0.00 | 0.00 | 0.00 | 62 | 1011.2 |
| 20260508001739 | 59 | 330 | 4.3 | 7.0 | 0.00 | 0.00 | 0.00 | 61 | 1011.2 |
| 20260508001648 | 59 | 333 | 4.3 | 7.0 | 0.00 | 0.00 | 0.00 | 61 | 1011.2 |
| 20260508001526 | 59 | 322 | 3.5 | 7.0 | 0.00 | 0.00 | 0.00 | 62 | 1011.2 |
| 20260508001424 | 59 | 330 | 3.5 | 7.0 | 0.00 | 0.00 | 0.00 | 62 | 1011.2 |
| 20260508001342 | 59 | 332 | 4.3 | 7.0 | 0.00 | 0.00 | 0.00 | 62 | 1011.0 |
| 20260508001240 | 59 | 332 | 3.5 | 7.0 | 0.00 | 0.00 | 0.00 | 61 | 1011.0 |
| 20260508001138 | 59 | 332 | 4.3 | 7.0 | 0.00 | 0.00 | 0.00 | 62 | 1011.0 |
| 20260508001101 | 59 | 328 | 4.3 | 7.0 | 0.00 | 0.00 | 0.00 | 63 | 1011.0 |
| 20260508000939 | 59 | 332 | 5.2 | 7.0 | 0.00 | 0.00 | 0.00 | 62 | 1011.0 |
| 20260508000837 | 59 | 335 | 3.5 | 7.0 | 0.00 | 0.00 | 0.00 | 63 | 1011.0 |
| 20260508000735 | 59 | 332 | 3.5 | 7.0 | 0.00 | 0.00 | 0.00 | 62 | 1011.0 |
| 20260508000633 | 59 | 330 | 2.6 | 7.0 | 0.00 | 0.00 | 0.00 | 62 | 1011.0 |
| 20260508000533 | 59 | 332 | 2.6 | 7.0 | 0.00 | 0.00 | 0.00 | 61 | 1011.0 |
| 20260508000452 | 59 | 330 | 2.6 | 7.0 | 0.00 | 0.00 | 0.00 | 62 | 1011.0 |
| 20260508000334 | 59 | 332 | 3.5 | 7.0 | 0.00 | 0.00 | 0.00 | 62 | 1011.0 |
| 20260508000234 | 60 | 332 | 2.6 | 7.0 | 0.00 | 0.00 | 0.00 | 62 | 1011.0 |
| 20260508000205 | 60 | 330 | 3.5 | 7.0 | 0.00 | 0.00 | 0.00 | 62 | 1011.0 |
| 20260508000041 | 60 | 329 | 3.5 | 6.1 | 0.00 | 0.00 | 0.00 | 62 | 1011.0 |
| 20260507235940 | 60 | 329 | 5.2 | 6.1 | 0.00 | 0.00 | 0.00 | 62 | 1011.0 |
| 20260507235858 | 60 | 332 | 2.6 | 6.1 | 0.00 | 0.00 | 0.00 | 62 | 1011.0 |
| 20260507235736 | 60 | 330 | 2.6 | 7.0 | 0.00 | 0.00 | 0.00 | 62 | 1011.0 |
| 20260507235633 | 60 | 329 | 2.6 | 7.0 | 0.00 | 0.00 | 0.00 | 62 | 1011.0 |
| 20260507235536 | 60 | 332 | 3.5 | 7.0 | 0.00 | 0.00 | 0.00 | 62 | 1011.0 |
| 20260507235439 | 60 | 333 | 4.3 | 7.0 | 0.00 | 0.00 | 0.00 | 62 | 1011.0 |
| 20260507235337 | 60 | 329 | 3.5 | 7.0 | 0.00 | 0.00 | 0.00 | 62 | 1011.0 |
| 20260507235235 | 60 | 323 | 3.5 | 7.0 | 0.00 | 0.00 | 0.00 | 62 | 1011.0 |
| 20260507235133 | 60 | 329 | 3.5 | 7.0 | 0.00 | 0.00 | 0.00 | 61 | 1011.0 |
| 20260507235030 | 60 | 332 | 3.5 | 7.0 | 0.00 | 0.00 | 0.00 | 61 | 1011.0 |
| 20260507234929 | 60 | 330 | 4.3 | 7.0 | 0.00 | 0.00 | 0.00 | 62 | 1011.0 |
| 20260507234832 | 60 | 329 | 3.5 | 5.2 | 0.00 | 0.00 | 0.00 | 61 | 1011.0 |
| 20260507234740 | 60 | 330 | 3.5 | 5.2 | 0.00 | 0.00 | 0.00 | 62 | 1011.0 |
| 20260507234648 | 60 | 323 | 3.5 | 5.2 | 0.00 | 0.00 | 0.00 | 63 | 1011.0 |
| 20260507234527 | 60 | 320 | 1.7 | 5.2 | 0.00 | 0.00 | 0.00 | 62 | 1011.0 |
| 20260507234447 | 60 | 328 | 2.6 | 6.1 | 0.00 | 0.00 | 0.00 | 62 | 1011.0 |
| 20260507234325 | 60 | 329 | 3.5 | 6.1 | 0.00 | 0.00 | 0.00 | 61 | 1010.9 |
| 20260507234244 | 60 | 328 | 3.5 | 6.1 | 0.00 | 0.00 | 0.00 | 61 | 1010.9 |
| 20260507234204 | 60 | 333 | 2.6 | 6.1 | 0.00 | 0.00 | 0.00 | 62 | 1010.9 |
| 20260507234045 | 60 | 332 | 3.5 | 6.1 | 0.00 | 0.00 | 0.00 | 63 | 1010.9 |
| 20260507233943 | 60 | 330 | 1.7 | 6.1 | 0.00 | 0.00 | 0.00 | 64 | 1010.9 |
| 20260507233841 | 60 | 325 | 2.6 | 6.1 | 0.00 | 0.00 | 0.00 | 63 | 1010.9 |
| 20260507233739 | 60 | 328 | 4.3 | 6.1 | 0.00 | 0.00 | 0.00 | 63 | 1010.9 |
| 20260507233636 | 60 | 330 | 5.2 | 6.1 | 0.00 | 0.00 | 0.00 | 62 | 1010.9 |
| 20260507233554 | 60 | 323 | 3.5 | 6.1 | 0.00 | 0.00 | 0.00 | 62 | 1010.9 |
| 20260507233431 | 60 | 329 | 3.5 | 6.1 | 0.00 | 0.00 | 0.00 | 62 | 1010.9 |
| 20260507233329 | 60 | 335 | 5.2 | 6.1 | 0.00 | 0.00 | 0.00 | 64 | 1010.9 |
| 20260507233238 | 60 | 328 | 3.5 | 7.0 | 0.00 | 0.00 | 0.00 | 63 | 1010.9 |
| 20260507233152 | 60 | 343 | 1.7 | 7.0 | 0.00 | 0.00 | 0.00 | 63 | 1010.9 |
| 20260507233048 | 60 | 328 | 1.7 | 7.0 | 0.00 | 0.00 | 0.00 | 63 | 1010.9 |
| 20260507232946 | 60 | 337 | 3.5 | 7.0 | 0.00 | 0.00 | 0.00 | 63 | 1010.9 |
| 20260507232904 | 60 | 328 | 2.6 | 7.0 | 0.00 | 0.00 | 0.00 | 63 | 1010.9 |
| 20260507232742 | 60 | 328 | 2.6 | 7.0 | 0.00 | 0.00 | 0.00 | 63 | 1010.9 |
| 20260507232659 | 60 | 330 | 2.6 | 7.0 | 0.00 | 0.00 | 0.00 | 62 | 1010.9 |
| 20260507232537 | 60 | 330 | 2.6 | 7.0 | 0.00 | 0.00 | 0.00 | 62 | 1010.9 |
| 20260507232456 | 61 | 330 | 4.3 | 7.0 | 0.00 | 0.00 | 0.00 | 62 | 1010.9 |
| 20260507232333 | 61 | 329 | 0.9 | 7.0 | 0.00 | 0.00 | 0.00 | 63 | 1010.9 |
| 20260507232253 | 61 | 339 | 2.6 | 7.0 | 0.00 | 0.00 | 0.00 | 61 | 1010.9 |
| 20260507232135 | 61 | 325 | 4.3 | 7.8 | 0.00 | 0.00 | 0.00 | 61 | 1010.9 |
| 20260507232032 | 61 | 330 | 2.6 | 7.8 | 0.00 | 0.00 | 0.00 | 60 | 1010.9 |
| 20260507231932 | 61 | 337 | 2.6 | 7.8 | 0.00 | 0.00 | 0.00 | 62 | 1010.9 |
| 20260507231831 | 61 | 335 | 5.2 | 7.8 | 0.00 | 0.00 | 0.00 | 62 | 1010.9 |
| 20260507231729 | 61 | 330 | 1.7 | 7.8 | 0.00 | 0.00 | 0.00 | 61 | 1010.9 |
| 20260507231659 | 61 | 332 | 3.5 | 7.8 | 0.00 | 0.00 | 0.00 | 61 | 1010.9 |
| 20260507231537 | 61 | 340 | 4.3 | 7.8 | 0.00 | 0.00 | 0.00 | 62 | 1010.9 |
| 20260507231438 | 61 | 322 | 3.5 | 7.8 | 0.00 | 0.00 | 0.00 | 62 | 1010.9 |
| 20260507231337 | 61 | 326 | 3.5 | 7.8 | 0.00 | 0.00 | 0.00 | 62 | 1010.8 |
| 20260507231236 | 61 | 333 | 5.2 | 7.8 | 0.00 | 0.00 | 0.00 | 62 | 1010.8 |
| 20260507231134 | 61 | 330 | 3.5 | 7.8 | 0.00 | 0.00 | 0.00 | 62 | 1010.8 |
| 20260507231033 | 61 | 330 | 3.5 | 7.8 | 0.00 | 0.00 | 0.00 | 62 | 1010.8 |
| 20260507230930 | 61 | 330 | 2.6 | 7.8 | 0.00 | 0.00 | 0.00 | 62 | 1010.8 |
| 20260507230849 | 61 | 330 | 3.5 | 7.8 | 0.00 | 0.00 | 0.00 | 62 | 1010.8 |
| 20260507230730 | 61 | 332 | 4.3 | 8.7 | 0.00 | 0.00 | 0.00 | 62 | 1010.8 |
| 20260507230628 | 61 | 329 | 2.6 | 9.6 | 0.00 | 0.00 | 0.00 | 62 | 1010.8 |
| 20260507230528 | 61 | 329 | 3.5 | 9.6 | 0.00 | 0.00 | 0.00 | 63 | 1010.8 |
| 20260507230430 | 61 | 328 | 2.6 | 9.6 | 0.00 | 0.00 | 0.00 | 63 | 1010.8 |
| 20260507230329 | 61 | 350 | 4.3 | 9.6 | 0.00 | 0.00 | 0.00 | 62 | 1010.8 |
| 20260507230238 | 61 | 330 | 2.6 | 9.6 | 0.00 | 0.00 | 0.00 | 62 | 1010.8 |
| 20260507230148 | 61 | 332 | 3.5 | 9.6 | 0.00 | 0.00 | 0.00 | 62 | 1010.8 |
| 20260507230028 | 61 | 328 | 5.2 | 9.6 | 0.00 | 0.00 | 0.00 | 62 | 1010.8 |
| 20260507225927 | 61 | 330 | 3.5 | 9.6 | 0.00 | 0.00 | 0.00 | 63 | 1010.8 |
| 20260507225827 | 61 | 330 | 4.3 | 9.6 | 0.00 | 0.00 | 0.00 | 62 | 1010.9 |
| 20260507225745 | 61 | 329 | 1.7 | 7.8 | 0.00 | 0.00 | 0.00 | 62 | 1010.9 |
| 20260507225704 | 61 | 343 | 1.7 | 7.8 | 0.00 | 0.00 | 0.00 | 62 | 1010.9 |
| 20260507225602 | 61 | 328 | 1.7 | 7.8 | 0.00 | 0.00 | 0.00 | 62 | 1010.9 |
| 20260507225500 | 61 | 325 | 3.5 | 7.8 | 0.00 | 0.00 | 0.00 | 62 | 1010.9 |
| 20260507225337 | 61 | 328 | 1.7 | 7.8 | 0.00 | 0.00 | 0.00 | 62 | 1010.9 |
| 20260507225234 | 61 | 329 | 3.5 | 7.8 | 0.00 | 0.00 | 0.00 | 63 | 1010.9 |
| 20260507225136 | 61 | 320 | 3.5 | 7.8 | 0.00 | 0.00 | 0.00 | 63 | 1010.9 |
| 20260507225054 | 61 | 326 | 4.3 | 7.8 | 0.00 | 0.00 | 0.00 | 63 | 1010.9 |
| 20260507224931 | 61 | 330 | 5.2 | 7.8 | 0.00 | 0.00 | 0.00 | 62 | 1010.9 |
| 20260507224829 | 61 | 330 | 4.3 | 7.0 | 0.00 | 0.00 | 0.00 | 62 | 1010.9 |
| 20260507224738 | 61 | 332 | 4.3 | 7.0 | 0.00 | 0.00 | 0.00 | 63 | 1010.9 |
| 20260507224648 | 61 | 320 | 3.5 | 7.0 | 0.00 | 0.00 | 0.00 | 62 | 1010.9 |
| 20260507224526 | 61 | 332 | 1.7 | 5.2 | 0.00 | 0.00 | 0.00 | 63 | 1010.9 |
| 20260507224424 | 61 | 330 | 0.9 | 6.1 | 0.00 | 0.00 | 0.00 | 62 | 1010.9 |
| 20260507224326 | 61 | 329 | 1.7 | 6.1 | 0.00 | 0.00 | 0.00 | 62 | 1010.8 |
| 20260507224225 | 61 | 328 | 2.6 | 6.1 | 0.00 | 0.00 | 0.00 | 62 | 1010.8 |
| 20260507224143 | 61 | 329 | 2.6 | 6.1 | 0.00 | 0.00 | 0.00 | 63 | 1010.8 |
| 20260507224042 | 61 | 326 | 4.3 | 6.1 | 0.00 | 0.00 | 0.00 | 63 | 1010.8 |
| 20260507223941 | 61 | 326 | 2.6 | 7.0 | 0.00 | 0.00 | 0.00 | 62 | 1010.8 |
| 20260507223858 | 61 | 330 | 0.9 | 7.0 | 0.00 | 0.00 | 0.00 | 62 | 1010.8 |
| 20260507223736 | 61 | 336 | 2.6 | 7.0 | 0.00 | 0.00 | 0.00 | 63 | 1010.8 |
| 20260507223634 | 61 | 330 | 5.2 | 7.0 | 0.00 | 0.00 | 0.00 | 62 | 1010.8 |
| 20260507223536 | 61 | 329 | 1.7 | 7.0 | 0.00 | 0.00 | 0.00 | 62 | 1010.8 |
| 20260507223435 | 61 | 339 | 0.9 | 7.0 | 0.00 | 0.00 | 0.00 | 61 | 1010.8 |
| 20260507223333 | 61 | 332 | 1.7 | 7.0 | 0.00 | 0.00 | 0.00 | 61 | 1010.8 |
| 20260507223251 | 61 | 330 | 3.5 | 7.0 | 0.00 | 0.00 | 0.00 | 61 | 1010.8 |
| 20260507223222 | 61 | 349 | 4.3 | 7.0 | 0.00 | 0.00 | 0.00 | 61 | 1010.8 |
| 20260507223037 | 61 | 328 | 2.6 | 7.0 | 0.00 | 0.00 | 0.00 | 61 | 1010.8 |
| 20260507222936 | 61 | 330 | 1.7 | 6.1 | 0.00 | 0.00 | 0.00 | 60 | 1010.8 |
| 20260507222836 | 61 | 329 | 3.5 | 6.1 | 0.00 | 0.00 | 0.00 | 61 | 1010.8 |
| 20260507222740 | 61 | 344 | 3.5 | 7.0 | 0.00 | 0.00 | 0.00 | 60 | 1010.8 |
| 20260507222659 | 61 | 342 | 2.6 | 7.0 | 0.00 | 0.00 | 0.00 | 61 | 1010.8 |
| 20260507222536 | 61 | 322 | 0.9 | 7.0 | 0.00 | 0.00 | 0.00 | 60 | 1010.8 |
| 20260507222435 | 61 | 332 | 2.6 | 9.6 | 0.00 | 0.00 | 0.00 | 60 | 1010.8 |
| 20260507222333 | 62 | 332 | 2.6 | 9.6 | 0.00 | 0.00 | 0.00 | 61 | 1010.8 |
| 20260507222251 | 61 | 330 | 3.5 | 9.6 | 0.00 | 0.00 | 0.00 | 62 | 1010.8 |
| 20260507222149 | 62 | 339 | 2.6 | 9.6 | 0.00 | 0.00 | 0.00 | 61 | 1010.8 |
| 20260507222025 | 62 | 328 | 3.5 | 9.6 | 0.00 | 0.00 | 0.00 | 61 | 1010.8 |
| 20260507221928 | 62 | 326 | 3.5 | 9.6 | 0.00 | 0.00 | 0.00 | 61 | 1010.8 |
| 20260507221827 | 62 | 328 | 2.6 | 9.6 | 0.00 | 0.00 | 0.00 | 62 | 1010.8 |
| 20260507221745 | 62 | 332 | 2.6 | 9.6 | 0.00 | 0.00 | 0.00 | 63 | 1010.8 |
| 20260507221654 | 62 | 330 | 4.3 | 9.6 | 0.00 | 0.00 | 0.00 | 63 | 1010.8 |
| 20260507221533 | 62 | 333 | 2.6 | 9.6 | 0.00 | 0.00 | 0.00 | 64 | 1010.8 |
| 20260507221431 | 62 | 330 | 2.6 | 9.6 | 0.00 | 0.00 | 0.00 | 63 | 1010.8 |
| 20260507221331 | 62 | 330 | 0.9 | 9.6 | 0.00 | 0.00 | 0.00 | 61 | 1010.7 |
| 20260507221228 | 62 | 329 | 1.7 | 9.6 | 0.00 | 0.00 | 0.00 | 62 | 1010.7 |
| 20260507221131 | 62 | 330 | 2.6 | 9.6 | 0.00 | 0.00 | 0.00 | 60 | 1010.7 |
| 20260507221029 | 62 | 330 | 3.5 | 9.6 | 0.00 | 0.00 | 0.00 | 60 | 1010.7 |
| 20260507220927 | 62 | 330 | 6.1 | 12.2 | 0.00 | 0.00 | 0.00 | 61 | 1010.7 |
| 20260507220825 | 62 | 330 | 6.1 | 12.2 | 0.00 | 0.00 | 0.00 | 62 | 1010.7 |
| 20260507220724 | 62 | 329 | 6.1 | 12.2 | 0.00 | 0.00 | 0.00 | 60 | 1010.7 |
| 20260507220643 | 62 | 328 | 5.2 | 12.2 | 0.00 | 0.00 | 0.00 | 59 | 1010.7 |
| 20260507220541 | 62 | 326 | 3.5 | 12.2 | 0.00 | 0.00 | 0.00 | 61 | 1010.7 |
| 20260507220443 | 62 | 325 | 3.5 | 12.2 | 0.00 | 0.00 | 0.00 | 61 | 1010.7 |
| 20260507220343 | 62 | 323 | 3.5 | 12.2 | 0.00 | 0.00 | 0.00 | 62 | 1010.7 |
| 20260507220224 | 62 | 328 | 6.1 | 12.2 | 0.00 | 0.00 | 0.00 | 62 | 1010.7 |
| 20260507220156 | 62 | 329 | 7.8 | 12.2 | 0.00 | 0.00 | 0.00 | 62 | 1010.7 |
| 20260507220031 | 62 | 330 | 4.3 | 12.2 | 0.00 | 0.00 | 0.00 | 61 | 1010.7 |
| 20260507215931 | 62 | 329 | 3.5 | 12.2 | 0.00 | 0.00 | 0.00 | 61 | 1010.7 |
| 20260507215830 | 62 | 326 | 5.2 | 12.2 | 0.00 | 0.00 | 0.00 | 60 | 1010.5 |
| 20260507215734 | 62 | 336 | 6.1 | 12.2 | 0.00 | 0.00 | 0.00 | 61 | 1010.5 |
| 20260507215632 | 62 | 349 | 5.2 | 12.2 | 0.00 | 0.00 | 0.00 | 61 | 1010.5 |
| 20260507215530 | 62 | 330 | 9.6 | 12.2 | 0.00 | 0.00 | 0.00 | 62 | 1010.5 |
| 20260507215428 | 62 | 328 | 3.5 | 12.2 | 0.00 | 0.00 | 0.00 | 62 | 1010.5 |
| 20260507215330 | 62 | 333 | 2.6 | 12.2 | 0.00 | 0.00 | 0.00 | 61 | 1010.5 |
| 20260507215229 | 62 | 325 | 2.6 | 12.2 | 0.00 | 0.00 | 0.00 | 61 | 1010.5 |
| 20260507215128 | 62 | 332 | 1.7 | 12.2 | 0.00 | 0.00 | 0.00 | 60 | 1010.5 |
| 20260507215031 | 62 | 326 | 0.0 | 12.2 | 0.00 | 0.00 | 0.00 | 59 | 1010.5 |
| 20260507214930 | 62 | 326 | 4.3 | 12.2 | 0.00 | 0.00 | 0.00 | 61 | 1010.5 |
| 20260507214829 | 62 | 325 | 6.1 | 12.2 | 0.00 | 0.00 | 0.00 | 61 | 1010.5 |
| 20260507214727 | 62 | 322 | 8.7 | 12.2 | 0.00 | 0.00 | 0.00 | 61 | 1010.5 |
| 20260507214657 | 62 | 328 | 7.8 | 12.2 | 0.00 | 0.00 | 0.00 | 61 | 1010.5 |
| 20260507214556 | 62 | 329 | 4.3 | 9.6 | 0.00 | 0.00 | 0.00 | 60 | 1010.5 |
| 20260507214434 | 62 | 330 | 3.5 | 9.6 | 0.00 | 0.00 | 0.00 | 61 | 1010.5 |
| 20260507214336 | 62 | 333 | 3.5 | 9.6 | 0.00 | 0.00 | 0.00 | 62 | 1010.7 |
| 20260507214237 | 62 | 330 | 5.2 | 9.6 | 0.00 | 0.00 | 0.00 | 63 | 1010.7 |
| 20260507214137 | 62 | 318 | 2.6 | 9.6 | 0.00 | 0.00 | 0.00 | 61 | 1010.7 |
| 20260507214034 | 62 | 320 | 3.5 | 9.6 | 0.00 | 0.00 | 0.00 | 61 | 1010.7 |
| 20260507213935 | 62 | 330 | 5.2 | 9.6 | 0.00 | 0.00 | 0.00 | 61 | 1010.7 |
| 20260507213854 | 62 | 329 | 5.2 | 9.6 | 0.00 | 0.00 | 0.00 | 62 | 1010.7 |
| 20260507213733 | 62 | 328 | 7.8 | 9.6 | 0.00 | 0.00 | 0.00 | 61 | 1010.7 |
| 20260507213635 | 62 | 330 | 4.3 | 9.6 | 0.00 | 0.00 | 0.00 | 63 | 1010.7 |
| 20260507213533 | 62 | 277 | 6.1 | 9.6 | 0.00 | 0.00 | 0.00 | 62 | 1010.7 |
| 20260507213432 | 62 | 42 | 1.7 | 7.8 | 0.00 | 0.00 | 0.00 | 62 | 1010.7 |
| 20260507213330 | 62 | 192 | 1.7 | 7.8 | 0.00 | 0.00 | 0.00 | 61 | 1010.7 |
| 20260507213238 | 62 | 330 | 4.3 | 7.8 | 0.00 | 0.00 | 0.00 | 61 | 1010.7 |
| 20260507213149 | 62 | 330 | 1.7 | 7.8 | 0.00 | 0.00 | 0.00 | 61 | 1010.7 |
| 20260507213026 | 62 | 112 | 1.7 | 7.8 | 0.00 | 0.00 | 0.00 | 62 | 1010.7 |
| 20260507212930 | 62 | 213 | 4.3 | 7.8 | 0.00 | 0.00 | 0.00 | 61 | 1010.7 |
| 20260507212848 | 62 | 330 | 4.3 | 7.8 | 0.00 | 0.00 | 0.00 | 61 | 1010.6 |
| 20260507212744 | 62 | 332 | 5.2 | 7.8 | 0.00 | 0.00 | 0.00 | 61 | 1010.6 |
| 20260507212703 | 62 | 332 | 6.1 | 7.8 | 0.00 | 0.00 | 0.00 | 62 | 1010.6 |
| 20260507212539 | 62 | 332 | 4.3 | 7.8 | 0.00 | 0.00 | 0.00 | 61 | 1010.6 |
| 20260507212429 | 62 | 330 | 2.6 | 7.0 | 0.00 | 0.00 | 0.00 | 61 | 1010.6 |
| 20260507212325 | 62 | 332 | 3.5 | 9.6 | 0.00 | 0.00 | 0.00 | 63 | 1010.6 |
| 20260507212242 | 62 | 332 | 3.5 | 9.6 | 0.00 | 0.00 | 0.00 | 63 | 1010.6 |
| 20260507212201 | 62 | 332 | 1.7 | 9.6 | 0.00 | 0.00 | 0.00 | 61 | 1010.6 |
| 20260507212058 | 62 | 318 | 2.6 | 9.6 | 0.00 | 0.00 | 0.00 | 61 | 1010.6 |
| 20260507211954 | 62 | 326 | 3.5 | 9.6 | 0.00 | 0.00 | 0.00 | 63 | 1010.6 |
| 20260507211850 | 62 | 329 | 2.6 | 9.6 | 0.00 | 0.00 | 0.00 | 62 | 1010.6 |
| 20260507211751 | 62 | 322 | 4.3 | 9.6 | 0.00 | 0.00 | 0.00 | 61 | 1010.6 |
| 20260507211700 | 62 | 336 | 3.5 | 9.6 | 0.00 | 0.00 | 0.00 | 62 | 1010.6 |